ECMWFNIL_925_thetae_000.txt.gz
Theta_e
355 355 356 354 350 348 347 344 340 339 338 336 336 337 337 335 334 335 336 337 335 333 332 331 330 330 331 331 332 332 332 333 334 334 335 335 335 334 333 333 333 333
357 357 356 352 347 346 344 342 340 338 337 336 337 337 337 336 334 334 335 335 334 333 333 333 331 330 331 332 332 333 333 333 334 334 334 334 334 334 333 333 333 333
357 357 354 348 345 343 342 339 338 337 335 336 338 339 338 337 335 334 334 334 334 332 333 333 332 331 331 332 332 333 333 333 333 334 333 333 333 333 333 333 333 333
357 356 352 346 343 341 339 338 337 336 335 336 339 339 338 336 335 335 334 334 332 331 331 332 332 331 332 332 332 332 332 333 333 333 332 332 332 332 332 332 332 333
355 355 351 346 343 340 338 337 337 335 334 335 338 338 337 336 335 334 333 333 331 330 330 331 331 331 332 331 331 332 332 333 332 332 332 332 332 331 332 332 333 333
354 354 351 346 342 340 337 336 336 335 334 334 336 337 337 335 334 332 332 331 330 330 330 331 331 331 331 331 331 332 332 332 332 331 331 331 331 331 331 332 333 333
353 353 350 345 341 339 337 336 335 335 333 334 336 337 336 334 332 332 332 332 331 332 331 332 332 332 331 330 331 332 331 330 330 329 329 330 330 330 331 332 333 334
352 352 349 344 341 339 337 335 334 334 334 334 335 336 335 333 332 332 333 333 333 333 333 334 333 332 331 331 331 332 331 329 328 328 329 329 329 330 330 332 334 335
351 352 348 343 341 340 337 335 335 335 335 335 335 335 334 332 332 333 334 334 335 334 335 334 334 332 331 331 331 330 329 329 329 329 329 329 329 330 331 332 334 335
349 349 346 343 341 340 337 334 335 336 336 335 335 335 334 333 334 334 335 335 335 335 335 334 333 332 331 330 329 329 329 329 329 329 329 329 329 330 331 332 333 333
347 346 344 342 341 340 337 334 335 337 337 336 336 336 336 335 334 334 334 335 335 335 334 333 333 332 331 330 329 329 329 329 330 329 329 329 329 329 329 329 330 330
345 343 341 341 341 340 338 336 336 338 337 337 337 337 338 337 335 334 333 334 334 334 334 333 333 333 331 330 329 329 329 330 330 329 329 329 329 328 327 327 328 329
343 341 341 342 341 339 338 337 338 338 338 338 338 339 339 338 336 335 334 333 333 334 334 334 334 333 332 330 329 330 330 331 330 330 329 329 329 328 328 328 328 328
343 342 342 342 341 339 338 338 338 338 339 339 340 340 339 338 336 336 334 333 334 334 335 335 334 333 331 330 330 331 331 331 331 330 329 328 329 329 329 329 328 328
343 342 340 340 339 337 338 338 338 339 339 339 340 340 339 338 337 336 334 333 334 335 335 334 332 331 331 331 332 332 332 333 332 331 329 328 329 329 329 328 328 328
344 341 339 339 338 337 337 338 338 339 339 339 340 340 339 338 338 337 335 334 335 336 336 334 332 330 331 332 333 333 334 334 334 332 330 329 329 329 329 329 328 328
343 339 338 338 338 338 337 337 337 338 339 339 339 340 339 339 339 338 336 335 336 337 336 334 332 331 331 331 332 333 334 334 335 334 333 330 329 329 329 329 329 328
340 337 336 337 337 335 334 334 335 337 338 339 339 339 339 338 340 339 334 332 336 339 337 335 333 332 331 331 331 332 333 334 334 335 335 333 331 329 330 330 329 328
339 337 336 335 334 331 331 333 334 333 334 336 338 339 338 338 340 339 333 331 337 339 337 336 334 332 332 331 331 332 333 333 334 334 335 335 333 330 330 329 328 327
338 337 336 335 334 332 331 331 330 329 329 332 336 338 338 338 339 339 338 337 339 338 336 336 335 333 332 332 332 333 333 333 334 334 335 335 333 331 329 328 327 326
339 338 337 337 334 330 328 326 325 326 328 330 333 334 335 334 335 336 338 338 338 338 336 336 335 334 333 332 332 332 332 333 334 335 335 334 332 331 329 327 326 326
338 336 335 333 329 325 324 322 321 322 323 325 328 329 329 329 331 334 335 336 337 337 336 336 336 335 334 332 332 332 333 334 335 334 334 332 331 330 328 327 327 326
335 332 330 329 327 325 324 323 323 322 321 322 324 323 324 326 330 333 334 335 336 336 336 337 336 335 334 333 332 334 334 335 334 333 332 331 330 329 327 326 327 327
332 330 328 327 327 327 326 325 324 322 320 320 320 321 325 328 331 333 333 334 335 335 335 334 332 331 331 331 331 332 332 332 332 332 332 331 330 328 326 326 327 326
330 327 327 326 326 325 323 323 324 324 324 325 325 326 329 331 333 333 334 334 334 333 333 331 329 328 328 328 328 328 329 330 331 331 331 329 328 326 327 327 326 325
328 327 327 326 326 325 323 324 327 328 328 329 330 331 332 333 333 333 334 334 333 333 332 330 328 327 327 326 326 326 328 329 329 330 328 327 327 326 326 326 325 323

ECMWFNIL_925_thetae_003.txt.gz
Theta_e
354 354 355 356 355 353 353 353 352 351 348 345 341 339 337 336 335 335 336 336 337 338 335 331 329 330 333 334 331 331 333 334 335 335 335 336 336 337 336 335 335 336
355 355 355 355 354 353 353 353 353 351 350 346 341 338 337 336 335 334 335 335 337 338 335 331 330 329 331 333 332 331 332 332 333 334 334 334 336 337 337 336 336 337
355 355 355 355 354 352 353 353 353 351 349 345 340 338 337 335 335 334 334 335 336 337 335 333 332 331 330 332 331 332 333 332 335 335 333 333 334 334 335 336 336 336
355 354 354 354 353 351 352 354 353 351 348 344 340 338 336 335 335 335 334 335 335 335 334 332 333 332 332 332 332 333 333 332 334 334 332 333 333 332 334 335 335 335
354 353 353 352 351 350 353 354 352 349 346 343 339 337 336 335 336 336 335 335 334 334 333 332 333 333 333 333 332 332 333 333 333 332 332 334 334 333 333 332 332 333
353 352 351 350 348 351 355 355 351 347 344 341 338 336 335 337 338 337 336 335 334 334 333 332 332 333 333 333 331 332 333 333 334 333 333 334 334 333 333 330 329 331
352 352 350 349 349 353 355 353 348 344 342 339 336 335 336 338 339 337 336 335 334 334 333 331 331 331 331 331 331 332 331 332 334 334 333 333 332 332 332 330 329 330
352 352 351 352 352 352 351 347 343 341 339 337 335 335 336 338 338 336 335 335 334 333 332 330 329 329 330 332 332 331 332 333 333 333 332 332 332 332 332 331 330 330
351 351 350 350 349 346 345 342 340 339 337 336 335 335 336 337 337 336 335 333 332 332 332 331 330 331 332 333 333 331 333 334 334 332 331 331 332 332 333 332 332 332
349 349 349 348 346 344 344 343 340 338 337 335 334 334 335 335 335 336 335 333 332 332 333 333 332 333 334 334 333 332 332 332 331 329 329 329 331 331 332 331 332 333
349 348 348 347 345 344 345 344 339 338 336 334 335 335 334 333 335 335 333 333 332 333 334 333 333 333 334 333 332 331 330 329 329 329 329 329 330 329 329 330 330 329
350 347 346 344 345 345 344 342 339 338 336 334 333 334 332 332 334 335 333 333 333 334 334 334 333 333 333 333 332 331 330 329 329 329 329 330 330 329 329 329 329 328
349 348 345 342 343 342 340 340 339 336 336 334 332 333 334 334 335 335 334 334 334 334 335 334 332 332 333 333 333 332 331 330 330 330 330 331 330 330 329 329 328 328
349 348 344 340 340 340 340 339 337 336 337 335 334 335 332 331 335 338 336 335 335 335 335 334 333 333 333 333 334 334 332 330 329 330 330 331 331 331 329 329 328 328
348 346 344 341 339 340 340 338 335 335 334 331 332 333 327 326 335 338 337 337 336 335 335 334 333 333 333 334 334 333 331 330 330 331 332 332 333 333 332 330 329 328
347 345 344 341 338 338 339 337 335 335 331 324 325 331 331 333 337 334 333 338 338 336 335 335 334 334 334 334 333 331 330 331 331 332 333 333 334 334 334 333 332 331
347 344 343 341 339 337 337 337 336 335 330 323 324 332 337 338 337 332 333 338 338 336 336 335 334 335 335 333 332 331 330 331 332 332 333 333 333 334 335 335 334 334
345 344 342 341 339 338 337 337 338 337 331 326 329 335 337 338 338 337 338 339 338 337 337 336 335 336 336 335 333 331 330 331 331 332 332 332 333 333 334 334 334 335
344 343 342 340 339 338 337 339 339 338 334 331 334 337 337 337 339 340 340 339 338 338 337 336 334 334 336 337 335 334 332 331 331 332 332 332 333 333 334 334 334 334
343 342 340 339 339 338 339 341 339 337 336 336 336 337 337 338 338 339 339 338 338 339 338 337 335 335 336 338 337 335 333 332 332 333 333 334 334 335 334 334 334 334
341 340 339 339 338 338 340 340 338 337 337 337 336 337 338 337 337 339 339 338 338 338 337 336 336 337 337 337 335 334 334 334 334 333 333 333 333 333 333 333 333 332
341 338 338 338 338 338 339 338 337 337 337 336 336 336 336 335 337 337 335 335 335 335 334 333 334 336 336 335 335 335 334 333 332 331 331 331 330 330 331 332 331 330
341 338 337 337 337 337 337 337 337 337 336 334 333 334 335 334 335 333 331 331 332 331 330 331 333 335 335 335 334 334 332 331 331 330 330 329 328 328 329 331 330 329
342 339 337 337 337 337 336 335 335 334 333 331 331 333 334 334 333 332 329 328 330 330 330 330 332 335 334 333 332 331 330 329 328 328 328 328 327 327 330 331 329 327
341 340 339 337 336 335 334 332 330 329 330 329 329 332 333 333 333 332 328 328 329 331 331 331 332 333 331 330 330 329 327 325 324 325 327 327 327 328 329 329 326 326
341 341 339 335 331 330 330 330 328 328 329 329 328 330 332 332 332 331 329 328 329 331 331 332 332 331 329 328 327 327 326 323 323 323 325 326 327 328 329 328 326 325

ECMWFNIL_925_thetae_006.txt.gz
Theta_e
363 362 361 359 358 358 358 357 356 356 355 354 353 351 350 348 347 345 344 343 342 341 341 340 338 336 335 336 336 336 337 337 337 337 337 338 337 337 336 336 336 336
363 363 363 361 359 358 359 357 356 356 356 355 353 351 350 348 347 346 344 343 341 340 341 340 338 337 335 335 336 336 337 338 337 337 338 339 338 337 337 336 336 336
364 364 364 362 360 360 359 358 357 356 355 354 353 351 350 349 347 346 344 342 341 340 340 340 339 338 336 335 336 337 336 337 337 336 337 338 337 337 336 336 335 335
365 365 365 362 360 360 359 357 357 356 355 355 354 352 351 349 347 346 344 342 341 340 341 340 339 338 337 336 336 336 336 336 336 336 336 337 337 337 336 335 335 334
366 365 365 363 360 360 359 358 357 356 354 355 354 352 351 349 346 345 343 342 342 341 341 340 339 337 337 337 336 336 335 335 335 335 336 336 336 336 335 335 335 334
366 365 365 364 361 360 360 359 357 356 355 355 354 353 351 349 346 343 342 343 342 341 341 340 339 338 337 338 337 337 336 335 334 335 336 336 336 335 334 334 335 335
366 365 365 364 361 359 361 360 355 353 354 355 354 351 350 349 346 343 343 343 342 341 341 340 339 339 337 337 337 336 336 336 335 335 336 336 336 335 334 334 334 334
365 365 363 362 360 360 361 359 354 352 353 355 353 351 349 347 345 343 342 342 342 342 341 340 340 339 337 336 335 335 336 337 336 336 336 336 335 334 335 334 334 334
365 364 362 361 360 361 360 358 355 352 351 353 353 349 345 343 342 339 338 339 340 341 341 339 339 339 337 335 335 336 337 337 336 336 336 336 335 335 335 334 334 334
364 362 361 360 360 359 358 357 355 353 351 352 351 347 341 338 338 337 337 338 338 337 337 336 336 338 337 335 335 337 338 337 336 336 336 336 335 335 334 334 334 334
362 361 360 358 358 357 356 354 353 352 352 351 348 344 338 334 335 337 337 335 330 328 332 333 333 336 337 336 337 337 338 337 337 336 336 336 335 335 335 335 334 333
361 360 358 357 357 356 354 352 350 350 350 348 344 340 335 334 335 333 330 327 323 322 327 330 331 335 337 338 337 338 337 337 337 336 336 335 336 335 335 334 334 334
361 359 358 357 356 354 351 349 347 346 346 344 342 338 334 334 332 326 323 322 323 325 326 327 331 336 338 339 339 338 337 338 338 337 336 336 336 335 334 333 333 332
361 359 358 355 352 349 347 346 345 345 346 345 342 339 337 333 327 323 323 323 326 331 329 326 331 337 339 340 340 339 338 338 338 337 337 336 335 335 335 334 333 333
360 360 355 350 347 345 345 345 345 346 346 346 345 341 336 330 324 323 324 323 327 333 331 327 330 335 338 339 338 338 339 339 338 337 337 336 335 335 336 336 336 336
361 358 351 346 345 344 344 344 344 343 338 336 341 339 331 325 323 323 323 323 329 335 335 333 333 333 335 336 335 336 338 338 338 337 337 336 335 335 336 337 337 337
360 355 348 344 344 344 343 342 342 342 337 333 337 337 331 326 324 321 323 327 333 337 339 338 336 334 335 335 333 334 335 335 337 337 336 336 335 335 336 336 335 337
358 353 347 344 343 343 344 341 338 339 339 336 336 335 332 329 325 324 329 334 336 338 340 339 336 333 335 336 334 333 333 334 335 335 336 336 334 334 336 336 336 339
357 353 347 343 343 342 342 341 338 338 339 338 336 335 334 331 331 333 337 339 339 339 339 339 337 335 336 337 335 333 334 336 336 335 336 336 333 335 338 338 339 341
356 353 348 344 343 342 341 341 339 338 338 338 338 337 335 335 336 339 340 340 341 340 340 340 339 338 338 337 336 335 335 336 336 335 334 334 332 333 336 337 339 340
356 353 349 346 344 343 343 343 342 341 340 339 339 339 338 338 339 340 340 340 341 342 342 342 341 339 338 337 336 333 333 335 337 336 335 334 333 333 334 336 337 335
355 352 350 348 346 345 345 344 344 343 342 341 341 341 340 340 341 340 340 339 340 340 340 341 340 338 338 337 334 332 333 336 337 336 335 335 336 337 337 335 333 330
353 351 351 349 348 347 347 346 345 344 344 345 344 343 342 341 340 340 340 340 339 338 338 339 338 338 337 337 335 334 335 336 336 336 337 338 339 337 335 333 330 328
352 352 351 350 349 349 348 347 347 345 345 345 344 343 342 340 340 340 340 340 339 337 338 338 337 337 336 335 335 333 332 333 336 337 338 338 337 336 335 333 330 328
351 351 351 350 349 349 348 347 347 346 345 344 343 343 342 341 341 341 339 338 338 337 338 337 337 337 335 333 332 329 327 332 336 338 338 337 337 337 335 333 330 329
350 350 350 349 349 348 347 347 346 344 343 342 341 341 341 341 341 340 339 338 337 337 336 336 336 335 331 329 327 325 326 331 335 337 337 337 336 335 333 332 332 330

ECMWFNIL_925_thetae_009.txt.gz
Theta_e
362 362 362 362 360 359 358 358 357 356 354 353 353 352 352 351 349 346 343 343 342 342 342 342 342 340 338 337 337 338 338 338 337 337 337 338 338 338 338 338 337 337
363 362 362 362 361 360 359 358 356 356 355 355 353 351 351 350 348 346 344 343 342 342 342 343 342 340 338 337 338 337 337 338 338 337 337 338 339 339 339 338 338 338
363 362 363 362 360 359 359 358 357 357 355 355 353 351 351 350 348 347 345 344 343 343 343 342 342 340 338 337 338 337 337 338 338 336 336 337 339 339 338 338 337 337
364 363 362 361 359 358 359 358 357 357 355 353 353 351 351 351 349 347 346 345 344 343 343 342 341 341 339 337 338 338 337 338 338 336 336 337 338 338 338 338 338 336
366 364 363 361 359 358 358 358 357 357 355 352 352 351 352 352 350 348 347 346 345 343 342 342 341 341 340 338 337 337 337 337 337 336 337 337 336 337 337 337 337 337
367 366 364 363 361 359 359 358 356 355 353 351 351 352 353 353 351 349 348 347 345 343 342 342 341 340 340 339 338 337 337 337 337 337 336 336 336 336 335 335 335 336
367 367 366 365 362 361 360 359 357 356 353 351 352 353 353 353 351 349 348 347 344 343 342 342 342 340 339 339 339 338 338 337 337 336 336 336 337 336 336 335 335 336
368 369 368 366 364 362 360 359 359 358 354 352 352 353 353 353 352 349 347 346 344 343 343 342 342 342 340 340 339 339 339 339 338 337 337 337 337 337 337 337 337 336
370 370 369 367 365 363 360 357 358 359 356 354 353 353 353 353 352 349 345 345 345 343 344 343 342 342 341 339 339 338 338 338 338 338 338 338 338 338 338 337 337 336
370 369 368 367 364 362 359 355 357 359 358 356 352 351 354 353 351 348 345 345 346 343 343 343 343 343 341 338 337 337 337 337 338 338 338 338 339 338 337 337 336 336
370 368 367 366 362 359 357 355 356 358 358 356 353 352 354 351 349 347 344 346 346 342 343 345 344 343 341 338 337 337 336 337 338 339 338 338 338 338 338 337 336 335
370 368 367 364 360 358 356 353 353 356 355 351 352 354 353 350 349 347 345 346 345 342 344 346 344 342 340 338 337 337 337 338 339 339 339 338 338 338 338 337 336 335
371 368 366 363 359 358 357 352 353 355 352 348 351 354 350 348 349 346 346 346 341 337 342 344 342 340 338 337 338 338 338 339 339 339 339 338 338 338 337 337 335 334
369 367 365 360 358 358 357 355 355 355 352 349 350 350 345 346 348 345 345 344 336 331 337 341 341 339 336 336 338 339 340 340 340 339 339 338 338 337 337 336 335 334
368 367 364 361 359 358 356 356 357 354 350 346 343 341 342 344 346 344 343 340 335 334 338 339 338 337 336 336 339 340 341 341 340 340 339 339 338 337 336 336 335 335
368 366 365 363 362 359 355 355 356 352 347 343 340 341 343 344 346 344 342 338 336 336 338 338 337 336 336 336 339 342 343 342 340 340 340 339 339 338 336 335 334 334
368 365 365 364 362 358 356 355 354 350 346 343 343 345 346 346 345 344 342 339 336 337 338 339 338 336 336 337 338 341 343 342 341 340 340 339 339 338 336 335 335 335
365 363 363 361 359 357 355 354 352 349 346 347 349 350 349 348 346 344 341 338 337 338 339 339 338 336 337 337 336 336 338 341 342 341 340 340 339 338 336 336 336 335
362 360 361 359 358 356 354 353 352 349 348 349 351 351 349 348 347 344 340 337 337 339 338 338 338 338 338 336 330 329 333 337 340 341 340 339 339 338 337 337 337 336
360 359 359 358 358 357 355 355 354 352 351 351 351 351 349 348 346 344 342 340 340 340 339 338 338 339 340 336 330 329 333 336 338 340 339 337 338 339 340 339 338 338
359 359 359 358 358 357 356 356 355 354 353 351 351 350 349 348 346 343 342 340 341 341 340 339 339 338 339 338 333 331 334 336 336 337 336 335 336 338 339 338 337 338
360 359 359 357 357 356 356 356 355 355 354 352 351 350 349 348 346 343 341 341 342 342 341 340 339 338 339 338 336 336 337 337 336 335 335 336 337 337 337 337 338 340
361 358 357 356 355 355 355 355 355 354 353 352 351 350 348 347 346 344 343 343 343 342 342 341 341 340 339 338 337 337 338 337 336 336 337 338 340 339 339 340 340 341
362 358 356 355 354 354 354 353 353 352 351 351 350 349 348 346 345 344 343 343 342 342 342 342 341 341 341 339 335 334 337 337 337 337 338 338 339 339 340 341 340 340
362 359 357 355 354 353 353 352 352 351 350 350 349 348 347 346 345 345 344 343 342 342 341 342 341 341 341 339 335 334 337 338 338 338 338 337 336 335 336 338 337 339
360 360 358 355 355 354 353 352 352 351 350 349 349 348 348 347 345 345 344 344 343 342 342 341 341 340 340 338 334 334 337 337 338 339 336 333 333 334 336 338 337 337

ECMWFNIL_925_thetae_012.txt.gz
Theta_e
365 365 364 362 360 359 357 358 359 359 358 359 358 356 353 352 352 351 350 348 344 343 343 343 342 342 342 340 337 339 340 339 338 338 337 337 338 337 337 337 337 337
364 364 364 363 361 360 359 358 359 359 358 357 357 356 354 352 351 350 348 347 344 342 343 343 342 342 341 340 337 338 339 339 338 338 337 337 338 338 339 339 338 337
364 364 364 363 362 361 359 359 359 359 357 356 355 354 353 352 351 348 346 345 344 343 343 343 343 342 341 339 338 338 338 338 338 337 337 337 338 338 339 339 338 337
365 364 363 363 363 361 360 359 359 358 357 355 354 353 353 352 350 348 346 345 344 343 343 343 343 343 341 339 338 338 338 338 338 338 337 337 338 338 339 338 338 338
365 364 363 362 363 362 360 360 359 358 357 356 355 353 353 352 350 349 347 345 344 344 344 343 343 343 341 339 338 338 337 337 338 338 337 337 337 338 338 338 337 337
366 364 363 362 362 361 360 360 359 358 357 356 355 354 353 352 351 349 348 346 345 345 345 343 343 343 341 339 338 338 338 337 338 338 337 337 337 337 337 337 337 337
367 365 364 363 362 360 359 359 359 359 358 356 354 353 352 352 351 350 349 347 346 346 345 344 343 342 342 340 338 338 338 337 338 338 337 336 336 336 336 336 336 336
367 366 364 363 362 360 360 359 359 359 358 355 354 353 352 352 352 350 349 349 348 346 345 344 343 342 342 341 340 338 338 337 338 338 338 337 336 337 337 336 336 336
367 367 365 364 362 360 360 359 359 358 357 355 353 352 353 353 352 351 350 349 348 347 345 343 343 342 341 342 341 339 338 337 337 338 338 338 337 337 337 337 337 337
367 368 367 365 363 361 359 359 359 358 357 355 353 352 352 353 353 352 351 350 349 348 345 343 343 343 342 341 341 341 339 339 339 338 338 338 337 337 338 338 338 338
367 368 367 366 364 361 359 359 359 358 357 354 353 353 353 353 353 353 352 350 349 348 345 344 343 343 342 341 341 341 341 340 340 340 339 339 339 339 339 339 338 338
367 366 367 366 364 362 360 359 358 358 358 356 354 352 353 354 354 353 353 351 349 348 346 344 343 343 343 342 342 342 341 341 340 339 339 340 340 339 339 339 338 338
369 367 367 366 365 363 361 359 358 358 358 357 354 353 353 354 354 354 353 352 350 348 346 345 344 343 343 343 342 341 340 338 337 338 339 340 340 339 339 339 338 338
371 369 368 367 366 364 362 360 358 356 357 357 356 354 354 352 353 354 354 352 350 348 346 345 344 344 344 343 341 338 336 335 336 338 340 340 340 339 339 339 339 338
371 371 369 368 366 364 362 361 358 355 355 357 357 356 354 351 352 355 355 352 350 348 346 344 343 344 344 343 340 336 335 336 337 339 341 341 340 339 339 339 338 337
372 371 369 367 366 364 362 361 359 355 355 356 357 357 355 352 353 356 355 352 351 349 347 345 345 346 345 343 339 334 333 337 340 340 341 341 340 340 339 339 338 337
371 371 370 368 366 365 362 360 359 356 355 356 357 356 354 353 354 356 355 353 352 351 349 349 348 346 344 341 337 331 331 337 341 341 342 342 341 340 339 339 338 337
371 372 371 369 367 365 363 361 359 357 356 355 356 356 355 354 355 356 355 354 353 352 350 348 347 344 342 340 336 330 330 339 342 342 343 342 341 341 340 339 338 337
372 373 372 370 368 365 363 362 360 358 358 357 358 358 357 356 355 354 354 352 351 350 348 345 344 342 339 338 334 328 329 339 344 343 343 342 341 341 340 339 338 337
373 373 372 370 368 366 365 364 361 361 361 360 359 359 357 356 354 353 352 350 348 346 344 342 341 339 337 336 334 328 327 336 344 344 343 342 341 341 340 340 338 337
374 372 371 370 369 367 366 364 362 361 361 359 358 357 357 355 353 351 350 348 345 343 342 341 340 340 338 335 334 330 325 330 339 343 342 340 341 341 340 339 338 338
373 371 370 369 368 367 366 363 362 362 360 358 356 355 355 354 352 351 349 346 344 342 341 341 340 340 338 336 335 333 328 327 334 340 340 340 342 341 338 338 338 339
370 369 368 367 366 365 364 363 362 361 359 358 356 354 354 352 351 350 348 346 344 343 343 342 341 340 339 338 337 336 332 329 334 339 340 340 340 338 336 337 338 340
368 367 366 365 364 363 363 362 361 360 359 358 356 355 354 352 351 350 347 346 344 343 343 343 342 341 340 339 339 339 336 333 335 338 340 339 338 338 338 337 337 337
366 365 364 363 362 361 360 360 360 359 359 358 357 356 354 353 352 350 348 346 344 343 344 343 343 343 341 339 339 339 338 336 336 338 339 338 339 339 338 337 336 336
365 364 363 362 360 359 359 359 358 358 357 355 354 353 352 351 350 348 347 346 345 344 344 343 343 344 343 341 340 339 338 338 337 338 339 339 340 339 338 337 336 335

ECMWFNIL_925_thetae_015.txt.gz
Theta_e
362 362 362 361 360 358 357 355 354 355 355 355 356 355 356 356 354 354 352 349 349 348 343 340 340 338 339 340 337 338 340 338 337 336 335 335 334 336 337 336 336 337
363 363 362 362 361 359 357 355 354 355 355 355 355 355 356 355 354 354 352 349 348 346 342 342 341 338 338 339 337 339 339 338 338 337 336 337 336 335 336 336 336 337
363 363 363 362 361 360 358 356 355 355 355 356 355 355 356 355 354 354 352 349 347 345 342 342 341 338 338 339 338 339 339 338 339 339 337 337 336 336 336 337 338 337
364 363 363 362 361 360 359 358 356 356 356 357 355 355 355 354 354 353 352 349 347 345 343 342 340 338 338 341 339 338 338 338 338 338 338 337 336 337 338 338 338 338
364 364 363 362 362 360 359 359 357 357 357 357 356 355 354 353 353 353 352 349 347 344 343 342 341 337 337 340 340 337 337 338 338 338 338 337 337 337 337 337 338 338
364 364 363 363 363 361 359 359 358 358 358 357 357 356 355 353 352 351 351 350 347 344 342 342 341 339 337 339 339 337 336 337 337 336 337 338 337 337 337 338 338 337
365 364 363 363 363 361 360 359 359 358 357 358 357 357 356 354 352 350 350 349 346 343 342 342 342 341 339 338 338 338 337 336 336 335 336 337 338 337 337 338 337 336
364 364 363 363 363 361 360 359 359 358 358 357 357 356 356 354 352 351 349 348 345 343 343 343 342 341 340 339 338 338 338 337 337 336 336 337 337 337 337 337 337 337
365 364 363 363 362 361 361 359 359 359 358 357 356 355 355 353 352 351 350 347 345 344 344 343 343 342 341 340 338 337 338 338 337 336 336 337 337 337 336 336 336 336
365 364 363 363 362 361 361 360 359 359 358 357 357 356 355 354 352 352 350 349 347 345 344 344 343 342 342 341 339 337 337 338 337 337 337 337 337 336 335 335 335 335
365 365 364 363 362 361 361 361 360 359 358 357 357 356 355 355 353 352 351 350 348 346 345 345 344 343 342 341 340 338 336 336 337 337 337 338 338 337 336 335 336 336
365 365 364 363 362 361 361 360 360 359 359 358 357 356 355 355 354 353 351 350 349 347 346 345 345 343 342 341 341 340 338 336 336 336 337 337 338 338 338 337 337 337
365 365 364 363 362 361 360 360 359 358 358 358 357 356 355 354 354 353 352 351 350 349 347 346 345 344 343 341 341 341 340 339 337 335 335 335 336 337 337 336 336 336
365 364 364 363 362 361 360 360 359 358 357 357 357 357 355 354 353 353 353 352 351 350 348 347 345 344 343 342 341 341 341 340 339 337 336 336 337 337 337 337 337 338
364 364 364 364 363 362 360 359 358 357 357 357 357 356 355 354 353 353 353 353 352 351 350 348 346 344 344 342 341 341 341 340 340 339 339 339 339 339 339 340 340 339
364 364 364 364 363 362 361 360 358 357 356 356 357 356 355 354 353 353 354 354 353 352 350 349 347 345 344 343 342 341 340 340 341 341 340 340 339 339 339 340 339 339
364 364 364 364 364 363 362 361 359 358 357 356 356 356 355 354 353 353 354 354 354 353 351 349 347 346 345 344 342 341 340 340 341 341 340 339 338 338 339 339 339 339
364 364 364 364 364 364 363 362 360 359 358 357 357 357 356 354 353 353 354 354 354 353 351 350 348 347 345 344 343 342 341 340 340 340 338 336 337 339 340 340 340 339
366 365 365 364 364 364 364 363 362 360 359 358 357 357 357 356 355 354 354 354 354 353 352 350 348 347 346 345 344 342 341 340 339 337 335 335 337 340 341 340 340 339
367 368 367 366 366 365 364 364 363 362 360 358 357 357 358 358 356 354 354 354 355 354 352 350 348 347 346 345 344 343 342 340 337 335 336 338 339 340 341 341 340 339
368 369 368 368 367 366 366 365 363 362 361 359 358 357 357 357 357 356 356 355 355 354 353 351 349 347 346 345 345 344 343 341 336 334 337 341 341 341 342 341 341 340
368 369 369 370 369 367 366 365 364 362 360 359 358 357 357 357 356 356 356 355 355 354 353 351 349 349 348 347 346 345 343 341 336 334 338 343 343 342 342 341 341 340
367 369 370 370 368 368 366 365 364 362 360 360 359 358 358 357 356 356 355 355 354 352 351 349 347 346 346 345 345 343 342 340 335 334 339 344 343 342 342 341 340 339
366 368 369 369 369 368 366 365 364 362 361 361 359 359 359 357 356 355 353 353 351 349 348 346 343 343 342 341 341 340 338 337 333 332 337 342 342 342 341 341 339 337
368 369 369 369 369 368 366 365 363 362 361 360 359 358 357 356 355 353 352 351 349 347 345 343 342 341 341 340 339 338 336 334 331 330 335 339 341 341 341 341 339 337
370 370 370 369 368 367 366 365 363 363 361 359 357 356 355 354 353 351 350 348 347 346 344 343 342 342 340 340 339 338 337 334 331 332 334 337 340 341 340 340 338 337

ECMWFNIL_925_thetae_018.txt.gz
Theta_e
356 356 357 357 358 357 357 357 357 358 358 358 357 355 355 355 355 355 354 353 351 349 349 348 345 339 338 340 340 340 340 338 338 338 337 336 334 335 336 335 334 335
357 357 357 357 358 357 357 357 357 358 358 358 355 354 355 355 355 354 353 353 352 350 349 347 344 338 338 340 340 341 341 338 337 338 339 338 334 334 336 336 335 336
358 358 358 358 357 357 357 357 357 357 358 357 354 354 355 355 354 354 354 353 352 350 348 347 344 339 338 341 341 340 340 338 337 338 338 337 333 332 336 336 335 336
358 359 359 358 358 357 357 357 357 358 357 356 355 354 354 354 354 354 354 353 353 350 347 348 346 340 338 340 340 339 338 337 338 338 335 334 332 331 334 336 336 336
358 358 359 358 358 358 357 358 357 358 357 355 355 354 354 354 354 354 354 353 353 349 347 348 346 341 338 339 339 338 337 338 339 337 334 334 334 333 333 335 336 337
359 358 359 359 359 359 358 358 357 357 356 355 354 354 355 354 354 354 354 353 352 349 348 347 343 340 339 339 338 338 337 338 338 337 336 336 335 335 334 335 336 338
359 359 360 360 359 359 359 358 358 357 356 355 354 354 355 354 354 354 354 353 352 349 349 347 342 341 341 339 338 338 338 338 338 337 337 337 337 336 335 336 337 338
360 360 360 360 360 360 360 359 358 357 356 355 355 354 355 354 355 354 354 353 352 350 349 346 342 342 342 340 338 338 338 338 338 338 337 337 338 337 336 336 337 337
361 361 361 361 361 360 360 360 358 358 357 356 355 355 355 355 355 354 354 353 352 350 348 345 343 342 342 340 338 338 338 338 338 337 337 337 337 337 337 337 337 336
361 361 361 361 362 361 361 360 359 358 358 357 356 355 355 355 354 354 354 354 352 350 348 345 343 343 342 340 337 336 337 336 336 336 336 336 337 336 337 337 337 337
362 362 362 362 362 362 361 360 359 359 358 357 357 356 356 356 355 354 353 353 352 350 348 346 344 343 342 340 337 336 335 334 334 335 335 335 335 335 336 337 337 337
362 362 362 362 362 362 361 361 360 359 358 358 357 356 356 356 355 354 353 352 351 350 348 347 345 344 343 341 340 337 335 334 334 335 335 334 333 333 335 336 337 337
362 362 362 362 362 362 361 361 360 359 358 358 357 357 356 356 356 354 353 352 351 350 349 347 345 344 343 342 341 339 337 335 335 336 336 336 334 333 334 335 336 337
363 363 362 362 362 361 361 361 360 360 358 358 358 357 356 356 355 355 354 352 351 349 348 347 345 344 343 342 342 341 339 337 335 335 336 336 336 335 335 335 336 336
363 363 362 362 362 361 361 361 360 359 359 358 357 357 356 356 355 354 353 352 351 349 348 346 345 344 343 343 342 341 340 338 336 335 336 336 337 336 336 336 337 337
364 364 363 362 362 361 361 360 360 359 359 358 357 357 356 356 355 354 353 352 351 350 348 347 345 344 344 343 343 342 341 340 338 336 336 336 336 336 336 336 336 337
363 363 363 363 362 362 361 360 360 359 358 358 357 357 357 356 355 354 353 353 352 351 350 348 346 346 345 344 343 342 342 341 339 338 337 337 336 335 334 333 333 334
363 363 363 363 363 362 361 361 359 359 358 358 357 357 357 356 355 354 354 353 353 352 351 350 348 347 346 345 344 343 343 342 340 338 338 338 337 336 333 332 332 334
363 363 363 363 363 362 361 361 360 359 358 357 357 356 356 356 355 354 354 353 353 352 351 351 349 348 347 345 345 344 343 342 341 339 339 339 338 337 335 335 336 337
363 363 363 362 363 362 361 361 360 359 358 357 356 356 356 356 355 354 354 353 353 353 352 351 350 350 348 347 346 344 343 342 341 340 339 339 338 337 337 337 338 339
364 363 363 363 362 362 362 361 360 359 358 357 356 355 355 355 355 354 354 353 353 353 352 352 351 350 349 348 347 346 344 343 342 341 340 339 339 337 337 338 339 338
364 363 362 362 362 362 362 361 361 360 359 358 356 355 355 355 355 354 354 353 353 353 352 352 351 350 350 349 348 346 345 343 342 341 340 339 339 338 338 339 338 337
364 363 363 362 361 362 361 361 361 360 360 359 357 356 356 356 355 355 354 354 353 353 352 352 351 350 350 349 348 347 345 343 342 341 340 340 339 338 338 338 336 336
364 364 363 362 361 362 361 361 361 361 360 359 358 357 356 356 356 356 355 354 353 353 353 352 351 351 350 350 349 348 346 344 342 341 340 339 339 338 338 338 338 338
364 364 364 363 363 362 361 361 361 361 361 360 359 359 357 357 356 356 355 355 354 353 353 352 352 351 350 350 349 348 346 345 343 341 339 339 339 339 339 340 341 341
363 364 364 364 364 363 362 362 361 361 361 360 359 359 358 356 356 355 355 355 354 354 353 352 352 352 351 350 349 348 346 345 342 341 339 338 339 341 341 342 342 342

ECMWFNIL_925_thetae_021.txt.gz
Theta_e
353 353 353 353 353 353 354 355 354 355 355 356 357 357 358 357 357 357 356 356 357 356 355 353 350 346 340 338 340 342 341 339 341 342 341 341 340 339 337 336 335 335
353 354 354 354 354 354 354 354 354 355 356 356 356 356 357 357 357 356 356 356 356 356 355 352 348 344 341 341 341 341 339 339 341 341 339 338 338 337 335 334 335 334
354 354 354 354 355 355 355 355 355 355 356 356 356 356 356 356 356 356 356 356 355 355 354 351 346 343 343 343 342 339 339 340 341 340 338 337 336 334 332 333 335 334
355 355 355 355 355 355 355 355 355 355 356 356 356 356 356 356 356 356 356 355 355 355 354 351 347 344 345 345 342 339 339 340 340 339 338 337 336 335 333 334 334 334
355 355 355 355 355 355 355 355 355 356 356 356 356 356 356 356 356 355 355 355 355 354 353 352 348 345 346 347 344 340 339 339 340 340 339 338 337 337 336 334 334 335
355 356 355 355 355 355 355 355 355 355 355 356 356 356 356 356 356 355 354 354 355 354 353 352 350 347 346 348 346 341 338 339 340 340 339 337 337 338 337 335 334 335
356 356 356 356 355 355 355 355 355 355 355 355 356 356 356 356 356 354 353 354 354 354 353 352 351 349 348 347 345 341 338 339 340 341 340 338 338 338 336 334 333 334
356 356 356 356 356 356 356 356 355 355 355 355 355 355 356 356 355 354 353 353 354 353 353 352 352 350 348 347 345 341 339 339 340 340 339 338 338 337 334 333 333 333
356 356 356 357 357 357 357 356 356 356 355 355 355 355 356 355 355 354 353 353 353 353 352 352 352 351 349 347 346 343 340 338 339 339 338 338 338 337 335 333 334 334
357 357 356 357 357 357 357 357 356 356 356 356 355 355 355 355 355 354 354 353 353 352 352 352 352 351 349 347 346 345 341 338 338 338 337 337 337 337 336 335 335 335
358 357 357 357 357 357 357 357 357 357 356 356 355 355 355 355 355 354 353 353 353 352 352 352 351 351 348 346 346 345 342 339 338 338 338 337 337 337 337 336 336 336
358 358 357 357 357 357 357 357 357 357 356 356 356 355 355 355 354 354 354 353 353 352 352 351 351 350 348 346 345 344 342 340 339 338 338 337 337 337 337 337 336 336
358 358 358 358 358 357 358 358 357 357 357 356 356 355 355 355 354 354 354 353 353 352 352 352 351 350 348 346 345 343 342 340 340 339 338 337 337 337 337 337 336 336
358 358 358 358 358 358 358 358 358 358 357 357 357 356 356 355 355 354 353 353 353 352 352 352 350 350 348 346 344 343 342 341 341 340 338 337 337 337 336 336 336 336
358 358 359 358 359 359 358 359 358 358 358 357 357 357 356 356 355 354 354 353 353 353 352 351 351 350 349 347 344 343 342 341 341 340 338 336 336 336 335 335 335 335
359 359 359 359 359 359 359 359 359 359 358 358 357 357 357 356 356 355 354 353 352 352 352 351 350 350 349 348 346 344 342 341 341 341 339 337 336 335 335 334 333 334
359 359 359 359 359 359 359 359 359 359 359 358 357 357 357 356 356 355 355 354 353 352 352 351 350 349 348 347 346 345 343 342 342 341 340 338 337 336 334 333 333 334
359 360 360 359 360 360 360 360 360 359 359 358 358 357 357 356 356 355 355 354 353 352 352 351 350 349 348 347 347 346 344 343 342 341 341 340 338 337 336 334 334 334
360 360 360 360 360 360 360 360 360 359 359 358 358 358 357 356 356 355 355 354 354 353 352 351 350 349 348 348 347 346 345 344 343 342 341 340 340 339 338 336 335 333
360 361 361 360 361 360 360 360 359 359 359 358 358 357 357 357 356 355 355 354 354 353 353 352 351 350 349 348 347 346 345 344 343 342 342 341 341 341 339 337 336 334
361 361 361 361 361 360 361 360 359 360 359 358 358 357 357 356 356 355 355 354 354 353 352 352 351 350 349 348 347 347 346 345 344 342 342 341 342 341 339 337 336 335
362 361 361 362 361 361 361 360 360 359 359 358 358 357 357 356 356 356 355 354 354 353 353 352 352 351 351 350 348 348 346 345 344 342 342 342 342 341 340 338 337 337
362 362 362 361 361 361 361 361 360 360 359 358 357 356 356 356 356 355 355 354 354 353 353 353 352 352 351 351 350 349 347 346 344 343 342 342 342 341 340 339 338 337
362 362 362 362 361 361 361 361 361 360 359 359 357 356 356 355 355 355 355 354 354 353 353 353 352 352 352 351 351 350 349 347 345 343 342 342 341 340 339 339 339 338
362 362 362 362 361 361 361 361 360 360 360 359 358 357 356 355 355 354 354 354 354 353 354 353 352 352 352 351 352 350 350 348 345 343 342 341 341 340 339 339 338 338
361 362 362 362 361 361 361 361 361 360 359 359 358 357 356 355 354 354 354 354 353 353 353 353 352 352 352 352 352 351 351 349 346 343 342 341 340 340 339 339 339 338

ECMWFNIL_925_thetae_024.txt.gz
Theta_e
352 352 352 351 351 351 351 351 351 352 352 353 353 353 353 353 353 354 355 356 356 356 356 355 355 354 354 354 354 354 350 342 337 337 338 340 340 341 341 340 338 337
352 352 352 352 352 351 351 351 351 351 351 352 352 352 352 352 352 353 354 356 356 356 356 356 356 355 355 354 354 352 347 340 336 336 338 340 340 341 341 341 340 338
352 352 352 352 352 352 351 351 351 351 351 351 351 351 351 351 352 353 354 356 357 357 356 356 356 355 355 354 352 350 345 339 336 336 339 339 339 341 341 340 340 338
352 352 352 352 352 352 351 352 352 352 352 351 351 351 351 351 352 354 355 356 357 357 356 356 355 354 355 354 351 349 343 338 337 337 339 339 339 341 340 339 339 337
352 352 352 352 352 352 352 352 352 352 352 352 351 352 352 352 352 354 355 356 356 357 356 355 355 354 354 354 351 347 342 339 338 338 339 338 339 341 339 337 337 334
352 352 352 352 352 352 352 352 352 352 352 352 352 352 352 352 352 353 355 355 356 356 356 355 355 354 354 353 351 346 342 340 340 338 338 338 340 341 338 337 336 334
352 352 352 352 352 352 352 352 352 352 353 353 353 353 353 352 353 353 354 355 355 355 356 355 354 354 354 353 351 346 343 343 342 340 339 339 340 341 339 338 337 335
353 353 352 352 352 352 353 353 353 353 353 354 354 353 353 353 353 353 353 354 355 355 355 355 354 354 353 353 351 347 344 344 344 343 341 340 339 340 339 339 338 336
353 353 353 353 353 352 353 353 353 354 354 354 354 353 354 353 353 354 353 354 355 355 355 354 353 353 353 353 351 348 346 344 345 345 343 341 339 339 339 339 338 337
353 354 353 353 354 353 353 353 353 354 354 354 354 354 354 354 354 354 354 354 354 355 354 354 353 353 353 352 351 349 347 346 345 345 345 343 340 338 339 340 339 337
354 354 354 354 354 354 354 354 354 354 354 354 354 354 354 354 354 354 354 354 354 354 354 354 353 352 352 352 351 350 349 347 346 345 345 343 340 338 339 340 339 337
353 354 354 354 354 354 354 354 354 354 354 354 354 354 354 354 354 354 354 354 354 353 354 354 353 352 352 351 351 350 350 349 347 346 345 343 341 339 339 339 338 337
354 354 354 354 355 354 355 355 355 355 355 354 354 354 354 354 354 354 354 353 354 353 354 353 353 352 352 351 351 350 350 349 347 345 344 343 342 340 339 338 338 337
354 355 354 354 354 355 355 355 355 355 355 355 355 354 354 354 354 354 354 353 353 353 353 353 353 352 351 351 350 350 349 348 347 346 344 342 342 341 339 338 338 337
355 355 355 355 355 355 355 355 355 355 355 355 355 355 354 354 354 354 354 353 354 353 353 353 352 352 351 351 350 350 349 348 346 345 344 342 341 341 339 338 338 337
355 356 356 355 355 355 355 355 355 356 356 356 355 355 355 354 354 354 353 353 353 353 353 352 352 352 352 351 351 350 349 348 346 345 344 342 341 340 339 338 338 338
356 356 356 356 356 356 356 356 356 356 356 356 356 356 355 355 354 354 353 353 353 353 353 352 352 352 352 352 351 350 350 348 347 345 344 342 341 340 339 339 339 338
356 356 357 357 356 357 356 356 356 356 356 356 356 356 355 355 355 354 354 353 353 352 352 352 352 352 352 352 351 351 350 349 347 346 344 343 342 341 341 340 340 338
356 356 357 357 357 357 357 357 357 356 357 356 356 356 356 355 355 355 354 353 353 353 352 352 352 352 352 351 351 351 350 349 348 347 345 344 343 342 341 341 339 337
356 357 357 357 357 357 357 357 357 357 357 357 356 356 356 355 355 355 354 354 353 353 352 352 352 352 352 351 351 351 350 350 348 347 346 345 344 343 343 341 339 337
356 357 357 357 357 357 358 357 357 357 357 357 357 357 356 356 356 355 355 354 354 353 353 352 352 352 351 351 351 351 351 350 348 347 346 345 344 344 343 341 339 338
357 357 357 357 357 357 358 358 357 358 358 357 357 357 357 356 356 355 355 354 354 354 353 353 352 351 351 351 351 351 350 349 348 346 345 345 344 344 342 341 339 339
357 357 357 357 357 358 358 358 358 358 358 358 357 357 357 357 356 356 355 355 354 354 353 353 352 352 351 351 351 350 350 349 347 345 345 344 344 343 342 340 340 339
357 358 358 358 358 358 358 358 358 358 358 358 358 357 357 357 356 356 355 355 354 354 353 353 352 352 352 351 351 350 350 349 347 345 344 344 344 343 341 341 340 339
357 358 358 358 358 358 358 358 358 358 358 358 358 358 357 357 357 356 355 355 355 354 354 353 353 352 352 351 351 351 350 349 347 345 344 343 343 342 341 341 340 340
358 358 358 359 359 358 359 359 359 359 359 358 358 358 357 357 357 356 356 355 354 354 354 353 352 352 351 351 351 351 351 350 347 345 344 343 343 341 341 340 340 340

ECMWFNIL_925_thetae_027.txt.gz
Theta_e
356 355 354 354 354 353 353 352 352 353 353 354 355 353 352 352 353 353 354 355 356 356 357 358 358 358 357 354 355 354 354 353 352 353 351 342 337 340 341 340 341 342
355 355 354 354 354 353 352 351 351 351 351 351 353 352 351 351 352 353 353 353 354 355 356 357 358 358 357 355 355 355 354 353 353 353 351 343 338 339 340 340 341 341
355 355 354 354 354 353 352 352 351 351 351 351 351 351 351 352 352 353 353 353 353 353 354 355 357 357 358 356 355 355 354 354 353 353 350 343 338 337 338 339 340 341
355 355 355 355 354 354 353 353 352 351 352 352 351 351 351 352 352 353 354 353 353 353 351 353 356 357 357 357 356 355 355 354 354 353 350 343 337 336 337 338 340 341
354 354 355 355 355 355 354 353 353 352 353 353 352 351 351 351 352 354 354 354 354 354 351 353 356 357 357 357 356 356 355 355 354 352 349 344 337 335 336 336 339 341
354 354 354 354 355 355 354 353 353 353 353 353 352 351 352 351 351 353 353 353 355 355 353 354 357 357 357 356 356 356 355 355 354 352 349 344 338 336 336 335 337 340
355 354 354 354 354 354 354 353 353 353 353 354 353 352 352 351 351 352 352 353 354 355 354 353 355 357 357 356 355 355 354 354 354 351 348 343 339 338 336 335 337 340
355 355 354 354 355 355 355 354 354 353 353 353 353 353 352 352 352 352 351 352 353 354 354 353 354 357 357 355 355 354 354 354 354 352 348 344 340 339 337 334 337 340
355 355 355 355 355 355 355 355 355 354 353 353 354 354 353 352 352 352 351 352 352 354 355 354 353 356 357 355 354 353 353 353 353 352 349 344 341 340 338 334 336 339
355 356 355 355 355 355 355 355 355 355 354 353 354 355 354 353 352 352 352 351 352 354 356 355 354 356 356 355 353 353 353 352 353 352 349 345 342 341 339 335 335 339
355 356 355 355 355 355 355 355 355 355 355 355 355 356 356 354 352 352 352 352 352 353 354 354 355 357 356 354 352 353 353 352 352 352 350 346 343 342 341 337 335 338
356 355 355 355 355 355 355 355 355 355 356 356 356 356 357 356 354 353 353 353 353 352 353 354 355 357 355 352 351 353 353 352 352 352 350 347 344 343 343 341 338 338
356 356 356 356 355 356 356 355 355 356 356 356 356 356 357 356 355 354 353 353 353 353 353 353 355 356 355 352 352 353 352 352 352 352 350 348 346 345 344 343 341 340
356 356 357 357 356 356 356 356 356 356 356 357 357 356 357 357 356 355 354 354 354 354 354 354 355 356 354 352 353 353 352 352 352 351 350 348 346 346 345 344 344 343
357 357 357 357 357 357 357 357 357 357 357 357 357 356 357 357 356 355 355 355 355 355 354 355 356 355 354 353 353 352 352 352 351 351 350 348 347 347 346 345 345 344
356 356 357 357 357 357 357 357 358 357 357 357 357 356 357 357 356 356 356 356 356 356 355 356 357 356 354 353 352 352 352 352 351 351 349 348 347 346 346 346 345 344
355 355 357 357 357 358 358 357 358 358 357 357 357 357 357 357 356 357 357 357 357 357 357 356 356 356 355 353 352 351 351 352 351 350 349 348 347 347 346 346 345 344
355 356 357 358 357 358 358 358 359 358 358 358 358 358 358 357 357 357 357 357 357 357 357 356 355 355 354 353 352 352 352 352 351 350 349 348 347 347 346 346 345 344
356 357 358 359 358 358 358 359 359 359 359 359 359 359 358 358 357 358 357 357 357 357 357 356 356 355 354 353 352 352 352 352 351 350 349 348 347 347 346 346 345 344
357 358 359 360 359 359 359 359 359 359 359 359 359 359 359 358 358 357 357 357 357 356 357 356 356 355 354 353 352 352 352 351 350 350 349 349 348 347 347 346 345 344
359 359 360 361 360 360 360 360 359 360 360 359 359 359 359 359 358 358 358 357 357 357 357 357 356 355 354 353 352 352 352 351 350 349 349 349 348 347 347 346 345 345
360 361 361 361 361 361 361 360 360 360 360 360 359 359 359 359 358 358 358 358 357 357 357 357 356 355 354 353 353 352 352 351 350 349 349 349 348 347 347 346 345 345
360 361 361 361 361 361 361 361 361 361 361 360 360 359 359 359 359 358 358 358 358 357 357 356 356 355 354 353 353 352 351 350 349 349 350 349 348 348 347 346 346 346
358 360 361 361 361 361 361 361 361 362 361 360 360 359 359 359 359 359 358 358 358 357 357 357 356 356 355 353 353 352 352 351 350 349 350 350 349 348 347 346 346 346
357 360 361 361 361 361 361 362 362 362 361 361 360 360 360 359 359 359 358 358 358 358 357 357 357 357 355 354 353 352 351 351 350 349 350 350 350 349 348 346 345 345
358 360 361 361 362 362 361 361 362 362 361 361 361 360 360 360 359 359 359 359 358 358 358 357 357 357 356 354 353 352 352 351 350 350 350 351 351 350 349 347 345 344

ECMWFNIL_925_thetae_030.txt.gz
Theta_e
362 363 363 363 362 360 360 360 360 360 360 359 360 360 360 361 360 360 361 362 363 362 361 361 361 360 360 359 358 358 358 357 357 356 355 353 352 349 345 346 347 346
362 363 363 362 363 361 360 360 360 360 360 360 359 360 361 362 362 362 361 362 363 362 361 361 361 360 360 360 359 358 358 358 357 355 354 353 353 350 345 346 347 347
362 363 362 361 363 363 361 361 361 361 361 361 360 360 361 362 363 363 362 362 362 361 361 361 361 360 360 360 360 360 359 358 357 355 353 353 353 351 346 345 347 347
363 362 362 362 363 363 361 361 361 361 360 360 361 360 360 361 363 364 364 363 362 361 362 361 361 360 360 360 360 360 359 358 357 356 354 353 353 352 348 345 345 347
363 362 362 363 363 363 362 361 361 362 361 361 361 360 361 362 363 364 364 363 362 362 362 361 361 360 360 360 360 359 358 357 357 358 356 354 354 353 349 345 345 346
363 363 362 363 364 362 362 362 361 362 361 360 360 361 361 362 363 363 364 364 362 361 361 361 360 359 359 360 360 359 358 357 357 357 357 354 354 353 349 346 347 346
363 363 362 363 364 363 363 362 361 361 361 361 361 361 361 362 363 362 362 363 362 361 361 361 360 360 360 360 360 359 359 358 357 356 356 355 355 354 350 347 348 347
363 364 363 363 364 363 362 362 362 361 361 361 361 361 361 362 362 363 362 362 362 361 361 362 361 360 360 360 360 359 359 359 358 357 356 355 355 355 352 349 349 347
363 363 364 363 363 362 362 362 362 362 361 361 360 361 361 362 362 363 362 362 363 362 362 362 362 361 360 360 360 360 360 360 359 358 357 356 356 356 354 350 349 348
362 362 363 362 362 362 361 361 361 362 361 361 361 360 361 362 362 362 363 363 363 363 363 364 363 361 360 360 360 360 361 361 360 359 358 358 358 357 354 351 350 349
362 362 361 362 362 361 361 361 361 361 361 361 361 360 361 362 362 362 363 364 364 363 363 364 364 362 360 359 359 360 361 362 362 361 360 360 359 357 354 352 351 349
361 361 361 360 361 360 360 360 359 359 360 361 361 361 360 362 363 363 363 364 364 364 364 364 364 362 360 359 359 360 362 362 363 362 361 360 359 357 354 353 351 350
361 361 360 360 360 360 360 359 359 358 359 360 361 361 361 361 363 364 363 364 365 365 364 365 364 362 360 360 359 360 362 362 362 362 361 359 358 357 355 353 352 351
360 361 361 360 360 360 360 359 360 359 359 360 360 361 361 361 362 364 364 363 364 365 365 365 364 363 361 360 359 359 361 362 362 362 360 360 359 357 355 354 352 351
361 361 361 361 361 361 361 360 360 360 359 360 361 361 362 361 361 363 364 364 364 364 364 364 365 364 361 359 359 359 360 361 362 362 360 360 359 358 356 354 353 352
362 362 362 362 362 362 362 361 361 361 360 360 361 362 362 362 362 363 364 364 364 364 364 364 365 364 361 359 359 359 360 361 361 362 360 360 359 358 357 355 354 353
363 363 364 363 363 362 363 363 362 362 362 361 362 363 363 363 362 363 364 364 364 364 364 364 364 363 361 359 358 358 359 360 361 361 361 360 359 359 357 356 355 354
364 365 365 365 364 364 363 364 363 363 363 363 362 363 364 363 363 363 364 363 364 364 364 364 364 362 360 359 358 357 357 359 360 361 361 360 359 359 358 357 356 355
366 366 366 366 366 365 365 365 364 364 364 364 364 364 364 364 363 364 364 363 363 364 363 364 364 363 360 358 358 357 356 357 360 361 360 359 359 359 358 357 357 355
367 366 366 367 367 366 365 366 365 364 364 364 364 364 364 364 363 362 363 363 362 362 363 363 364 363 361 358 357 357 356 356 358 360 360 359 359 359 358 358 357 356
367 366 366 366 367 366 366 366 365 365 365 364 364 364 364 363 362 362 362 361 361 361 361 362 363 363 361 359 357 356 356 356 356 358 360 359 359 359 358 358 357 357
367 366 366 365 366 366 366 365 365 366 365 365 364 363 364 364 363 362 361 360 360 360 360 361 362 362 360 358 357 357 356 355 355 356 358 359 359 358 357 357 357 357
366 365 365 365 366 367 366 365 365 366 365 365 365 364 364 364 363 362 361 360 360 360 360 361 361 361 359 357 358 358 356 355 354 355 356 358 358 357 356 356 356 357
366 365 365 366 366 366 366 365 365 365 366 365 365 364 364 363 364 363 361 361 360 360 360 360 361 361 360 358 358 357 356 355 354 354 355 357 357 355 355 355 355 355
365 365 366 366 366 366 366 366 366 365 365 366 365 364 364 363 363 362 362 361 360 360 359 360 360 360 360 359 358 357 356 355 355 355 355 356 356 355 355 355 354 354
366 366 366 366 367 367 367 366 366 365 365 365 365 364 364 363 362 361 362 362 360 360 360 359 360 360 359 360 359 357 356 355 355 355 355 356 356 355 355 355 354 354

ECMWFNIL_925_thetae_033.txt.gz
Theta_e
363 362 361 360 360 358 358 361 363 364 362 360 359 360 360 359 358 357 357 359 362 362 361 361 362 363 363 362 362 361 360 359 358 357 356 354 352 352 351 348 347 348
363 363 362 361 361 360 359 359 361 363 363 361 358 358 360 361 360 359 358 359 362 363 362 362 362 363 363 361 362 361 360 360 359 357 356 354 352 353 352 348 347 348
364 364 364 362 361 361 360 359 361 362 363 362 360 358 359 361 362 361 360 360 362 363 363 362 361 363 363 361 361 362 360 361 361 358 356 354 352 353 352 349 347 348
365 364 364 363 361 362 362 361 361 362 362 362 362 359 358 360 362 363 363 362 362 363 363 362 361 362 363 362 361 361 360 360 361 359 356 354 353 353 353 350 347 348
365 364 364 364 363 363 364 362 361 362 362 361 362 361 359 359 362 364 365 364 364 364 362 362 362 362 362 363 363 361 360 359 360 359 357 355 354 354 354 351 347 348
366 366 365 365 365 365 365 364 362 362 363 361 361 361 361 361 362 364 366 366 366 364 362 361 362 362 362 363 364 362 361 359 359 359 358 356 355 355 354 352 349 348
366 367 365 365 366 366 364 365 364 363 363 362 361 361 362 363 363 363 365 366 366 365 362 361 362 362 362 362 363 362 362 360 358 359 359 357 355 355 355 354 351 349
365 366 366 365 366 365 365 366 366 365 364 363 362 362 363 364 364 364 364 366 367 366 363 361 363 364 362 361 362 362 362 362 360 359 360 359 356 355 356 355 352 350
366 366 366 366 365 364 365 365 365 366 365 364 363 362 364 364 364 365 365 366 366 366 365 363 363 364 362 361 362 362 362 362 361 360 360 358 357 356 357 356 354 352
366 366 366 365 364 363 363 362 362 365 366 365 364 362 363 364 364 365 366 366 365 365 366 364 364 365 364 362 362 362 362 361 361 361 360 359 358 357 358 357 355 353
366 365 365 364 363 362 361 360 361 364 365 366 364 361 360 363 365 366 366 368 367 365 365 365 366 366 365 364 362 362 362 362 362 361 361 361 360 359 359 358 356 355
366 365 364 364 362 361 360 360 361 362 363 364 364 362 359 361 364 366 367 368 368 367 366 366 366 366 366 365 362 362 362 361 362 362 362 362 362 360 359 359 358 356
366 364 364 363 363 361 360 359 360 359 360 362 363 363 362 360 363 366 366 367 369 368 367 367 367 367 367 366 363 361 362 362 361 363 363 363 363 362 360 360 360 358
366 366 365 363 363 363 361 360 360 359 358 360 363 364 364 361 362 366 367 368 369 369 368 368 368 368 368 367 365 361 361 362 362 363 363 363 363 363 361 361 360 358
366 367 367 365 364 364 364 361 361 360 359 360 363 364 364 363 362 364 368 368 368 369 369 368 368 369 368 367 366 363 361 361 362 363 363 362 363 363 362 362 361 359
367 367 368 367 365 365 366 365 362 362 362 361 363 364 364 364 363 364 367 368 368 369 370 369 369 369 368 366 365 364 363 361 362 364 363 362 362 363 363 362 360 359
368 368 369 369 367 366 367 368 365 364 364 363 362 363 364 365 365 364 365 367 368 368 369 369 369 368 367 365 363 363 363 362 362 363 363 362 362 363 364 363 361 359
369 369 370 370 370 368 368 369 368 365 366 365 363 363 365 366 366 365 365 366 367 368 368 369 369 368 366 365 363 361 361 362 362 363 363 363 362 363 363 363 362 360
370 370 370 370 371 370 369 369 369 367 366 366 366 365 365 366 367 366 366 366 367 368 368 368 368 368 367 365 363 362 360 360 361 362 362 362 362 363 364 364 362 360
371 371 371 371 371 370 370 369 369 368 367 366 367 366 365 367 367 367 367 367 367 367 368 368 368 368 367 366 363 362 360 359 360 361 363 362 362 363 364 364 363 361
372 372 371 372 372 371 370 370 369 370 368 367 367 366 366 367 368 368 368 367 366 367 368 368 368 367 367 366 364 362 361 359 359 361 362 362 361 362 363 363 363 363
372 372 372 373 373 372 371 370 370 370 369 368 366 366 366 367 367 368 368 367 367 367 366 366 366 365 366 366 365 363 362 360 359 360 362 361 362 363 363 363 363 363
372 373 373 374 373 372 371 370 370 370 370 369 367 366 366 367 367 368 368 368 368 366 365 364 365 365 364 364 365 364 363 360 359 360 361 362 363 364 363 363 363 362
372 373 373 373 373 373 371 371 371 371 370 370 368 366 366 366 367 368 367 367 366 365 365 365 365 365 364 363 364 364 363 361 360 360 362 362 363 363 363 363 362 361
371 373 373 373 373 374 372 372 371 370 370 370 368 367 366 365 366 367 367 367 366 365 365 364 364 364 364 363 363 363 363 362 360 361 362 362 362 362 362 363 362 362
371 372 373 373 373 373 372 371 371 370 370 370 369 368 367 366 365 365 366 367 367 366 365 364 363 363 363 363 362 362 362 362 361 362 362 361 361 361 360 361 361 361

ECMWFNIL_925_thetae_039.txt.gz
Theta_e
356 357 357 357 356 356 357 357 355 356 356 356 356 357 357 357 356 357 358 358 357 358 359 360 361 362 361 361 360 360 360 360 358 357 357 356 352 350 348 344 346 348
357 357 357 357 357 356 357 358 357 356 356 356 356 357 358 357 357 357 358 358 358 358 360 360 361 362 361 361 361 361 360 359 358 358 357 357 355 352 350 344 345 349
357 357 357 357 357 357 357 358 358 356 355 356 356 358 358 358 359 359 358 358 358 359 360 360 360 360 360 361 362 361 360 359 358 358 358 357 356 355 352 347 344 346
358 357 357 357 356 356 356 357 358 358 357 356 356 357 358 359 360 359 358 357 358 359 360 359 359 359 360 361 361 361 360 360 359 358 359 358 358 356 354 350 347 344
358 358 358 358 357 357 356 355 357 358 358 358 357 358 359 359 359 359 359 358 358 359 359 358 358 359 360 360 361 362 361 360 360 359 359 358 358 358 355 352 351 347
358 359 358 359 358 357 357 355 354 356 358 359 359 359 360 360 360 359 359 359 358 358 359 359 358 358 360 361 361 361 361 360 359 360 359 359 358 358 356 353 352 351
359 359 359 359 358 357 357 356 354 353 355 358 360 360 360 361 361 360 359 359 359 359 359 359 359 359 360 361 361 361 361 360 359 360 359 359 358 357 356 354 352 352
359 359 359 359 358 358 357 356 355 354 353 355 359 361 361 361 361 362 360 359 358 359 360 360 360 359 359 361 361 361 362 361 360 360 359 359 359 358 357 356 353 352
360 359 358 359 358 358 358 356 355 354 353 354 356 359 361 361 360 360 360 360 358 359 360 360 360 360 360 361 361 361 362 361 360 360 359 359 359 359 358 356 354 353
360 360 359 359 359 358 358 357 356 354 353 353 354 356 360 361 360 359 359 361 360 359 359 359 360 361 361 361 361 361 361 361 361 360 360 359 358 359 359 357 355 354
361 361 360 359 359 358 357 357 356 355 354 353 354 355 357 359 361 360 359 360 361 361 360 359 360 361 361 361 361 361 361 361 360 360 360 360 359 357 358 358 356 354
361 361 360 360 359 358 357 357 356 356 355 354 354 355 356 357 360 361 359 358 360 361 361 360 359 360 361 362 362 361 362 361 360 360 359 360 359 358 358 358 357 356
362 361 360 359 359 358 357 356 356 355 355 355 355 355 357 358 359 360 360 358 358 359 361 362 361 361 361 362 362 361 361 361 360 360 360 359 359 359 358 358 358 357
362 361 360 359 359 358 356 356 355 354 354 355 356 356 357 358 359 359 360 359 358 358 359 361 362 363 362 362 362 362 361 361 361 360 360 359 359 358 358 358 358 357
361 360 360 359 359 358 357 356 355 355 354 354 356 357 356 357 358 359 359 360 360 359 358 360 362 364 363 363 362 362 361 361 361 361 360 359 359 358 358 358 358 358
361 360 360 359 359 358 357 356 355 356 355 355 356 357 356 356 356 357 359 359 360 360 360 360 362 363 364 363 363 362 361 361 361 361 361 360 359 359 359 359 358 358
361 360 359 359 360 359 358 357 356 356 356 356 356 357 357 357 357 357 358 359 360 360 361 361 362 362 363 364 364 363 361 361 361 361 361 360 360 359 359 359 359 359
362 360 360 359 359 360 360 358 357 357 356 356 357 358 359 359 358 358 358 359 360 360 361 362 362 362 362 363 363 364 362 361 361 361 361 360 360 359 359 358 358 359
364 362 361 360 359 358 359 359 358 357 357 357 357 358 360 361 361 360 359 359 360 361 361 362 362 362 362 362 363 363 363 362 361 361 361 361 360 359 359 359 358 358
365 364 362 361 360 359 359 359 359 358 357 357 357 357 359 362 362 362 361 361 361 361 362 362 362 362 362 362 363 363 363 363 362 361 361 360 360 360 360 359 358 358
366 365 363 363 362 361 360 359 359 359 358 357 358 358 358 360 362 362 362 362 361 361 361 362 362 362 362 363 363 363 363 363 362 361 361 360 360 360 360 360 359 358
367 366 365 364 364 362 361 360 360 360 359 358 358 358 358 358 360 362 362 362 362 361 360 361 361 363 363 364 364 364 364 364 363 362 361 360 360 360 359 359 359 359
368 367 366 365 365 364 363 362 361 361 361 360 359 358 359 359 359 360 361 361 362 362 361 361 361 362 364 365 366 366 365 365 364 362 362 361 360 359 359 359 359 359
368 368 367 366 366 366 365 364 363 363 362 362 360 360 359 359 359 359 360 361 362 362 362 362 361 362 363 364 367 367 368 367 365 363 362 362 361 361 360 359 359 359
369 369 368 368 368 367 367 367 365 364 364 363 363 362 360 360 360 360 360 361 361 362 362 363 363 362 362 363 365 367 368 368 367 364 363 362 362 362 361 361 360 360
369 370 370 369 369 369 368 369 367 366 366 365 365 364 363 362 362 361 362 362 362 362 363 363 364 364 363 364 364 365 367 367 367 365 364 363 363 363 362 362 361 361

ECMWFNIL_925_thetae_042.txt.gz
Theta_e
353 354 353 353 353 354 353 352 353 352 351 352 352 353 353 353 353 354 355 356 356 356 355 355 355 356 357 358 359 359 358 357 356 355 354 354 352 349 347 347 346 344
353 353 353 352 353 354 354 352 353 353 353 352 352 352 352 354 353 354 354 354 356 356 356 355 355 356 357 358 359 360 359 358 358 357 355 354 354 351 347 346 347 346
354 353 353 353 353 353 354 354 352 353 353 353 353 353 352 354 354 354 353 353 354 356 356 355 355 355 357 359 360 360 360 359 359 359 357 356 355 354 349 345 347 346
354 354 353 353 353 353 354 354 353 353 353 353 354 353 352 353 354 353 353 353 353 355 356 356 356 355 356 359 361 361 361 360 360 359 359 358 356 356 353 348 347 347
354 354 353 353 354 353 353 353 354 354 353 352 354 354 354 353 353 353 354 355 354 355 356 356 357 356 356 358 360 361 361 360 360 360 360 359 357 356 356 352 349 347
354 354 353 354 353 354 354 354 354 355 354 353 354 355 356 355 354 354 354 355 355 355 356 357 357 357 357 359 360 361 361 361 360 360 359 358 357 357 357 355 352 349
354 354 354 355 355 355 355 355 355 355 355 355 355 354 356 356 356 355 354 355 355 356 356 357 357 357 358 359 360 360 360 361 361 360 359 358 358 358 357 357 355 353
355 355 355 355 355 355 355 355 355 355 356 356 356 354 355 356 356 356 356 356 357 357 357 357 357 357 358 359 359 360 360 361 361 361 360 359 358 358 358 357 358 356
355 355 355 355 356 355 356 355 355 354 355 357 357 356 356 355 356 356 357 357 358 357 358 357 357 357 358 359 359 359 360 360 360 360 360 360 359 358 358 358 358 357
356 356 356 356 356 356 356 355 355 354 355 355 358 357 357 356 356 356 356 357 357 357 357 357 357 357 357 358 358 358 359 359 360 360 360 360 359 359 359 358 358 358
357 356 356 356 357 357 356 356 356 355 354 354 355 357 358 358 357 357 357 357 357 357 358 357 357 357 358 358 358 357 358 358 359 359 359 360 359 358 358 358 357 357
357 357 357 356 357 356 357 357 356 356 355 354 354 354 356 357 358 359 358 358 358 358 359 358 358 358 357 357 358 358 358 358 359 359 359 359 359 358 358 357 357 356
357 357 357 356 356 356 356 356 356 356 355 354 354 352 354 355 357 358 359 359 359 359 359 358 358 359 358 358 358 358 358 359 359 359 359 359 359 359 358 358 357 356
358 358 357 357 357 356 356 356 356 356 355 355 354 353 353 353 355 357 358 359 358 359 359 359 359 358 358 358 359 359 358 359 359 359 359 359 359 358 358 358 358 356
359 360 359 358 358 357 357 357 355 356 356 355 354 354 353 352 353 354 356 358 358 357 358 358 359 359 359 358 359 359 359 359 359 360 360 360 359 359 358 358 358 357
360 360 360 359 359 358 358 357 356 356 355 355 355 354 353 352 352 353 354 356 357 358 358 358 358 359 358 359 358 359 359 359 359 360 360 359 360 359 358 358 358 358
360 360 360 360 359 359 358 357 357 356 355 355 355 354 354 353 353 352 354 354 355 356 357 357 358 358 359 358 359 359 358 359 359 360 360 360 360 359 358 358 358 357
361 361 360 360 359 359 358 358 357 356 355 355 355 354 354 353 353 353 353 354 355 356 356 357 357 357 357 358 359 359 359 359 359 359 360 359 360 359 359 359 358 358
363 362 361 361 360 359 358 358 358 357 356 355 354 353 354 354 354 354 354 354 354 356 356 357 357 357 357 357 358 358 359 360 360 360 360 360 360 359 360 359 358 357
363 363 362 361 360 359 359 358 358 357 356 355 354 354 353 354 354 354 354 354 354 355 356 356 357 357 358 358 357 358 358 360 360 360 360 360 360 360 360 359 358 358
364 363 362 361 361 360 359 358 357 357 356 355 354 354 353 353 354 354 355 354 354 354 355 355 356 357 357 357 357 357 358 360 361 361 360 360 359 360 360 359 359 359
365 363 363 362 360 359 359 358 358 358 357 355 355 354 354 354 354 354 355 355 355 355 355 355 355 355 356 358 358 358 359 360 360 361 361 361 360 360 360 360 360 359
365 364 363 362 361 360 359 358 358 358 357 356 356 355 355 354 355 355 355 356 356 356 356 355 355 355 357 357 358 359 359 360 361 361 360 361 361 361 360 360 359 360
365 365 363 363 361 361 359 359 358 357 358 357 357 355 355 355 355 355 356 356 358 358 358 358 357 357 358 358 360 360 360 361 361 360 360 360 360 361 361 361 360 360
364 365 364 363 363 361 360 360 358 357 357 357 357 356 356 355 355 355 355 356 357 358 359 359 359 359 359 359 359 360 360 361 362 361 360 360 360 360 360 360 360 360
364 364 364 364 364 362 361 361 359 359 358 358 358 357 357 356 355 356 356 355 355 357 358 359 360 360 360 360 360 360 361 361 362 361 360 360 360 360 361 360 360 360

ECMWFNIL_925_thetae_045.txt.gz
Theta_e
354 353 353 353 353 353 352 352 352 351 351 352 352 352 353 352 351 352 351 352 352 352 352 349 349 351 353 355 357 357 358 357 355 354 354 354 353 353 353 351 347 345
353 353 353 352 353 353 352 352 351 351 351 350 351 352 352 353 352 352 351 352 352 352 353 351 349 350 352 354 356 357 357 357 357 356 355 355 354 354 353 352 349 347
353 353 353 353 353 353 352 352 352 351 351 350 351 351 352 353 352 352 352 352 352 352 353 352 351 351 352 353 354 356 357 357 357 358 357 356 355 354 353 353 352 349
353 353 353 353 353 352 352 352 352 352 352 350 350 350 351 352 353 352 352 352 352 352 352 353 353 352 352 353 354 355 356 356 357 358 358 358 357 356 354 353 353 352
353 354 353 353 352 352 352 352 352 352 352 352 350 350 349 351 352 352 352 352 352 352 353 353 353 353 354 354 354 354 354 356 357 358 359 358 358 358 357 355 354 353
353 353 353 353 353 353 352 352 352 352 352 352 352 351 350 350 351 351 351 351 351 352 353 353 353 353 354 354 355 354 354 354 356 358 360 359 359 358 358 357 356 355
353 353 353 353 352 352 352 351 352 352 352 352 352 352 351 351 350 351 351 350 351 352 352 353 353 353 353 354 356 355 355 355 356 358 359 360 360 359 359 358 358 357
353 353 353 353 353 352 352 352 352 352 352 352 352 352 352 352 351 351 351 352 351 352 352 353 353 352 353 354 356 357 356 356 356 357 359 360 360 360 359 359 358 357
353 353 353 353 352 352 352 352 352 352 352 353 353 353 352 352 351 351 351 353 353 353 353 352 353 353 353 354 356 356 357 356 357 357 358 360 360 359 359 359 359 358
352 353 353 352 352 352 352 352 352 352 352 353 353 353 353 352 352 352 352 353 353 353 353 353 353 353 353 354 355 355 356 356 357 358 358 359 359 359 359 359 358 358
352 353 353 352 353 352 353 352 353 353 352 352 353 353 353 353 353 353 353 354 354 354 354 354 353 354 354 355 355 355 356 356 357 357 358 358 358 358 359 359 358 358
353 353 353 353 353 353 353 353 353 353 353 353 353 353 353 354 354 354 354 354 354 354 354 354 354 355 354 354 355 356 356 356 356 357 358 357 358 358 358 358 358 358
354 354 353 354 353 353 353 353 353 353 353 353 353 353 354 354 354 355 355 354 355 354 355 354 354 355 355 355 356 356 356 356 357 357 357 357 357 357 357 358 358 358
354 354 354 354 354 353 354 353 353 354 353 353 353 352 353 354 354 354 355 355 355 355 355 355 355 355 355 355 356 356 357 356 356 357 357 358 357 358 357 358 358 358
355 355 355 354 354 354 354 354 354 354 354 354 353 353 352 352 353 354 355 356 356 356 355 355 355 355 354 355 355 356 356 356 356 357 357 357 357 358 358 358 357 357
355 355 355 355 355 354 355 354 354 354 354 354 354 353 353 352 352 353 353 355 356 356 356 356 356 355 354 354 355 355 355 356 357 356 356 357 357 357 357 358 357 357
356 356 356 356 355 355 355 354 355 354 354 354 354 354 354 353 352 352 352 352 354 355 355 356 356 355 355 355 355 355 356 356 357 357 357 357 357 357 357 357 357 357
357 356 356 356 355 356 355 355 355 354 354 355 355 354 354 354 353 352 352 351 352 352 353 355 355 355 355 355 356 356 356 357 357 357 357 357 357 358 358 357 357 357
358 358 357 357 356 356 356 355 355 355 355 354 354 355 354 354 353 353 352 351 351 351 352 353 353 354 354 355 356 356 357 357 357 357 357 357 357 357 358 358 357 357
359 359 358 358 358 357 357 356 356 356 355 355 355 354 354 354 353 353 353 353 352 351 351 352 352 353 354 354 355 355 355 357 357 357 356 357 357 357 357 357 357 357
360 359 359 359 359 358 358 357 357 357 356 356 355 355 354 354 354 353 353 353 352 352 352 352 351 352 352 353 354 354 355 356 357 357 357 356 357 357 358 358 358 357
361 361 360 360 359 359 359 358 357 357 357 356 356 355 355 354 353 354 353 352 353 352 352 352 352 351 352 352 353 353 354 355 356 356 357 357 356 357 357 357 358 358
362 362 361 361 360 359 359 359 358 358 358 357 357 356 355 355 354 354 353 353 352 352 352 353 352 352 352 352 353 353 354 355 355 356 356 356 356 357 357 357 357 358
363 362 362 361 361 360 360 359 359 359 358 358 357 356 356 355 354 354 354 353 353 352 352 353 352 352 352 352 352 353 354 355 356 355 356 356 356 356 357 357 357 358
364 363 363 362 362 361 361 360 359 359 359 358 357 356 356 355 355 354 354 353 352 353 352 352 353 352 352 352 353 353 353 354 355 355 356 355 356 356 356 357 357 358
364 364 364 363 363 362 362 361 360 359 359 358 358 357 356 356 355 354 354 353 353 353 352 352 353 353 353 353 353 353 353 353 355 355 355 355 356 356 356 357 357 358

ECMWFNIL_925_thetae_048.txt.gz
Theta_e
351 351 351 352 352 352 352 352 352 352 352 352 353 352 352 352 352 351 351 351 351 351 350 351 351 351 349 348 348 349 351 353 355 356 355 354 352 352 351 350 350 350
352 352 351 351 352 352 352 352 352 352 352 352 352 352 352 352 351 351 351 351 351 350 350 350 351 351 351 349 348 349 351 353 355 356 357 355 353 353 352 351 351 351
353 352 352 352 352 352 352 352 352 352 352 352 352 352 352 352 352 351 351 351 351 351 350 350 351 351 352 351 349 348 350 353 355 356 357 356 355 354 354 353 353 352
353 352 352 352 352 352 352 352 352 351 352 351 351 351 351 351 351 351 351 351 351 351 350 350 351 351 352 351 351 350 349 351 353 355 357 357 356 356 356 355 354 354
353 353 352 352 352 352 352 352 352 351 352 352 351 351 351 351 350 350 351 351 351 351 350 350 350 351 352 352 352 351 350 351 352 354 356 357 357 357 357 357 356 355
353 353 352 353 352 352 352 352 352 352 352 352 351 351 351 350 350 350 350 350 351 352 350 350 350 351 351 352 353 352 351 351 352 353 355 355 356 356 357 358 358 357
353 353 353 353 352 352 352 352 352 351 351 352 351 351 351 350 349 349 348 349 350 351 351 350 350 350 351 352 353 353 353 352 353 353 354 354 354 355 355 357 358 358
353 353 353 353 352 352 352 352 352 352 351 351 351 351 351 350 349 349 349 348 349 351 351 351 351 351 351 352 352 353 353 353 353 353 354 354 354 354 353 355 357 358
353 353 353 353 352 352 352 352 352 351 351 351 351 351 351 351 351 350 349 349 349 350 350 350 351 350 350 352 352 353 353 353 353 353 354 355 354 353 352 352 355 356
353 353 352 352 352 352 352 352 352 352 351 352 351 351 351 351 350 351 351 350 350 350 350 350 350 351 351 352 352 353 353 353 353 353 353 354 354 353 353 353 354 354
353 353 352 353 352 352 352 352 352 352 352 352 351 351 351 351 351 351 351 351 351 350 350 350 350 351 351 352 352 352 352 352 353 353 353 353 354 353 353 353 354 354
353 353 353 353 353 352 352 352 352 352 352 351 352 351 351 351 351 351 351 351 351 351 351 351 350 350 351 351 352 352 352 352 353 353 354 354 354 354 354 354 354 354
353 352 352 352 352 352 352 352 352 352 352 351 351 351 351 351 351 351 351 351 352 351 351 351 350 350 351 351 352 352 352 353 353 353 354 354 354 354 354 354 354 355
352 353 352 352 352 352 352 352 352 352 352 351 351 351 351 351 351 351 352 352 352 351 351 352 351 351 351 352 352 352 353 353 353 353 354 354 355 354 354 355 355 355
353 353 353 352 352 352 352 352 352 352 352 352 351 351 351 351 351 351 352 352 352 352 352 352 353 352 352 352 352 352 353 353 353 353 354 354 354 354 355 355 355 355
353 352 352 352 352 352 352 352 352 352 352 351 351 352 352 352 352 352 352 352 352 352 352 352 353 353 353 352 352 352 352 353 353 353 354 354 354 354 355 355 355 355
353 353 352 352 352 352 352 352 352 352 352 352 352 352 352 352 352 352 352 352 352 353 353 353 353 353 352 353 352 353 353 353 353 353 353 354 354 354 354 354 355 355
353 353 353 352 352 352 352 352 352 352 352 352 352 352 352 352 352 352 352 351 352 353 353 353 353 352 352 353 353 353 353 353 354 353 354 353 353 353 354 354 354 355
353 353 353 353 353 353 353 352 353 352 353 353 352 352 353 352 352 352 352 352 352 352 352 352 353 353 353 353 353 353 353 354 354 354 353 353 353 353 353 354 355 354
353 353 353 353 354 353 354 354 353 353 353 353 353 353 352 353 353 352 352 352 352 351 351 351 351 352 352 353 353 353 354 354 354 354 354 354 353 354 354 354 355 355
354 354 354 354 354 354 354 354 354 354 354 353 353 353 353 353 353 353 353 352 352 351 351 351 351 351 350 351 351 352 353 354 354 354 354 354 354 354 354 355 355 355
355 355 354 354 355 354 354 354 354 354 354 354 354 353 354 353 353 354 353 353 352 352 351 351 351 351 350 350 350 350 351 352 353 354 354 354 354 354 355 354 355 355
355 355 356 356 355 355 355 355 355 355 354 354 354 354 354 354 353 353 353 353 353 353 352 352 351 351 351 351 350 350 350 351 352 353 353 353 353 353 353 353 354 354
357 357 356 356 357 356 356 356 355 355 355 355 354 354 354 354 354 353 354 353 353 353 353 352 352 352 351 351 351 351 350 351 351 351 352 352 352 352 353 353 353 353
357 358 358 357 357 357 357 357 356 356 356 356 355 355 355 355 355 354 354 354 353 353 353 353 352 352 352 351 352 351 351 351 350 351 351 351 352 352 352 352 353 353
358 359 358 358 358 358 358 357 358 357 357 357 356 356 356 356 356 355 355 354 354 354 353 353 352 353 352 352 352 352 351 351 350 351 351 351 351 352 352 352 352 353

ECMWFNIL_925_thetae_051.txt.gz
Theta_e
352 352 352 353 352 352 351 349 349 350 351 351 353 352 351 350 349 350 350 350 351 350 351 350 351 351 350 350 351 352 352 349 351 353 354 356 356 355 356 354 354 352
352 352 352 353 353 351 350 349 348 349 349 349 351 351 350 350 349 349 350 350 351 351 350 350 350 350 350 350 351 354 355 354 354 354 355 356 356 356 356 355 354 352
353 353 353 353 353 351 352 351 349 349 349 349 349 350 350 350 350 350 350 351 351 351 351 349 350 350 350 350 350 354 357 356 356 356 356 357 357 357 356 356 355 354
353 353 353 353 353 353 353 353 351 350 350 350 350 350 350 350 351 350 350 351 351 352 350 350 351 350 350 350 350 354 358 358 357 357 357 357 357 358 358 357 357 356
354 353 353 353 354 354 353 353 353 351 351 351 350 351 350 350 351 351 351 351 351 351 351 350 350 350 351 350 350 355 358 358 357 357 357 357 358 358 358 358 358 357
355 354 353 354 354 354 354 353 353 352 352 352 351 351 351 351 351 351 351 351 351 352 352 351 351 350 351 351 350 355 358 357 357 357 356 357 358 358 358 359 358 357
355 355 354 355 354 354 354 353 354 352 352 353 352 351 351 351 351 351 351 351 351 352 352 352 351 350 351 351 351 355 357 357 357 357 356 357 357 358 358 359 358 355
356 356 355 355 355 355 354 354 354 353 352 352 352 352 351 351 352 351 351 351 351 351 352 351 350 350 351 352 351 353 356 358 357 357 357 357 358 358 358 358 357 355
356 356 356 355 355 355 355 355 354 354 353 352 353 352 352 351 351 351 351 351 351 351 350 351 350 350 351 352 352 352 354 356 357 357 357 357 358 358 357 357 357 355
356 356 356 356 355 355 355 355 355 355 354 353 353 354 353 352 351 351 351 351 351 351 350 349 350 350 350 351 351 351 352 354 355 356 355 355 355 356 357 357 355 355
357 356 356 356 356 355 355 355 355 355 354 354 353 354 354 353 352 351 351 351 351 350 350 349 349 350 350 350 351 351 351 352 354 354 353 353 354 354 354 354 354 356
356 356 356 356 356 356 356 355 355 355 355 354 354 354 354 353 353 352 351 351 351 351 350 350 349 350 350 350 351 352 352 352 353 353 353 352 353 354 354 354 353 354
357 357 356 356 356 355 355 355 355 355 354 354 354 354 354 354 354 353 352 352 351 351 351 351 350 351 350 350 351 352 353 352 352 353 353 353 353 354 355 356 355 355
357 357 356 356 356 356 356 356 355 355 355 354 354 354 354 354 355 354 353 352 352 351 351 351 351 352 351 351 351 351 352 352 352 353 354 355 354 354 355 356 357 357
357 357 357 356 356 356 355 355 356 355 355 355 354 354 354 354 354 355 354 353 354 353 353 353 354 353 353 352 351 351 352 353 354 354 354 356 356 356 355 355 355 356
357 356 356 357 356 355 355 355 355 355 355 354 354 354 354 354 354 355 355 354 354 354 355 355 355 355 353 352 351 352 352 354 355 354 353 355 356 357 357 356 356 355
356 356 356 356 355 355 355 354 355 356 355 355 354 354 354 354 354 355 355 355 355 355 356 356 356 354 352 351 350 351 351 354 355 355 354 355 356 356 357 358 357 357
356 356 356 356 355 355 355 354 355 355 355 355 355 355 355 355 355 355 355 355 355 355 355 355 355 354 351 351 350 350 350 352 354 356 357 356 357 357 357 358 358 358
357 357 357 356 356 356 355 354 355 355 355 355 355 355 355 355 355 355 355 355 355 355 356 355 356 355 352 350 350 350 350 351 353 355 357 357 357 358 358 358 358 358
357 357 357 357 356 355 355 355 355 355 355 355 355 355 356 355 355 355 356 355 355 356 356 356 355 354 353 352 351 350 351 351 352 354 356 357 358 358 358 358 358 358
357 357 357 357 356 355 356 356 356 356 356 355 355 356 356 356 355 356 356 356 355 356 356 356 356 354 353 352 351 351 351 351 352 353 355 356 357 358 358 358 357 358
357 357 358 358 357 356 356 356 356 356 356 356 356 356 356 356 356 355 356 356 356 355 355 355 355 354 353 352 351 351 351 352 352 353 353 356 357 358 358 358 358 358
357 357 357 358 357 358 357 357 357 357 356 356 357 356 356 357 357 356 356 356 356 356 356 355 355 354 353 352 352 351 351 351 352 352 353 355 356 357 357 358 357 357
357 357 358 357 358 358 357 357 358 357 358 357 357 357 356 357 357 357 357 357 357 357 356 356 356 355 354 352 352 352 351 351 351 351 352 354 354 355 356 356 355 354
358 358 358 358 359 358 358 358 358 357 358 357 357 357 357 357 357 357 358 358 357 357 357 356 356 356 355 353 353 352 351 351 350 351 353 354 355 355 355 355 355 353
358 358 358 358 359 358 358 358 358 358 358 358 358 357 358 358 358 357 358 358 357 357 357 355 356 356 356 354 353 353 352 352 351 351 353 354 354 355 355 356 356 355

ECMWFNIL_925_thetae_054.txt.gz
Theta_e
359 359 359 359 359 357 356 357 355 356 355 355 354 355 357 358 358 358 358 359 359 359 359 359 358 357 357 358 358 357 356 356 355 356 357 358 357 357 356 356 355 354
358 359 359 359 359 358 357 357 357 357 357 356 353 354 358 359 360 359 358 359 359 358 358 359 359 358 358 357 358 358 357 357 356 355 356 358 357 357 356 356 355 355
358 358 358 359 359 359 358 358 358 358 358 357 355 355 358 359 360 360 359 358 358 357 357 359 358 358 358 357 358 358 357 358 358 356 357 358 358 357 356 357 356 356
358 358 358 358 359 359 358 358 359 359 357 357 357 355 356 359 359 360 361 360 359 358 357 358 358 358 359 358 358 358 357 358 358 357 358 359 358 358 358 357 357 355
359 359 358 359 359 359 360 358 359 359 357 356 357 357 358 358 359 359 360 361 360 358 358 358 359 358 358 359 358 358 357 357 357 358 359 359 359 359 358 358 358 357
360 359 360 360 359 359 360 360 359 359 358 357 357 358 359 359 359 358 359 360 359 357 356 357 357 357 357 359 359 358 357 356 356 357 357 358 358 358 358 358 359 360
361 361 360 361 360 359 360 360 359 359 359 359 358 358 359 360 360 358 358 359 358 357 356 356 357 359 358 358 359 359 359 358 358 357 357 357 358 359 359 359 360 361
361 361 361 360 359 359 360 360 360 360 359 359 358 359 360 360 360 359 358 360 359 358 358 358 359 361 359 358 358 359 360 358 358 359 358 358 358 360 359 360 360 361
361 361 361 361 359 359 359 360 360 360 360 359 358 359 360 359 360 360 360 361 359 359 360 360 361 361 360 358 359 360 360 359 358 359 360 359 359 360 361 360 361 362
361 361 361 360 360 359 359 359 359 359 360 360 359 359 360 360 359 359 360 362 362 361 361 362 361 362 361 360 360 360 361 360 360 360 361 360 360 361 361 360 361 363
362 361 361 361 360 359 359 359 358 358 360 360 359 358 358 360 360 360 360 361 362 362 362 362 362 362 362 360 359 360 361 360 360 360 361 361 361 361 361 360 361 362
361 361 361 361 360 358 358 359 357 357 359 360 359 359 358 359 360 360 360 361 362 362 362 362 362 362 362 362 359 359 361 360 359 360 361 362 362 361 360 361 362 362
362 361 361 360 361 359 359 358 358 357 358 360 360 359 358 358 359 361 360 361 362 362 361 362 363 362 363 362 360 358 360 360 359 359 360 361 362 361 360 360 361 362
361 362 361 361 361 360 359 359 359 358 358 359 360 359 359 358 358 360 361 361 361 362 361 361 362 362 363 363 362 359 359 360 360 359 358 359 361 361 360 359 358 359
361 362 362 362 361 362 362 360 360 359 359 359 361 360 359 359 358 360 361 361 362 362 362 361 361 362 362 363 362 361 360 359 360 360 359 358 360 361 360 360 359 357
363 363 363 363 363 363 363 362 361 361 361 360 362 361 360 360 360 359 360 361 362 362 362 361 361 361 361 360 359 359 360 359 359 360 361 360 360 360 360 359 359 358
363 363 363 364 363 363 363 363 363 363 362 362 362 362 361 361 361 360 360 360 361 361 361 361 360 360 359 358 354 353 356 359 360 360 360 362 362 361 360 359 358 358
364 364 365 364 365 365 364 363 363 363 363 363 363 363 363 362 361 361 361 360 360 361 361 361 360 360 358 356 353 348 347 354 359 360 360 361 362 361 361 360 359 358
365 365 365 365 365 365 365 364 364 363 364 364 363 363 363 363 362 362 362 361 360 360 360 360 360 360 358 356 353 348 344 348 354 358 358 359 361 361 362 362 361 360
365 366 366 366 366 366 365 365 364 365 364 364 363 364 363 364 363 362 363 362 362 360 361 360 360 360 360 357 354 351 348 348 351 356 357 358 360 361 362 362 362 362
366 366 366 366 366 365 366 365 365 365 364 363 363 362 363 363 363 363 363 363 362 362 361 361 360 359 359 358 356 354 352 351 352 355 356 357 359 360 362 363 363 363
367 367 366 366 366 366 366 365 365 365 364 363 362 362 362 363 363 363 363 363 362 362 361 361 360 359 358 357 357 356 355 353 353 354 356 357 358 359 361 362 362 363
366 366 366 366 366 366 365 365 365 365 364 364 362 362 361 363 362 362 362 362 362 362 362 361 361 360 359 357 356 356 355 354 354 355 357 357 358 360 360 361 362 363
366 366 366 366 366 366 365 365 364 364 365 364 363 362 361 361 362 362 362 362 362 362 362 362 361 361 359 358 356 355 355 355 355 356 358 358 359 360 360 361 361 361
365 365 365 365 365 365 365 365 364 364 364 364 363 362 361 360 361 362 362 362 361 362 361 361 361 361 360 359 357 355 354 354 355 358 358 359 360 360 360 362 362 361
365 365 365 365 366 366 365 365 364 364 364 363 363 362 361 361 360 361 361 362 361 361 362 361 361 361 361 359 358 356 355 354 356 358 359 360 361 361 361 362 362 362

ECMWFNIL_925_thetae_057.txt.gz
Theta_e
361 362 360 358 356 354 355 358 357 355 353 351 353 353 353 354 354 354 353 356 359 360 359 360 361 361 359 359 359 359 357 356 356 356 358 360 360 358 358 356 354 352
361 361 361 360 359 357 356 357 357 357 354 352 351 352 353 354 356 355 354 356 359 359 360 360 360 361 359 358 359 360 359 359 357 356 357 359 359 359 358 357 356 355
362 362 362 361 360 360 358 357 358 357 356 354 352 352 352 354 356 357 356 358 359 359 358 359 360 360 360 358 359 360 359 359 359 356 356 358 359 358 358 357 356 356
363 362 363 361 360 360 358 357 358 358 357 356 354 352 352 353 355 358 358 358 359 357 357 358 359 359 359 359 359 359 359 359 360 357 356 358 359 358 359 358 357 356
363 362 363 361 359 361 360 359 359 359 357 356 357 355 352 354 356 358 359 359 359 358 357 358 359 358 359 359 359 359 358 358 359 359 359 359 359 359 358 358 358 357
362 362 363 361 361 361 362 361 359 359 358 356 358 356 353 355 356 357 358 359 359 357 355 357 359 358 358 359 360 359 358 356 356 359 361 361 360 359 357 357 358 359
362 363 362 361 361 362 362 362 360 359 358 357 357 357 355 356 358 358 358 358 358 355 354 355 357 358 357 358 359 360 360 358 356 358 360 361 360 359 358 357 357 359
362 363 363 361 361 362 363 363 361 360 359 359 357 357 357 357 359 357 357 358 357 355 354 354 356 357 357 357 359 360 360 358 357 358 360 361 360 360 360 360 358 360
362 363 362 361 361 361 361 361 361 360 360 360 357 356 357 358 359 359 357 358 357 356 356 355 356 358 358 357 358 360 360 359 356 358 360 361 360 360 361 361 360 360
363 363 362 361 360 360 360 359 359 359 361 361 358 356 356 358 359 359 358 359 359 358 358 357 357 360 360 358 357 359 360 360 358 357 359 361 361 359 360 361 361 360
363 362 361 361 360 359 360 358 357 357 358 361 359 355 355 358 360 360 360 362 361 359 360 361 360 361 362 360 357 358 359 361 359 358 359 360 361 361 359 360 360 361
362 362 362 362 360 358 358 358 357 355 357 359 359 357 354 355 359 360 360 363 363 362 362 362 362 362 363 360 357 357 359 360 359 360 359 360 361 361 359 359 360 360
362 362 361 361 361 358 357 357 356 354 355 358 359 358 355 354 357 361 361 363 365 365 363 364 363 364 364 362 359 357 359 359 359 359 359 360 361 361 359 358 359 360
362 361 361 360 361 359 356 357 357 355 354 356 358 359 357 354 355 360 362 363 365 366 364 364 365 364 364 364 363 359 358 359 360 358 358 359 359 360 358 355 354 356
362 361 361 360 361 361 358 357 357 356 354 354 357 359 358 355 354 357 362 363 364 366 365 364 365 364 364 365 365 362 358 358 360 360 358 357 357 358 357 355 355 353
363 362 362 362 362 362 360 359 357 357 355 355 357 360 359 357 355 355 359 362 363 365 365 363 364 363 362 362 364 363 360 357 357 359 359 357 357 357 356 356 355 353
365 364 365 363 363 364 362 360 359 358 358 357 358 361 361 359 357 356 357 360 362 363 363 363 362 360 361 362 361 361 361 360 357 357 360 359 357 357 357 356 355 354
366 366 366 366 365 366 364 363 361 360 360 360 359 362 363 362 360 359 358 358 359 360 362 362 360 359 360 361 359 357 356 358 358 356 358 360 359 358 358 358 356 353
367 367 369 368 368 367 367 365 364 363 363 362 362 363 364 364 363 361 360 360 359 360 361 361 360 359 358 359 359 354 350 351 355 356 355 356 358 359 358 359 357 355
369 369 370 370 369 369 369 367 366 366 365 364 364 365 366 366 365 363 363 362 360 360 362 361 359 358 359 359 357 355 350 347 352 355 355 354 356 358 358 359 359 358
370 370 371 371 371 370 370 369 368 368 367 366 365 365 366 367 365 364 364 363 361 360 361 362 359 357 359 360 358 356 352 351 352 355 356 355 355 358 359 360 360 361
370 371 372 372 371 371 371 371 369 369 368 367 365 365 365 368 366 365 365 365 364 362 361 362 359 358 359 360 359 358 355 355 356 357 358 358 358 359 360 361 362 362
370 371 372 372 372 372 372 371 371 370 369 368 367 364 363 366 367 366 365 366 366 365 363 362 361 360 359 360 360 360 358 357 357 358 359 360 359 359 361 361 363 363
370 371 372 372 372 372 372 371 371 371 370 369 367 364 361 363 365 365 364 365 365 366 365 363 360 360 360 360 360 359 359 358 358 359 360 361 361 361 362 362 363 363
370 371 372 373 373 372 371 372 371 371 370 369 367 365 362 361 361 363 364 363 364 365 366 364 361 359 360 360 360 359 358 359 359 360 361 361 362 362 362 363 363 362
371 371 372 373 373 372 371 371 370 369 370 369 367 365 363 361 360 360 362 363 362 363 364 364 362 360 360 360 360 359 358 358 360 362 361 362 363 362 363 364 364 364

ECMWFNIL_925_thetae_060.txt.gz
Theta_e
348 347 347 345 343 343 348 352 351 350 350 350 351 352 352 353 354 355 356 357 358 359 360 360 360 360 359 360 358 357 357 357 357 358 358 360 360 359 358 356 353 352
350 349 347 347 346 344 346 352 353 353 352 350 352 352 352 351 353 355 355 356 358 359 361 361 361 361 360 361 360 358 359 358 357 357 357 359 360 360 358 357 355 354
353 352 350 349 349 347 347 350 354 355 354 351 351 353 353 352 352 354 354 355 357 359 360 361 362 362 361 360 360 360 359 359 358 358 356 358 359 360 359 358 357 355
355 355 352 351 352 351 349 350 354 356 356 354 351 351 354 354 353 354 354 354 357 359 360 361 361 362 362 361 360 361 360 359 360 359 357 356 358 359 359 359 357 356
356 356 355 355 354 353 352 351 354 356 356 355 353 351 352 353 354 355 356 355 356 359 360 361 361 360 361 361 359 360 360 359 360 360 357 357 358 358 359 359 358 357
358 357 357 356 356 355 355 353 354 355 357 356 355 353 351 352 354 356 356 356 358 359 360 359 360 360 360 360 360 360 360 359 360 360 358 359 359 359 360 359 358 359
360 358 358 358 357 356 357 357 355 356 357 356 355 355 352 351 354 356 357 358 359 360 359 358 359 360 359 360 360 360 361 359 358 359 358 359 361 361 360 358 357 358
362 360 359 359 358 357 358 359 357 356 358 357 356 355 355 352 354 356 358 359 359 359 357 357 358 359 359 360 360 360 361 360 358 358 357 359 361 362 360 359 358 358
363 361 359 359 360 358 358 359 359 357 358 358 357 356 357 355 353 355 357 359 359 359 357 356 358 359 358 359 360 360 360 360 358 358 358 359 361 361 361 360 359 359
364 363 362 361 360 358 359 359 360 359 359 359 358 357 357 356 355 355 356 357 359 359 357 355 356 358 357 359 359 359 360 359 359 358 358 359 361 362 361 361 360 360
363 361 361 361 358 358 359 360 360 360 359 359 358 356 357 357 355 356 357 358 359 359 358 356 356 357 357 357 358 358 359 359 359 358 358 359 360 361 361 361 360 360
362 361 362 361 358 358 359 360 360 360 360 359 359 357 356 357 357 358 358 358 359 359 358 356 355 356 357 357 358 358 359 359 360 359 357 358 359 361 361 360 360 360
362 361 362 361 359 358 359 359 360 360 360 360 358 357 356 356 358 359 359 359 358 358 358 357 356 356 357 358 358 358 359 360 360 360 359 358 358 360 361 361 360 360
362 361 361 362 360 358 359 359 360 359 359 360 359 358 356 355 358 359 359 360 360 358 359 359 358 357 358 358 358 358 357 358 359 361 360 359 359 360 361 362 361 359
361 362 362 361 360 359 358 359 359 358 358 358 359 359 358 355 355 358 360 360 361 361 360 360 361 359 360 361 360 359 358 358 358 360 360 360 359 359 360 360 360 358
363 363 361 361 361 359 359 359 359 357 357 358 359 359 358 357 355 357 360 361 361 363 363 362 362 362 361 361 360 358 357 357 358 359 359 358 358 358 360 360 360 358
365 363 362 361 361 360 360 358 359 358 357 357 359 359 359 358 355 355 358 361 362 363 365 365 363 363 364 363 361 358 355 355 358 359 359 358 358 359 358 358 359 358
364 363 362 362 362 361 361 359 359 359 358 357 358 359 359 358 357 355 356 360 362 363 365 366 365 364 364 364 362 359 356 354 356 358 359 359 359 358 358 357 356 356
365 365 363 363 363 363 361 360 360 360 359 358 358 359 359 359 358 357 355 358 361 363 365 365 365 363 362 363 362 361 357 355 355 355 357 359 359 358 357 357 356 355
366 366 365 364 364 363 363 361 361 360 360 358 358 359 360 360 360 358 356 357 359 362 364 364 364 363 363 362 362 361 358 356 356 356 355 356 358 359 358 357 356 356
367 366 365 365 365 365 364 363 362 361 361 359 357 358 359 361 360 359 358 358 357 359 362 362 362 362 361 361 361 361 359 356 355 357 357 355 355 357 358 357 357 356
368 367 366 366 365 365 366 364 363 362 361 360 358 357 359 362 362 361 360 359 358 358 360 360 360 360 361 361 360 359 359 357 356 355 355 356 355 356 356 357 358 357
369 368 368 368 367 367 367 366 364 364 362 361 359 359 359 362 363 363 362 361 360 359 359 360 360 360 359 360 359 358 359 358 357 356 355 354 355 356 356 356 357 358
370 368 370 369 368 368 368 367 365 364 364 363 361 360 361 363 364 365 363 362 362 361 360 360 359 360 359 359 358 358 358 358 357 358 357 356 355 355 357 358 358 357
370 370 370 371 370 369 369 368 366 365 364 363 362 363 362 364 366 366 364 364 362 362 362 361 359 359 360 360 359 358 358 358 358 359 359 358 358 357 356 357 358 358
372 372 371 372 372 371 371 370 368 367 366 365 364 363 362 363 365 365 365 364 363 362 363 362 361 359 359 360 359 358 358 358 358 359 359 359 360 359 358 357 357 357

ECMWFNIL_925_thetae_063.txt.gz
Theta_e
346 345 343 345 347 345 341 341 341 343 344 347 350 351 351 353 355 356 357 358 356 358 359 356 358 357 355 357 355 355 357 355 357 358 358 360 358 356 355 353 353 351
346 346 344 343 345 346 344 341 340 341 343 345 346 348 351 352 354 355 356 358 355 355 358 358 358 357 357 357 355 355 357 356 357 358 358 359 359 358 358 356 354 353
347 346 346 344 344 344 345 343 340 340 341 343 344 345 348 351 354 355 355 356 355 354 356 358 359 358 357 358 357 355 356 356 357 357 357 358 358 359 359 358 357 355
349 348 346 344 343 342 344 345 344 341 340 343 345 344 344 348 353 355 354 356 355 354 354 356 359 359 358 358 358 357 355 355 356 356 357 357 357 358 358 359 359 356
350 348 346 344 343 342 343 345 347 346 344 343 345 347 345 346 350 353 354 355 356 355 354 356 359 359 358 358 359 358 355 355 355 355 356 357 357 357 357 359 358 357
351 349 347 346 345 343 342 345 347 348 347 346 346 349 349 349 348 350 354 354 355 355 355 356 359 360 359 358 358 359 356 355 356 355 356 357 357 356 357 357 358 358
351 350 348 347 345 344 343 343 345 348 349 349 349 350 351 352 351 350 351 354 355 355 355 355 358 360 359 358 358 359 357 357 358 357 357 356 356 357 357 357 357 358
352 351 350 349 346 345 345 343 343 346 349 352 352 352 351 352 353 352 351 352 354 355 355 356 358 359 360 359 359 359 358 357 358 359 357 356 355 356 358 358 359 358
353 352 351 351 348 348 347 345 344 345 348 352 353 354 352 352 353 353 353 353 354 354 355 357 359 359 359 360 359 358 357 357 358 359 358 358 356 355 356 358 359 358
354 353 352 352 351 349 349 349 347 347 349 351 352 354 354 352 352 354 354 354 354 354 355 356 358 359 358 359 359 358 356 355 355 357 358 358 357 355 355 357 358 357
356 355 354 354 353 352 351 351 351 350 350 351 353 354 355 354 352 353 355 355 355 355 355 356 358 358 357 358 358 357 356 355 354 354 356 357 357 356 356 357 358 357
358 357 355 355 355 354 353 353 354 353 352 353 354 354 355 355 353 353 355 355 356 356 356 356 358 358 357 356 356 357 357 357 356 354 355 356 357 357 356 356 357 358
359 358 357 356 355 354 354 354 355 355 354 354 355 355 356 356 355 353 354 355 356 356 357 357 357 358 357 356 356 357 357 358 358 357 357 358 358 357 357 356 356 357
360 360 358 357 356 355 353 354 354 355 355 355 356 356 356 357 356 355 354 355 356 356 357 357 357 357 357 357 356 356 357 359 358 358 357 359 359 357 357 356 356 357
361 361 360 358 356 355 355 354 354 355 356 356 356 356 356 356 356 356 355 355 356 357 357 358 358 357 357 357 356 355 356 358 358 357 357 358 359 359 357 357 357 356
362 361 360 359 358 356 355 355 355 356 357 357 357 357 356 357 357 356 355 356 356 357 357 358 358 358 357 356 356 356 356 356 357 357 358 357 357 358 358 358 357 357
363 361 361 360 359 357 355 355 355 355 357 358 358 357 357 356 356 357 357 356 357 357 358 358 359 358 357 356 355 355 355 356 357 358 358 358 358 358 358 358 358 358
363 363 361 360 359 358 356 355 356 356 357 359 359 359 358 357 356 356 356 357 357 358 359 359 359 359 358 356 355 355 355 355 357 358 358 358 359 359 359 358 358 358
364 362 361 360 359 359 358 356 356 357 358 359 359 359 359 357 356 356 357 358 358 358 359 359 358 359 359 357 356 355 355 355 356 358 358 358 358 358 359 358 358 358
364 362 362 361 360 359 358 357 358 358 358 358 359 359 359 358 357 357 357 358 358 358 360 359 359 359 358 358 358 357 356 356 356 357 357 358 358 357 357 357 358 357
364 363 363 362 361 360 360 358 358 359 359 358 358 359 359 359 358 357 357 358 358 359 359 360 361 360 359 359 359 358 358 357 357 357 357 356 357 357 357 357 357 357
364 364 363 362 361 361 361 359 359 358 359 359 358 359 359 359 358 358 357 357 359 359 359 360 361 361 361 361 361 360 360 359 359 359 357 356 356 357 358 358 357 357
365 364 364 363 363 362 362 361 360 359 359 359 359 359 359 360 359 358 358 357 358 360 360 360 361 362 363 362 362 362 362 362 361 360 358 356 355 355 356 357 357 357
365 364 365 363 363 363 362 362 361 360 360 360 359 359 359 359 359 359 358 357 357 358 360 361 362 361 362 363 363 363 363 363 362 361 360 358 356 356 355 356 356 356
365 365 365 363 364 363 363 363 362 360 360 360 359 359 358 358 360 359 359 358 357 357 358 359 362 362 362 363 363 362 362 362 362 361 360 359 358 356 356 357 356 357
366 366 365 364 364 364 363 363 363 361 361 359 360 360 357 358 359 359 359 358 358 358 357 357 359 360 361 361 361 361 362 362 361 361 360 360 358 357 356 355 355 355

ECMWFNIL_925_thetae_069.txt.gz
Theta_e
347 346 345 344 345 344 345 345 345 346 346 347 347 346 346 346 351 356 357 355 356 356 356 355 355 355 356 355 355 355 354 354 355 356 354 353 351 349 346 345 345 346
347 347 345 344 344 344 345 344 343 344 343 343 344 345 345 345 347 353 356 357 356 357 357 356 354 354 354 355 356 356 355 355 355 355 356 355 353 352 349 346 345 346
347 347 345 344 343 343 343 343 342 342 341 341 342 343 345 346 346 349 354 357 356 356 357 357 356 354 353 355 355 356 355 355 355 354 355 354 353 353 351 349 346 346
347 346 346 345 344 343 343 342 342 342 342 341 341 340 341 344 346 347 351 355 355 356 356 357 357 355 353 354 355 356 355 355 355 355 355 354 353 353 353 352 350 348
346 346 346 346 345 345 345 344 342 341 342 342 340 340 339 341 345 346 348 352 353 355 356 356 357 355 354 355 355 356 355 355 355 355 355 355 354 355 354 354 354 351
346 345 345 346 346 346 346 345 343 342 342 341 340 340 339 339 342 345 347 348 350 353 354 354 355 354 354 355 356 356 355 355 355 355 355 355 355 356 355 355 355 353
347 346 344 345 345 345 345 345 344 342 342 341 341 341 341 340 341 343 345 346 348 350 351 351 352 353 353 354 356 356 356 356 355 355 355 355 355 356 355 355 355 354
347 347 345 345 344 344 345 345 344 343 342 342 342 342 342 342 341 342 344 345 346 347 348 349 350 351 352 354 355 356 356 356 356 355 356 355 355 356 355 355 355 355
347 347 347 346 345 343 344 344 345 344 342 342 342 343 343 343 342 342 342 344 345 346 347 348 348 349 351 353 354 355 356 356 356 356 356 356 355 355 355 355 356 355
348 347 347 347 346 344 344 343 344 344 344 343 342 342 342 342 342 342 342 344 345 346 347 348 348 348 350 352 353 354 354 354 355 356 356 356 355 355 355 355 355 355
348 348 347 347 346 346 344 343 343 343 344 344 344 343 342 341 341 341 341 343 344 345 346 347 348 348 349 351 352 353 354 353 354 355 355 356 355 355 354 354 354 353
350 349 348 348 347 346 345 344 343 342 342 343 344 344 343 342 341 340 340 341 341 343 344 344 345 346 348 349 351 353 354 353 353 354 354 355 355 355 354 353 353 351
351 350 349 349 347 347 346 345 344 343 342 342 342 343 344 343 343 341 340 340 340 340 341 341 342 344 346 349 350 352 354 354 354 354 354 355 355 354 355 355 354 352
352 352 351 350 349 349 348 347 346 344 343 343 342 342 343 343 344 343 342 342 341 341 341 340 341 343 345 348 350 352 354 354 354 354 354 354 354 354 354 354 355 354
352 352 352 351 350 350 349 348 348 346 345 344 343 343 342 342 343 344 344 344 343 343 343 343 344 344 345 348 349 351 353 354 354 354 354 354 354 354 354 354 354 354
353 353 352 352 352 351 351 350 349 348 347 346 344 343 343 342 342 343 344 345 345 345 345 345 346 346 346 347 349 350 352 353 353 354 354 354 354 354 354 354 353 352
354 353 353 353 352 351 351 350 350 349 348 347 346 345 344 343 343 343 344 345 346 346 346 347 347 347 347 348 349 350 351 352 353 353 354 354 354 354 355 354 353 352
354 354 354 354 353 352 352 351 351 350 349 348 347 346 345 344 343 343 343 344 346 347 347 347 347 347 348 349 350 351 352 352 353 353 354 354 354 354 355 354 354 353
355 354 354 354 354 353 352 352 351 350 350 349 348 348 347 346 345 344 344 344 345 346 347 347 347 347 348 349 350 351 352 352 353 354 353 354 354 354 354 354 354 354
356 355 354 354 355 355 354 353 352 351 351 350 349 349 348 347 347 346 345 345 345 346 347 347 347 348 348 349 350 350 352 352 353 354 354 354 354 353 353 353 353 354
356 356 355 355 356 356 356 355 354 353 352 351 351 350 349 349 349 348 348 347 347 347 347 347 348 348 348 349 350 351 352 352 353 354 354 354 354 354 354 353 353 354
356 356 356 356 356 356 356 356 356 355 354 353 352 352 351 351 350 350 349 349 349 349 349 349 349 349 350 350 350 351 352 353 353 354 354 354 354 354 354 354 353 354
355 355 356 357 356 356 356 357 357 357 356 355 354 353 352 352 352 351 351 351 350 351 351 351 351 350 351 351 351 351 352 353 354 354 354 354 354 354 355 354 354 354
354 354 356 357 357 356 356 357 357 358 357 356 356 355 354 353 353 352 352 352 352 352 351 352 351 351 352 352 352 352 353 353 354 354 354 354 354 354 355 354 354 354
353 354 355 356 356 357 357 357 358 358 358 358 357 356 355 354 354 353 353 353 352 352 352 352 352 352 352 352 352 353 353 353 354 354 354 354 354 354 354 354 354 354
354 354 355 355 355 356 356 357 358 359 359 358 358 357 356 356 355 354 354 353 353 353 353 353 353 352 353 353 353 353 353 354 354 353 353 354 354 354 354 354 354 354

ECMWFNIL_925_thetae_072.txt.gz
Theta_e
348 347 346 346 347 346 345 346 346 346 346 347 347 346 347 347 347 348 349 350 353 354 355 355 355 356 355 356 356 355 355 354 353 354 354 355 353 350 348 346 345 345
348 347 346 346 347 346 345 345 346 346 346 346 346 346 346 347 346 346 347 349 352 354 355 355 356 356 355 355 355 355 355 355 355 354 355 355 355 353 350 349 347 346
348 347 347 347 348 347 345 345 345 345 345 345 345 345 345 345 345 345 344 346 349 352 354 355 355 356 356 355 354 355 355 355 355 355 355 355 355 355 354 353 352 350
347 347 347 347 347 347 345 345 345 345 345 344 345 344 343 342 343 344 344 344 346 349 353 355 356 356 356 356 354 354 354 355 355 355 355 355 355 355 356 356 355 354
347 347 347 347 347 346 345 344 344 344 344 344 344 344 343 342 341 343 344 344 344 346 349 353 355 355 356 356 355 353 353 354 354 355 355 354 355 355 355 355 355 355
347 347 347 347 346 346 345 344 344 344 344 344 344 344 343 342 341 341 341 341 342 344 345 348 352 354 355 356 356 354 352 353 354 354 354 354 354 354 354 355 355 355
347 347 346 346 346 346 346 344 344 343 343 344 343 342 341 341 341 341 340 339 340 342 343 344 346 349 352 354 356 355 352 352 354 354 354 354 354 354 354 354 355 355
347 347 346 346 346 346 346 344 344 343 343 343 342 342 342 341 341 341 340 339 338 340 342 343 344 345 347 351 354 355 354 353 353 354 355 354 354 354 354 354 354 355
347 347 346 346 346 345 345 344 343 342 343 343 343 343 343 342 342 341 341 340 339 339 341 343 344 344 345 347 350 352 353 353 353 354 355 355 355 355 354 354 354 354
347 347 347 346 346 345 345 344 343 342 342 343 343 344 344 343 342 341 341 341 340 340 341 342 343 343 344 345 346 348 350 352 353 353 354 354 354 355 354 354 354 354
347 347 347 347 345 345 344 344 344 342 342 343 343 344 344 343 342 342 342 342 342 342 342 342 342 342 343 344 344 345 346 348 351 352 353 354 354 354 354 354 354 354
347 347 347 347 346 346 344 344 343 343 343 343 343 344 344 343 343 342 342 343 343 343 343 342 342 342 343 343 343 343 344 345 347 350 352 353 353 353 353 352 352 352
348 347 347 347 346 346 346 344 343 343 342 342 342 343 343 343 343 342 342 342 342 342 343 343 343 344 343 343 343 343 343 344 344 346 349 351 352 353 353 352 351 350
348 347 347 347 347 346 346 346 345 344 343 342 342 342 342 342 343 342 342 342 342 342 342 342 343 343 343 343 344 344 344 343 342 343 346 348 350 352 352 353 352 351
347 348 347 347 347 346 346 346 346 345 345 344 342 342 341 341 342 342 343 343 343 343 342 342 342 342 341 341 342 343 343 342 342 342 344 347 349 350 352 352 352 351
348 348 348 348 348 347 347 347 346 346 346 345 344 343 342 342 341 341 342 342 342 342 342 342 342 341 340 340 340 341 341 341 342 342 343 346 348 350 351 351 351 351
349 349 349 349 349 349 348 348 348 347 347 346 345 344 344 343 342 342 341 342 342 342 342 342 342 342 341 341 340 341 341 342 342 342 343 345 348 350 350 350 350 351
349 350 350 350 350 350 350 349 349 348 348 347 347 346 345 344 343 343 342 342 342 342 342 343 342 342 342 342 341 342 342 343 343 343 344 345 347 348 349 349 350 351
350 350 350 351 351 351 350 351 350 350 349 349 348 348 347 346 345 344 344 343 342 342 343 343 343 342 343 343 343 342 343 344 344 345 346 347 347 348 349 349 350 351
350 351 351 351 351 352 351 351 351 351 351 350 350 349 348 347 347 346 345 344 344 343 343 343 343 343 343 343 343 343 344 344 345 346 347 348 348 349 349 350 350 351
352 351 352 352 352 352 352 352 351 351 351 351 350 350 349 349 348 347 346 346 345 345 344 344 343 343 343 343 343 344 344 345 346 347 348 349 349 349 350 350 350 351
352 352 353 353 353 353 352 352 352 351 351 351 350 350 350 349 349 348 347 347 346 345 344 344 344 344 344 344 343 343 344 346 347 348 349 349 350 350 350 351 351 352
352 353 353 354 353 353 353 353 353 352 352 351 351 350 350 350 350 349 349 348 347 347 346 346 346 345 345 344 344 344 345 346 348 348 349 350 350 351 351 351 352 352
352 353 353 354 354 354 353 353 353 354 353 353 352 351 351 351 351 350 350 350 349 348 348 347 347 347 346 346 345 345 345 346 347 348 349 350 350 351 351 351 352 352
349 352 353 354 354 355 354 354 354 354 354 355 354 353 353 352 352 351 351 351 350 350 350 349 349 349 348 348 347 347 346 347 348 348 349 350 350 351 351 352 352 352
344 348 352 353 353 354 355 355 355 355 355 355 355 355 355 354 354 353 353 352 351 351 351 350 350 350 350 350 349 348 348 348 348 349 349 350 350 351 351 352 352 352

ECMWFNIL_925_thetae_075.txt.gz
Theta_e
348 348 347 347 347 347 347 347 347 347 346 348 349 349 348 347 347 347 348 348 348 348 351 353 354 355 355 355 355 355 356 356 356 355 353 353 354 356 355 353 351 350
348 348 347 347 347 347 346 346 346 346 345 346 348 347 346 346 347 347 347 347 347 348 349 352 354 354 354 355 355 356 356 355 356 356 354 354 355 356 355 355 354 352
349 348 348 348 347 347 346 346 346 346 345 345 346 346 346 346 346 346 347 346 347 347 348 351 353 353 354 355 354 355 356 355 356 357 355 354 356 356 357 356 356 355
349 349 348 348 348 347 347 346 346 346 346 346 345 345 346 345 345 346 346 346 346 346 347 349 352 353 353 354 354 355 356 355 355 356 355 355 354 355 357 357 357 357
348 348 348 348 348 348 347 346 346 346 346 346 345 345 346 345 345 344 345 345 345 345 345 346 350 353 354 354 354 355 355 355 355 354 354 356 355 355 356 357 357 357
349 348 348 348 348 348 348 347 346 346 346 346 345 345 345 345 344 344 344 343 343 345 346 346 347 351 354 354 355 355 356 356 357 354 353 355 356 356 357 356 356 357
349 348 348 348 348 348 348 347 346 346 346 346 345 344 345 345 344 344 344 343 342 342 345 345 345 347 349 352 354 355 355 356 356 353 352 355 356 355 356 355 355 356
349 349 348 348 348 348 348 347 346 346 346 346 345 344 344 344 344 344 344 344 342 341 341 342 342 343 345 347 349 351 354 356 356 354 352 354 355 354 355 355 354 354
350 350 349 348 349 348 348 347 346 346 345 345 345 344 344 343 344 344 343 342 341 340 340 341 341 341 342 344 345 346 349 352 355 354 354 355 356 355 356 356 356 356
350 350 349 349 349 349 348 348 347 347 345 345 345 345 344 343 342 343 342 341 341 341 341 341 340 340 340 342 343 344 345 346 348 350 352 354 356 356 357 358 358 357
351 350 350 349 349 348 348 348 348 348 346 345 345 345 344 343 342 342 341 340 341 342 342 341 340 340 340 340 341 343 344 344 345 345 347 349 352 353 354 355 356 357
350 351 350 350 349 349 348 348 348 348 347 345 344 345 344 344 343 342 341 340 340 341 342 342 341 341 340 340 341 342 343 344 345 345 344 346 349 351 352 353 354 355
350 350 350 350 349 348 348 348 348 347 347 346 345 344 344 343 343 342 340 341 341 340 341 341 341 341 341 341 341 343 343 343 345 346 347 347 347 349 352 353 354 354
350 350 351 350 349 349 348 348 348 347 347 346 346 345 344 344 343 342 341 341 341 341 341 341 342 341 341 341 341 342 342 342 343 345 348 349 348 347 350 352 353 354
350 350 351 350 349 349 348 348 348 347 347 346 346 345 345 344 343 343 343 342 342 342 342 342 342 342 341 341 341 341 342 342 343 344 346 349 349 348 349 349 349 351
349 348 349 350 349 348 348 348 348 348 347 346 345 345 345 344 344 344 344 343 343 342 342 343 343 342 341 340 340 340 341 342 343 343 343 346 347 348 349 349 348 348
349 347 348 349 348 348 348 347 348 349 348 347 346 345 344 344 344 344 344 344 344 344 343 343 343 342 340 339 339 341 341 342 343 343 342 343 345 347 348 349 350 349
348 348 348 348 348 348 348 347 348 348 348 348 347 347 346 345 344 344 344 345 345 345 345 345 343 341 339 338 338 339 340 341 344 345 346 346 347 347 347 348 351 351
349 349 350 349 349 349 348 349 349 349 349 349 349 349 348 347 346 345 345 344 345 346 346 345 345 343 341 340 339 338 339 340 342 347 349 349 348 347 347 348 350 352
353 353 353 352 351 350 350 351 351 350 351 350 350 350 350 348 348 347 347 346 345 346 346 346 346 345 343 343 342 340 340 340 341 345 349 351 350 347 346 347 347 349
354 354 354 354 353 353 353 353 353 352 352 352 352 351 351 350 349 348 348 347 346 347 347 347 346 346 345 345 344 343 342 341 341 343 347 351 351 348 346 345 345 346
353 354 355 355 355 355 355 355 355 355 354 353 353 353 352 352 351 350 350 349 348 348 347 347 347 346 346 346 346 345 344 343 342 343 346 350 352 351 348 344 344 345
348 351 353 354 355 355 355 355 356 355 355 355 354 353 353 353 353 352 351 351 350 349 349 348 348 348 347 347 347 346 344 344 344 344 345 348 351 352 351 348 345 345
344 346 349 351 353 355 355 355 355 355 355 355 355 354 354 354 354 353 353 352 352 351 350 350 349 349 349 348 347 347 345 344 344 344 345 348 350 351 352 351 348 345
342 344 346 347 349 352 354 354 354 355 355 355 355 355 355 354 354 354 354 354 353 352 351 351 350 351 350 349 349 347 346 345 344 345 347 349 350 351 352 353 350 347
341 343 345 346 347 349 352 354 354 354 355 356 356 356 355 355 355 355 355 355 354 354 353 352 352 352 351 351 350 349 348 346 344 345 348 349 350 351 353 354 353 351

ECMWFNIL_925_thetae_078.txt.gz
Theta_e
357 357 357 356 354 353 353 354 354 354 355 356 356 356 357 358 358 358 358 359 358 358 359 360 360 361 362 362 360 361 362 361 360 360 359 358 355 352 351 350 349 348
357 357 356 355 355 354 354 353 354 354 355 355 356 356 358 359 359 359 358 359 359 357 358 360 360 361 361 362 362 362 362 363 361 360 360 359 358 355 353 351 350 350
357 356 356 354 353 354 353 352 353 353 353 354 354 355 357 357 359 359 358 358 358 357 358 358 359 360 360 362 363 362 363 364 362 360 361 361 359 357 355 353 351 351
357 356 355 353 352 352 353 352 352 353 352 353 353 353 354 354 355 358 359 358 357 357 358 358 358 359 360 361 362 360 362 363 362 363 363 362 361 359 358 356 353 352
357 355 355 354 352 352 353 352 352 352 351 351 352 353 354 355 355 355 357 358 356 357 357 358 358 358 360 361 361 360 361 361 361 364 364 362 362 360 359 358 357 356
358 357 355 355 353 353 353 353 352 352 351 350 351 351 353 355 355 353 354 356 355 353 354 356 357 357 358 360 361 360 360 358 359 363 363 361 361 360 358 359 360 359
358 358 357 355 354 353 354 354 353 352 351 350 350 351 352 354 355 354 354 354 352 352 352 353 355 356 356 359 360 361 360 360 360 361 361 360 360 360 360 360 362 362
358 357 357 355 353 354 354 354 353 353 352 351 350 351 352 352 352 352 354 354 352 352 352 352 355 356 355 355 357 359 360 358 358 360 361 360 359 360 361 361 362 363
357 357 358 357 354 353 353 352 352 353 353 352 350 349 350 351 350 351 352 355 354 354 355 354 355 356 353 352 355 357 357 356 354 357 359 359 358 358 359 360 361 361
358 357 356 356 354 353 352 350 350 351 353 353 350 348 348 349 351 350 351 355 356 355 357 357 356 357 356 354 355 356 356 355 354 354 356 357 356 357 357 358 358 359
356 356 355 356 354 352 351 350 349 349 350 352 351 348 347 348 350 351 351 355 357 355 356 357 357 357 356 355 353 354 354 354 354 355 356 356 355 355 356 357 357 358
355 356 354 355 354 353 351 350 350 348 349 351 351 349 347 347 349 351 351 353 355 353 354 356 356 356 356 355 352 351 352 353 352 353 355 355 355 354 354 355 356 356
354 355 355 355 354 354 352 350 350 349 349 350 351 350 349 347 348 351 352 352 351 351 351 354 356 356 357 356 353 350 352 353 352 352 352 353 354 353 352 352 354 355
353 353 355 355 355 354 354 352 351 351 350 351 352 351 350 348 348 349 352 351 349 349 349 351 354 357 357 357 356 353 351 353 353 352 351 351 353 352 350 350 350 351
352 352 354 354 355 355 356 354 353 353 352 352 353 353 351 351 350 349 351 351 350 349 349 349 350 353 354 355 355 355 352 351 353 354 352 350 351 351 351 350 350 348
353 353 354 354 356 356 357 356 355 354 354 353 354 354 353 352 351 350 350 351 352 352 350 349 348 348 350 350 350 352 352 351 350 353 354 353 352 352 352 350 349 349
354 355 355 354 356 358 358 358 356 355 355 355 355 354 354 354 353 352 351 350 350 352 351 350 349 347 348 347 344 343 346 350 352 353 354 355 354 353 353 351 349 348
353 357 357 356 356 357 358 359 358 357 356 356 355 354 355 355 354 354 353 351 350 350 351 351 351 350 349 348 346 342 340 345 348 351 353 354 354 354 353 353 352 350
353 355 356 356 357 357 358 358 359 358 357 356 356 356 355 356 354 354 354 353 352 351 350 351 350 351 350 348 348 346 343 343 346 348 349 350 353 354 354 355 354 353
354 354 355 355 356 357 357 358 358 358 358 355 356 355 356 356 355 355 354 354 353 352 352 351 351 351 350 349 348 347 346 344 345 346 347 348 350 353 354 355 355 356
355 355 354 355 356 356 357 357 356 357 357 356 355 354 355 357 356 355 355 355 354 353 353 352 352 351 351 349 349 348 347 346 345 347 348 347 348 351 352 355 356 357
352 354 354 355 356 355 356 356 356 357 357 357 357 355 354 355 355 356 356 355 355 354 354 353 353 352 351 350 350 349 348 347 346 346 348 348 348 349 351 354 356 357
348 351 353 354 355 355 356 356 356 356 357 358 358 356 355 355 355 356 356 356 356 356 355 355 354 353 352 351 350 349 348 347 346 347 349 349 350 350 351 353 356 357
344 348 350 352 354 354 355 355 355 353 353 355 357 357 358 356 356 356 356 357 357 356 356 355 356 355 354 352 351 350 349 348 347 348 350 350 351 352 352 352 354 356
342 345 348 350 353 353 353 355 356 354 353 353 355 357 358 357 356 356 356 357 357 357 356 356 356 357 355 353 352 351 350 349 348 350 351 352 352 353 353 354 354 355
340 343 346 348 350 352 352 353 354 354 353 354 356 356 356 356 358 357 356 357 357 357 357 356 356 357 357 355 354 353 352 350 349 351 352 353 354 354 355 355 356 356

ECMWFNIL_925_thetae_081.txt.gz
Theta_e
358 357 357 356 354 352 351 352 353 353 355 357 357 356 357 358 358 359 360 360 359 359 362 364 364 364 364 365 363 363 365 364 362 360 359 356 354 352 350 350 349 349
358 357 357 355 354 353 351 351 352 352 354 357 357 357 358 358 357 359 360 361 359 358 359 362 363 363 363 365 363 363 366 366 363 360 360 358 356 353 351 350 350 350
358 357 357 355 353 353 352 351 352 352 353 355 357 358 359 358 358 358 358 359 358 357 358 359 361 362 362 365 366 363 364 366 363 360 361 361 359 356 353 351 349 350
359 357 357 354 350 351 351 349 351 353 351 352 355 356 357 357 358 358 358 358 358 358 359 358 359 361 361 364 367 363 363 365 363 362 365 364 361 359 357 354 351 350
360 358 356 354 350 350 351 349 349 350 349 350 352 352 354 355 356 358 357 358 357 357 358 358 359 360 359 362 364 362 362 363 361 363 365 364 362 360 358 358 356 353
361 359 356 355 352 350 351 350 349 349 348 349 349 350 352 354 355 356 355 357 356 354 355 357 357 357 357 360 361 360 361 360 360 363 363 361 362 360 358 358 360 359
361 360 357 355 353 352 352 351 350 350 348 348 349 349 350 353 355 355 354 355 354 352 352 353 355 356 356 358 360 361 361 359 360 364 364 362 361 360 359 359 361 362
359 360 359 355 353 352 352 351 351 351 349 348 348 349 350 350 353 354 353 354 353 352 352 352 354 356 355 356 359 360 361 359 359 362 363 362 360 360 360 360 362 363
358 358 357 356 352 351 350 350 350 351 351 350 348 347 349 350 351 351 352 353 353 352 352 353 354 356 355 355 356 358 360 358 356 357 359 360 360 359 359 359 360 362
358 357 356 355 352 349 348 347 347 348 350 351 348 345 346 349 350 350 350 353 354 353 353 354 354 355 355 354 354 355 358 357 354 354 356 358 357 357 357 357 358 359
359 357 355 354 353 350 348 346 344 345 347 349 349 345 343 346 349 350 350 353 355 355 354 355 355 355 355 354 352 353 354 354 352 352 353 354 354 354 355 356 356 357
359 357 355 354 353 350 348 347 345 344 345 347 348 346 344 343 347 349 350 351 355 356 355 356 356 355 355 354 352 350 351 351 350 351 352 353 353 353 353 354 354 355
357 357 356 355 354 353 350 348 347 345 344 344 346 346 345 343 344 348 350 350 353 356 355 355 356 356 355 355 353 349 348 349 349 349 350 352 352 352 351 351 352 353
356 357 357 356 355 354 352 350 349 347 345 344 345 345 345 344 343 345 349 350 352 354 354 353 354 356 356 356 355 351 347 347 348 348 348 348 350 351 350 349 348 349
356 356 356 357 357 356 355 353 352 350 348 346 346 346 346 345 343 343 346 349 351 352 352 350 350 352 354 355 357 354 349 346 346 348 348 347 347 348 348 348 347 347
356 356 356 356 357 357 357 357 355 353 351 349 348 347 347 347 346 344 344 347 350 351 351 348 346 346 350 352 355 355 352 347 345 346 348 348 348 347 347 347 346 346
354 356 357 357 357 358 359 359 358 357 354 353 352 350 350 350 350 348 346 346 347 349 349 348 344 343 344 348 351 353 352 350 347 346 347 349 350 350 349 347 345 344
352 352 354 354 355 357 359 359 360 360 357 355 354 354 353 353 353 353 351 349 347 346 347 348 345 343 342 344 347 349 349 348 347 346 346 348 350 351 351 349 347 344
350 351 354 355 355 357 358 358 360 361 359 356 355 356 356 355 355 355 354 353 352 349 348 347 346 346 345 343 345 346 345 346 345 344 344 344 346 349 350 350 349 347
349 352 354 356 356 356 356 356 357 357 357 357 356 355 356 357 357 356 356 356 356 355 353 350 349 348 348 347 346 347 346 346 346 345 344 342 343 345 348 350 351 351
349 352 354 355 355 352 352 354 355 354 354 355 354 353 355 357 358 358 358 357 358 357 356 354 352 350 350 350 350 350 349 348 348 349 349 347 347 346 346 348 351 353
346 349 351 352 353 351 351 353 355 354 353 354 353 353 354 355 355 358 359 358 358 358 357 356 354 352 352 351 351 351 351 350 349 351 352 352 352 350 349 349 350 353
343 345 347 350 351 352 352 353 352 352 353 354 354 355 355 354 354 356 358 358 358 358 358 358 357 355 354 352 352 351 351 350 350 351 353 354 354 353 353 352 352 352
341 343 344 347 349 350 351 351 352 352 353 354 354 354 355 355 355 356 356 357 358 358 358 358 358 358 356 355 353 352 351 350 351 352 354 354 355 355 355 354 354 353
339 341 342 344 346 348 348 350 351 352 352 354 354 355 355 356 356 357 357 358 357 357 358 359 359 359 358 357 356 354 353 351 351 353 354 354 355 356 356 356 356 354
337 339 341 342 344 345 347 349 351 351 353 355 356 355 355 356 357 358 359 358 356 357 358 358 359 359 358 358 357 356 355 353 352 354 355 355 356 357 357 358 358 357

ECMWFNIL_925_thetae_084.txt.gz
Theta_e
357 356 357 355 355 355 355 356 356 357 358 359 358 357 357 355 354 355 357 357 358 360 360 359 360 359 360 360 359 361 361 358 360 359 357 358 356 354 353 350 349 350
357 357 357 357 356 355 353 354 355 354 356 357 357 357 356 356 356 357 359 358 358 360 361 360 360 359 360 360 357 359 360 360 361 360 358 357 355 353 351 350 350 350
358 358 358 357 356 355 352 352 353 353 354 356 356 356 356 357 358 358 359 360 358 358 359 361 361 359 360 359 355 357 359 359 361 359 358 359 356 354 352 350 350 350
359 359 358 357 356 354 352 351 352 352 352 355 356 356 356 356 357 358 360 360 359 357 358 360 361 360 360 359 358 359 358 359 360 359 359 360 358 356 355 352 351 350
360 359 358 356 354 353 352 350 352 352 352 353 355 356 356 356 357 358 358 359 358 357 357 358 359 360 359 360 362 362 359 358 361 361 360 361 360 359 357 355 353 351
360 359 357 356 353 352 351 350 350 352 352 352 353 355 356 357 357 358 358 359 358 358 358 358 359 360 360 360 363 363 360 359 360 361 361 361 361 360 357 356 356 354
361 359 357 356 353 350 350 349 349 350 350 350 351 352 354 355 357 357 358 358 357 357 357 357 358 359 359 359 361 362 360 359 359 361 362 362 361 361 358 357 357 357
361 360 357 355 353 350 350 350 349 349 349 348 349 350 352 353 355 356 356 357 357 355 354 355 357 357 357 357 359 361 361 360 359 360 362 363 361 361 360 359 359 359
360 361 358 355 352 351 350 350 349 349 349 348 348 349 349 351 353 355 355 355 356 355 353 352 354 356 356 356 358 360 361 360 358 359 362 364 362 361 361 360 360 360
356 358 358 356 353 350 350 350 350 350 350 348 347 348 348 349 351 353 355 355 355 354 353 352 353 355 356 356 356 358 360 360 359 358 359 361 360 361 361 360 359 360
352 354 355 356 353 349 348 349 349 349 350 349 347 347 348 348 350 351 353 354 354 354 354 353 353 355 356 357 356 356 358 360 360 358 357 358 359 359 359 359 358 358
351 353 353 352 352 349 348 347 347 346 348 350 349 347 346 347 349 350 352 352 353 353 354 353 353 355 356 356 355 355 356 358 358 357 355 355 356 357 357 356 356 357
353 352 352 352 352 349 346 345 346 345 345 347 348 347 346 346 347 350 350 351 351 352 354 354 354 354 355 355 355 354 354 354 355 354 353 352 353 354 354 354 354 354
352 352 352 352 352 352 350 347 344 344 344 344 347 348 346 345 345 348 350 350 351 353 354 356 355 355 355 355 356 355 353 353 352 351 351 351 352 352 352 352 352 352
351 352 352 352 352 351 353 353 349 345 344 344 345 346 347 346 344 345 348 349 350 352 354 356 356 356 356 356 356 355 353 351 350 350 350 349 350 351 351 350 350 349
353 352 351 352 352 351 353 356 356 353 350 349 348 346 345 345 344 343 345 348 349 351 353 355 356 355 356 356 356 355 354 351 348 348 349 348 348 348 348 349 349 349
354 353 353 353 353 352 352 354 356 356 355 353 353 352 349 347 345 344 343 345 347 350 351 353 353 352 352 354 355 355 355 353 349 347 346 347 347 347 347 348 348 347
351 353 355 355 355 355 356 356 355 356 356 354 353 352 352 351 350 349 346 344 345 347 349 351 352 350 348 348 351 352 353 353 352 349 346 346 346 347 348 348 348 347
349 351 353 355 355 355 356 357 357 356 355 355 354 353 352 351 351 352 351 349 347 346 347 349 350 350 347 345 346 347 348 349 351 351 348 346 345 346 347 348 349 349
346 347 350 352 353 353 353 353 355 355 355 355 355 354 354 354 353 352 353 353 352 350 349 350 349 348 348 346 344 344 345 346 347 348 348 346 345 344 346 347 348 349
343 345 348 350 350 352 352 352 352 354 355 355 355 355 355 355 354 353 353 354 355 354 353 353 352 351 349 348 345 343 343 344 345 346 346 345 344 344 344 345 346 348
342 345 347 349 349 351 351 351 352 354 355 356 356 356 356 355 354 354 352 352 354 356 356 355 355 354 353 351 349 345 343 343 344 346 347 346 345 344 343 343 343 344
341 344 345 346 348 349 348 348 350 351 353 355 355 355 356 355 355 355 354 353 354 356 358 358 357 357 356 354 352 349 346 344 344 347 349 348 347 347 347 347 346 345
337 341 343 344 346 347 346 346 347 348 349 351 352 354 355 355 355 355 355 356 356 357 358 359 358 358 358 356 355 353 350 347 346 347 349 350 350 350 351 351 351 351
335 337 337 339 342 345 346 346 347 346 346 349 350 351 354 355 356 356 357 357 357 357 358 358 358 358 357 357 357 356 354 351 348 348 350 351 352 353 354 354 353 354
336 336 334 333 334 339 344 346 346 345 346 348 349 350 352 353 355 356 356 356 356 357 357 357 356 356 357 357 356 357 356 353 351 350 351 353 353 354 355 355 356 355

ECMWFNIL_925_thetae_087.txt.gz
Theta_e
353 352 351 352 353 355 356 356 357 358 357 354 352 353 355 355 357 358 357 357 357 356 355 354 355 357 356 354 354 358 359 357 359 358 357 358 356 353 354 352 349 348
354 354 352 353 354 355 356 356 357 358 358 356 354 353 354 354 355 357 358 357 355 356 356 355 357 357 356 356 356 359 360 358 359 359 356 357 356 353 353 352 349 349
355 355 354 354 354 355 355 356 356 357 358 358 357 355 354 354 354 354 356 357 357 358 359 357 357 357 357 358 358 359 360 358 359 360 358 356 356 354 353 351 350 350
356 356 354 354 355 355 355 356 355 355 356 357 357 357 357 356 354 354 355 358 357 357 359 358 356 355 356 358 358 356 355 356 359 360 359 357 355 354 353 352 351 350
357 357 356 355 355 355 355 354 354 354 355 355 355 356 358 356 356 356 357 359 358 357 359 358 357 356 354 356 357 354 352 354 357 359 359 358 357 355 355 354 351 351
357 358 357 356 356 356 355 353 352 353 354 354 353 354 357 356 357 357 358 360 358 358 358 357 357 358 356 356 358 358 357 356 357 359 359 359 359 357 357 356 353 351
358 358 358 357 357 356 354 352 352 352 351 353 353 354 355 356 357 357 357 359 358 358 358 357 357 358 358 358 359 361 361 359 358 360 360 359 360 360 359 359 356 353
358 358 359 358 357 356 354 351 351 352 351 352 353 353 355 356 356 357 357 358 358 358 358 358 357 358 358 359 359 359 361 360 360 360 359 359 360 360 360 360 359 355
359 358 358 358 357 356 354 351 351 351 350 351 352 353 354 354 355 356 357 357 358 358 357 357 358 358 358 359 359 358 358 359 360 360 359 359 360 360 360 359 360 358
359 360 359 358 357 356 354 351 350 350 350 350 350 351 352 353 354 356 356 357 357 357 357 356 356 357 357 358 357 357 357 357 358 360 360 359 359 361 361 360 359 359
357 358 357 358 357 355 353 351 350 349 349 349 348 349 350 351 352 353 354 356 356 356 356 355 354 355 356 355 355 356 357 356 357 359 360 359 359 359 360 360 359 359
353 354 355 356 357 354 351 350 349 349 349 349 348 348 349 349 350 351 353 354 355 355 355 355 353 353 354 354 354 355 357 357 357 357 358 359 359 358 358 359 360 359
352 352 352 353 354 354 351 350 350 350 349 349 349 348 347 348 348 349 350 352 353 353 354 354 353 353 354 354 354 354 356 356 356 356 356 358 358 357 357 357 358 358
352 351 351 351 351 351 350 349 349 351 351 350 349 348 347 347 348 348 349 350 352 353 353 353 353 353 353 354 354 354 355 355 356 355 356 356 356 354 354 354 355 355
352 352 351 352 351 350 349 349 348 350 352 352 350 349 348 347 346 348 348 348 350 352 352 352 352 352 352 353 354 354 354 355 355 355 355 354 354 353 352 352 352 353
353 352 351 352 352 351 350 350 349 351 353 353 352 350 349 348 346 347 348 348 349 350 351 351 351 351 352 353 353 353 354 354 354 355 354 353 352 352 351 350 350 350
354 354 355 354 353 353 352 352 352 352 353 354 353 350 349 349 348 347 348 349 349 349 351 351 351 351 352 353 353 353 353 353 352 352 353 353 351 350 350 350 350 350
352 354 356 355 354 354 353 353 353 353 354 355 354 352 350 348 348 348 349 351 350 350 350 350 351 350 351 353 355 355 354 354 353 351 351 351 351 350 348 348 348 349
350 351 352 352 353 354 354 354 354 354 355 355 355 354 352 350 348 348 349 350 351 352 351 351 351 350 350 351 353 354 354 355 355 353 351 349 348 348 348 347 347 347
346 348 349 348 349 351 352 352 352 353 353 354 355 355 355 354 352 351 349 350 350 351 352 352 352 352 351 351 351 352 352 353 353 353 352 350 348 346 345 346 347 346
345 347 347 347 348 350 350 349 350 351 351 353 356 355 355 355 354 354 353 352 351 351 352 352 352 354 354 352 351 350 350 350 351 352 353 351 349 347 345 344 345 345
344 345 345 345 347 348 348 348 350 351 351 352 354 355 355 354 354 355 355 354 354 353 353 352 352 354 355 354 352 351 349 348 347 350 352 352 351 349 348 346 345 346
341 342 343 344 345 346 346 346 347 348 349 351 351 352 353 353 354 355 355 355 355 354 354 354 353 354 354 355 355 354 352 349 346 346 348 349 351 351 349 348 347 346
334 334 336 338 342 344 346 347 347 345 346 348 349 350 351 351 353 354 355 355 355 355 356 356 356 356 355 356 356 356 355 354 350 348 346 346 347 349 350 349 348 346
334 333 332 332 334 337 339 342 345 345 346 347 347 348 349 350 351 353 354 356 356 357 357 357 357 357 356 356 356 355 355 355 354 353 352 349 347 347 348 350 349 348
331 333 334 333 333 332 331 333 336 338 342 345 346 346 348 350 351 351 352 353 353 353 353 354 354 356 356 356 356 354 354 354 354 354 354 353 351 348 348 350 351 351

ECMWFNIL_925_thetae_090.txt.gz
Theta_e
351 353 352 353 353 351 352 351 351 352 353 353 354 353 354 354 355 356 357 357 357 357 356 355 354 354 356 356 356 356 356 355 354 354 354 354 354 353 351 350 350 350
352 352 351 352 352 352 352 352 352 353 353 353 354 353 353 354 355 356 358 357 357 358 358 355 353 354 356 356 355 355 356 356 356 356 356 355 353 352 351 351 351 349
351 352 351 351 352 353 353 353 353 354 355 355 355 354 352 352 354 356 357 358 357 357 356 355 353 354 356 356 354 354 355 357 357 357 358 356 355 354 352 351 352 350
351 352 352 351 351 353 354 354 355 356 356 356 355 355 353 352 354 354 355 357 357 356 355 356 356 355 356 357 356 355 356 358 358 357 359 358 356 355 353 352 353 352
351 351 353 352 351 353 354 354 355 355 355 356 356 356 355 353 354 353 353 354 355 355 355 356 358 357 357 357 357 357 357 358 357 357 359 359 358 356 354 352 353 353
353 352 352 353 353 353 355 354 354 355 355 355 355 356 356 355 355 355 353 352 354 356 356 356 357 357 356 355 355 357 357 356 354 355 358 359 358 357 355 353 353 353
355 354 353 353 353 353 354 354 354 355 354 353 354 355 355 356 356 355 354 354 355 357 357 356 357 357 356 355 355 356 357 356 355 355 357 358 358 358 357 356 355 355
356 355 354 355 354 354 354 354 355 355 353 353 354 355 355 355 356 356 355 356 356 357 358 357 357 357 356 356 356 356 356 357 358 358 357 358 358 358 358 358 358 358
357 356 356 356 356 355 354 354 354 354 353 352 352 354 353 353 355 356 356 356 356 357 358 357 357 357 357 356 356 357 357 357 358 359 359 359 359 358 357 357 357 359
358 357 357 357 357 356 355 354 355 354 353 352 352 352 353 353 354 355 356 356 356 357 357 357 357 357 357 357 356 356 357 357 356 357 358 359 359 358 357 356 356 357
357 357 357 357 358 358 356 356 356 355 352 351 351 351 351 352 354 354 356 356 356 356 356 356 356 356 357 358 357 356 356 356 356 355 356 357 359 360 358 357 357 356
355 356 357 357 357 358 357 356 355 353 352 351 351 351 350 351 353 354 355 356 356 356 356 356 356 356 356 357 357 356 355 355 355 355 356 356 357 359 359 359 358 357
354 354 355 355 355 356 357 356 353 351 350 350 350 350 350 350 351 353 353 354 354 355 355 356 356 355 356 355 355 355 355 354 354 355 356 356 356 357 358 359 359 357
351 351 352 353 353 354 355 354 352 349 349 350 350 350 350 349 349 350 351 352 352 353 353 354 355 355 355 355 354 354 354 354 353 354 355 356 356 355 356 357 357 357
351 350 351 351 351 353 354 353 352 350 349 349 350 350 349 349 348 348 349 350 350 351 351 352 353 354 354 354 354 353 354 354 353 353 354 355 356 355 354 354 354 355
351 351 350 350 350 351 352 352 350 350 348 348 350 352 350 349 348 347 347 348 349 350 350 350 352 352 352 352 352 352 352 353 353 353 354 354 355 355 354 353 353 352
351 351 351 351 350 350 351 350 349 349 349 348 350 352 352 350 349 348 347 347 348 348 350 350 351 351 351 350 350 351 351 351 353 353 354 354 354 355 355 354 353 352
353 352 352 353 353 352 352 352 351 351 351 350 351 352 352 351 350 349 348 347 348 348 349 351 351 351 351 351 350 350 350 350 351 352 353 353 353 352 353 353 354 353
352 352 353 354 354 354 353 353 353 353 352 352 352 353 353 352 351 350 350 349 349 350 350 351 352 352 352 352 352 351 350 350 350 351 352 352 352 351 350 350 350 351
348 349 349 350 352 352 351 351 351 353 353 354 354 355 354 354 352 351 351 351 351 351 351 351 351 351 351 352 352 352 352 351 352 352 353 353 353 352 351 349 348 347
346 346 346 347 349 349 349 349 350 351 353 354 355 355 355 355 354 353 352 352 352 352 351 351 352 352 352 352 352 352 351 352 353 354 354 354 354 354 354 353 351 349
343 344 346 346 346 346 346 347 347 348 349 351 352 353 354 354 354 354 353 354 353 353 353 352 351 351 352 352 352 352 352 352 352 352 352 352 353 354 354 354 353 352
336 337 339 343 344 345 346 347 347 346 347 348 349 350 351 352 353 354 354 354 354 354 354 355 354 353 353 353 353 353 353 353 353 352 352 352 351 351 351 352 353 353
332 332 334 336 337 338 340 343 345 345 346 347 348 349 350 351 352 353 353 354 353 353 355 356 355 354 354 354 354 354 354 355 355 355 354 354 354 353 352 350 350 350
330 331 332 333 334 334 334 336 338 339 341 343 344 346 348 349 349 350 351 353 352 352 355 356 355 354 353 353 353 353 354 355 354 354 354 354 354 354 353 353 352 351
325 327 328 328 330 331 332 333 334 334 334 334 334 336 339 342 345 347 349 349 350 351 352 353 352 351 350 350 350 351 352 353 353 353 353 353 353 353 353 352 353 352

ECMWFNIL_925_thetae_093.txt.gz
Theta_e
350 350 350 350 352 352 352 351 350 351 351 351 352 352 352 353 354 354 354 354 354 354 354 353 355 355 354 354 354 355 356 356 355 354 354 354 354 353 352 352 351 351
350 350 351 352 353 353 352 351 351 351 350 350 351 352 352 352 353 354 354 354 355 355 355 353 355 355 354 353 354 355 356 355 355 355 355 355 354 354 352 351 351 351
350 349 351 353 353 353 352 352 351 351 350 350 351 352 352 352 353 354 354 355 355 356 356 356 356 355 353 354 355 356 355 354 355 355 356 355 355 354 353 352 351 351
350 349 350 352 352 352 352 352 351 351 351 351 351 352 353 353 353 353 354 355 356 356 356 356 356 355 353 354 355 356 354 354 354 355 356 356 356 355 354 353 352 351
350 349 349 351 352 351 351 351 351 351 351 352 353 353 354 354 353 352 353 355 355 356 356 356 355 355 354 354 356 356 355 355 354 355 356 356 357 357 356 355 353 351
349 349 350 350 351 351 351 351 352 352 352 353 354 355 355 355 354 352 352 354 354 354 355 355 354 355 356 356 356 356 356 356 355 355 356 355 356 358 358 357 355 352
350 350 349 350 351 352 352 352 352 353 353 354 355 355 355 355 355 354 353 353 354 353 353 354 353 354 356 356 356 356 355 356 355 354 354 353 354 356 357 357 357 355
351 352 350 350 351 352 353 353 353 354 354 354 355 354 354 355 356 356 355 354 354 353 352 353 355 355 355 356 357 356 354 354 354 353 353 353 354 355 356 357 357 357
353 353 352 351 351 352 353 353 354 354 355 355 355 355 354 354 354 355 356 356 356 354 353 354 356 356 355 356 356 356 354 354 354 354 355 355 355 354 355 356 356 356
354 354 354 353 353 352 352 353 353 353 354 354 354 355 354 353 353 354 355 356 356 355 354 355 356 357 356 356 355 356 355 354 355 356 355 355 354 354 355 356 356 356
355 355 355 355 354 354 353 353 353 353 353 353 353 354 353 352 352 353 353 355 355 355 355 355 356 356 356 356 355 356 356 355 355 355 356 355 354 354 354 356 357 357
356 356 356 355 355 355 355 355 355 355 354 354 353 354 353 352 351 351 352 352 353 354 355 355 355 356 356 355 355 356 356 356 356 355 356 356 355 354 354 355 357 358
357 357 357 357 356 356 356 356 356 356 356 355 354 355 354 353 351 350 350 350 351 353 354 355 355 355 356 355 355 355 356 356 356 356 355 355 355 355 355 355 356 357
357 357 357 357 357 357 356 357 357 356 356 355 354 354 353 353 351 351 350 350 350 352 353 354 355 355 356 355 355 355 355 355 356 356 355 355 354 354 354 355 355 356
357 356 356 356 356 356 356 357 356 355 354 353 351 351 351 351 350 350 350 350 349 350 351 353 354 354 355 354 354 354 354 355 354 354 354 353 353 353 353 353 354 355
355 354 353 353 354 355 356 357 356 354 352 351 350 350 350 350 349 349 349 350 349 349 350 351 352 352 352 352 353 353 353 354 354 354 353 353 353 353 352 352 352 353
352 352 352 351 351 353 354 355 355 354 353 351 350 349 349 349 350 349 349 349 349 348 349 349 349 349 350 350 350 351 352 353 353 353 353 353 353 353 352 352 352 351
350 350 350 350 350 350 351 352 353 353 353 352 351 349 349 348 349 350 350 349 349 348 347 348 348 347 348 349 349 350 351 352 353 353 353 353 352 352 352 352 352 352
350 350 350 351 351 351 350 350 350 351 351 351 351 350 349 349 349 350 351 350 349 348 347 347 347 347 347 348 349 349 351 352 352 352 352 352 352 352 352 351 352 352
349 350 351 352 353 353 353 353 352 352 352 351 352 352 351 352 352 351 351 350 350 349 349 348 347 347 347 348 349 350 351 352 352 352 352 352 352 352 351 351 351 352
347 348 347 347 348 350 350 351 352 354 354 354 355 354 354 354 354 354 353 352 351 351 351 350 350 350 349 350 350 350 351 352 352 352 352 352 352 351 351 351 351 352
342 344 344 345 346 347 348 348 348 349 350 352 352 353 353 354 354 354 354 353 352 352 352 352 352 352 351 351 351 351 351 351 351 351 352 352 351 351 351 352 352 353
335 337 338 340 341 343 344 343 343 345 347 349 349 349 351 352 352 353 354 353 352 352 353 354 354 354 353 352 352 352 352 352 352 352 352 352 351 351 352 352 351 351
330 331 332 334 335 337 338 338 339 340 342 345 347 348 348 349 350 351 352 352 350 350 352 353 354 354 354 354 354 353 353 354 354 354 354 354 354 353 353 353 353 353
326 327 328 329 330 331 333 335 336 336 336 338 340 342 343 344 346 348 349 349 349 351 352 352 353 354 353 352 352 352 353 353 352 353 353 353 353 353 353 353 353 353
324 326 326 326 326 326 326 328 330 331 333 335 336 336 335 335 340 345 348 347 346 346 347 349 350 350 349 348 349 350 351 351 351 351 351 352 352 352 351 351 351 351

ECMWFNIL_925_thetae_099.txt.gz
Theta_e
352 351 352 352 352 352 351 352 351 350 350 351 352 353 352 350 348 348 348 347 347 350 352 352 351 352 352 353 353 353 354 354 356 356 356 356 357 357 356 356 356 355
352 352 352 352 352 352 351 351 351 350 349 350 350 350 350 350 350 349 349 349 350 352 353 352 351 352 354 355 354 353 354 353 356 357 356 357 357 357 357 357 357 355
352 352 352 352 352 352 351 350 349 350 350 350 350 350 350 350 351 351 351 351 352 354 354 352 353 353 353 355 354 354 355 354 356 358 356 357 357 357 358 357 356 356
352 352 352 353 353 351 350 350 349 349 350 351 351 351 350 350 351 351 351 352 353 354 354 353 354 354 353 354 355 355 355 355 356 357 355 357 357 357 358 358 358 357
351 351 352 352 352 351 350 349 349 350 351 352 351 351 351 350 350 351 351 352 352 354 355 355 355 356 355 355 355 356 356 356 357 356 355 358 358 358 359 358 358 358
350 350 351 351 351 351 350 349 349 351 352 352 351 351 351 350 350 351 351 352 353 355 356 356 356 357 357 356 356 356 356 357 358 356 357 359 359 359 359 358 358 359
350 350 349 351 351 350 349 349 349 351 352 352 351 350 350 350 351 351 352 353 354 355 356 355 355 356 357 357 356 356 356 357 357 356 356 359 360 359 359 359 358 358
350 350 349 350 351 351 350 350 350 351 351 351 350 350 350 350 352 353 353 353 355 355 354 354 353 354 356 357 356 356 357 358 358 357 357 359 359 360 360 358 358 358
350 350 349 350 352 352 352 352 352 351 350 350 351 352 351 351 352 353 354 354 355 355 354 353 353 353 354 355 354 355 356 358 359 359 359 359 359 360 360 359 358 359
351 350 350 351 352 353 353 353 354 353 351 350 352 353 353 352 352 353 354 354 354 355 354 354 354 354 354 353 353 353 355 357 358 359 359 360 360 359 359 359 360 360
353 352 352 352 352 352 353 352 353 354 353 352 353 354 354 353 353 353 354 354 354 353 353 354 354 355 354 354 354 354 355 356 357 358 358 359 359 358 358 359 360 360
353 353 353 353 352 352 352 353 352 353 353 353 353 353 354 354 354 353 353 354 353 353 352 352 353 354 354 354 355 355 355 356 357 358 357 357 359 359 359 358 359 359
352 353 353 352 353 353 353 353 353 353 354 353 353 354 354 354 355 354 353 352 353 352 352 351 351 352 353 353 355 356 356 356 357 358 358 357 357 358 359 359 359 358
353 352 352 352 353 353 354 354 354 354 354 354 354 353 353 354 354 354 354 353 353 352 352 352 350 351 352 352 353 355 355 356 357 357 358 358 357 357 357 357 358 358
354 352 352 352 352 352 353 354 355 356 355 354 354 353 354 354 354 354 355 355 354 353 352 352 353 352 351 351 351 353 355 356 356 356 357 358 357 356 356 355 355 357
354 353 353 354 353 353 353 353 354 355 355 355 355 354 354 355 355 355 355 355 355 354 353 353 353 352 350 349 350 350 353 355 356 355 355 356 355 355 355 355 354 355
352 353 354 354 354 354 354 354 354 354 355 355 355 355 355 355 355 355 354 354 353 353 353 352 353 351 349 348 349 349 350 353 355 355 354 354 355 355 355 356 356 355
351 352 353 353 352 351 352 353 354 354 354 355 355 355 354 353 353 353 352 352 351 351 352 352 352 350 348 348 348 348 349 351 355 358 357 356 356 356 356 356 357 356
350 351 351 352 352 350 350 351 352 352 352 353 354 354 352 351 351 351 350 350 350 350 350 351 352 350 348 348 349 348 348 349 353 356 357 356 356 356 356 356 356 356
350 350 350 350 350 350 350 351 350 350 350 351 352 353 351 351 351 351 350 349 349 349 349 350 351 350 349 349 348 348 347 347 348 352 355 356 356 356 355 355 356 355
348 350 348 348 348 348 348 348 348 348 349 349 350 350 349 349 351 353 352 351 352 352 352 351 350 349 349 348 348 347 347 346 346 348 351 354 355 354 354 354 354 353
344 346 346 347 348 348 347 347 347 347 347 348 348 348 349 349 350 353 354 353 354 354 353 351 350 350 350 350 349 349 348 348 348 348 350 352 352 352 351 351 351 351
341 342 343 343 345 346 347 347 347 346 347 348 348 349 351 351 351 352 352 352 352 353 352 351 350 351 351 350 351 351 350 350 350 350 350 350 350 350 350 350 351 350
336 339 340 341 342 343 344 345 345 346 347 348 349 350 351 352 352 351 351 351 351 351 351 349 348 350 351 351 351 351 351 352 352 352 353 352 352 352 352 353 352 351
330 333 336 337 338 340 340 340 341 342 345 347 348 349 349 349 349 348 347 347 347 348 348 346 345 346 348 349 350 351 351 352 353 353 354 353 353 353 353 353 353 352
326 327 328 329 332 335 336 337 337 337 339 342 343 344 344 343 343 344 344 343 343 344 344 342 340 340 341 343 344 346 348 349 351 353 352 352 352 352 352 352 352 352

ECMWFNIL_925_thetae_102.txt.gz
Theta_e
359 359 359 358 358 358 358 358 358 358 358 357 356 356 356 356 355 354 354 355 356 356 357 357 358 358 358 357 358 358 358 357 358 359 359 360 358 357 355 354 353 352
358 359 359 358 358 359 358 357 357 358 359 358 357 357 358 358 357 356 355 356 356 356 357 358 358 359 359 360 361 359 360 359 358 359 360 360 359 357 355 355 353 353
357 358 358 357 357 357 357 356 357 357 357 358 358 357 357 357 357 357 356 357 357 357 358 358 359 359 359 362 363 360 360 360 358 358 361 360 359 358 356 355 354 354
357 357 357 355 355 356 356 356 357 356 356 358 358 357 357 356 357 357 358 358 357 358 359 359 359 359 360 363 363 360 360 361 360 361 362 361 359 358 357 356 355 355
357 357 356 355 354 355 356 356 356 355 355 356 357 357 357 357 357 357 358 358 358 358 358 359 359 359 360 362 361 360 360 360 360 362 362 361 361 358 357 357 357 356
356 357 356 355 355 355 355 355 355 355 354 355 356 357 357 358 357 357 357 357 357 357 356 358 358 358 359 361 361 360 360 358 360 362 363 362 361 359 357 358 359 359
354 355 355 356 355 354 354 354 354 355 354 355 356 357 357 357 357 357 357 357 356 356 356 357 359 359 359 360 361 361 360 359 361 364 364 362 361 361 360 359 360 360
353 353 354 354 353 353 353 352 353 354 354 355 355 355 356 357 357 357 357 357 356 357 357 358 359 360 359 359 360 361 361 358 358 362 363 362 362 363 362 361 360 359
352 351 352 353 353 351 351 351 351 352 354 354 354 354 354 356 356 357 359 359 358 359 359 359 359 359 358 358 360 360 360 358 357 360 361 361 361 361 360 360 359 359
352 351 351 351 351 350 350 350 349 350 352 353 352 352 353 354 355 356 359 361 360 360 360 359 359 359 358 358 359 359 358 359 358 359 360 360 360 360 359 359 360 359
351 350 350 349 350 349 349 349 348 348 350 351 351 350 351 354 355 356 359 361 360 360 361 360 360 360 360 358 358 358 358 357 358 358 359 360 360 360 359 359 359 359
353 351 350 349 350 349 348 349 348 347 348 349 350 349 349 352 354 356 358 360 360 360 360 361 360 360 361 360 358 357 358 357 357 357 358 359 359 360 360 358 358 358
356 354 353 351 351 350 349 349 349 348 348 348 348 349 349 350 353 355 357 358 359 359 359 360 361 361 361 361 359 358 358 359 359 358 358 358 358 358 359 358 357 358
357 357 357 355 354 353 352 350 350 349 349 349 349 350 348 348 350 353 356 356 357 357 358 358 359 360 360 360 359 359 359 359 360 360 360 359 359 358 357 358 358 358
357 358 359 359 357 357 357 355 353 352 352 352 352 352 350 348 348 350 353 355 355 355 356 356 356 357 358 359 359 359 359 358 358 360 359 359 359 358 356 357 357 356
357 357 358 360 361 361 361 359 357 355 354 354 355 355 352 350 350 351 351 353 353 354 355 354 354 354 356 357 357 357 357 358 358 358 359 359 359 358 356 356 355 354
355 354 355 357 360 363 363 362 360 357 356 356 357 357 356 354 353 353 352 352 352 353 353 353 352 351 354 354 353 352 353 355 358 358 358 359 358 357 357 355 354 353
352 351 350 351 354 358 361 362 360 358 358 357 357 358 358 357 356 355 355 354 352 352 352 352 351 351 353 352 350 348 349 352 355 357 357 357 357 356 356 355 354 353
350 350 350 350 352 354 355 358 358 358 358 357 357 357 358 358 357 356 356 355 353 352 352 352 351 352 352 351 349 348 348 349 353 355 355 356 357 357 356 356 356 356
351 351 351 351 352 352 353 354 354 355 356 356 356 357 357 358 358 356 356 356 354 353 354 353 352 352 352 351 349 348 348 348 351 354 355 355 356 357 357 357 358 358
351 351 350 351 351 351 352 352 351 352 353 354 355 357 357 358 357 357 357 356 354 353 353 353 351 351 351 350 348 349 349 348 349 353 354 354 355 357 358 359 360 360
348 349 350 351 351 351 351 350 350 351 351 352 353 354 356 357 356 356 356 356 355 354 355 354 351 351 350 349 348 348 348 348 350 353 355 355 356 358 360 361 361 361
343 345 346 348 349 350 350 349 348 348 349 350 350 351 352 353 353 354 355 357 357 356 355 352 350 350 350 349 349 349 350 352 354 356 357 357 357 359 359 359 359 358
338 340 341 343 344 345 346 347 347 347 346 346 347 347 348 351 352 351 352 354 354 352 350 349 348 350 350 350 351 350 351 356 358 357 358 358 358 358 358 358 357 355
334 335 337 338 339 339 341 343 345 345 345 345 346 347 348 351 352 348 346 348 349 348 347 346 346 348 349 350 351 351 352 356 358 358 358 358 357 357 357 357 356 354
328 329 332 334 335 336 337 338 339 341 342 343 345 346 346 347 348 345 343 343 344 344 343 342 342 344 346 347 349 349 350 353 355 356 357 357 357 357 356 356 356 354

ECMWFNIL_925_thetae_105.txt.gz
Theta_e
362 359 359 360 359 359 359 358 358 357 356 355 354 355 356 355 354 355 354 355 356 356 358 360 360 360 359 359 358 359 360 358 358 359 359 358 358 356 355 354 352 352
362 361 360 359 360 361 360 358 357 357 358 358 356 355 357 357 356 356 355 356 357 356 358 359 360 361 360 360 361 360 360 360 358 359 360 359 358 357 356 355 352 352
360 361 360 358 358 359 358 358 359 358 356 357 357 356 357 357 357 357 356 357 357 356 358 358 360 361 360 363 366 362 361 362 359 358 362 362 359 358 357 355 353 353
358 358 358 357 356 356 355 356 358 358 356 357 358 357 356 356 357 358 358 358 358 358 359 359 360 361 360 363 366 362 361 363 360 360 365 364 361 359 358 356 355 355
357 357 356 356 356 355 355 355 356 356 355 356 357 356 357 358 358 358 358 359 358 359 360 361 361 360 361 363 364 360 359 361 360 361 363 362 361 360 357 357 357 357
356 356 356 355 355 356 356 355 355 355 354 355 355 355 357 358 357 358 358 358 357 356 358 359 359 359 360 363 362 360 358 358 358 360 362 361 361 360 357 357 359 359
355 355 355 354 354 354 355 355 356 355 354 354 354 354 356 357 356 357 358 358 357 356 356 357 359 359 358 359 361 361 360 359 358 359 361 361 361 361 360 360 361 362
353 353 353 353 353 353 353 353 355 355 354 354 354 354 356 357 357 357 357 357 357 356 357 358 360 360 356 356 360 362 361 360 358 358 359 359 361 364 363 361 362 362
352 351 351 351 351 351 351 350 351 352 354 354 354 355 355 356 356 356 358 358 357 358 358 359 361 361 358 357 360 363 362 359 357 359 359 359 360 362 362 360 361 361
352 350 350 349 349 349 349 349 348 349 352 353 353 354 353 354 355 355 359 360 359 360 361 360 360 360 358 358 360 362 362 360 359 359 361 361 360 360 360 360 360 360
352 350 349 349 348 347 346 348 347 346 349 351 351 352 351 353 355 355 359 362 360 360 362 360 360 360 359 358 358 359 359 359 359 359 359 360 360 360 360 360 359 360
355 352 350 348 348 348 346 346 346 346 347 349 349 350 349 351 354 354 358 361 360 359 360 361 361 360 360 359 358 357 357 357 357 358 358 359 359 359 359 358 357 357
359 355 353 349 348 348 347 346 346 346 346 347 348 349 349 348 352 354 356 359 360 359 359 361 362 360 361 361 358 357 357 357 357 357 357 357 357 357 357 357 356 355
360 358 356 353 350 349 347 347 347 347 346 346 347 349 349 348 348 352 355 357 359 358 357 359 360 360 360 361 359 357 357 358 358 357 357 357 356 356 356 357 356 356
358 358 359 358 355 352 350 349 348 349 349 349 348 349 349 348 347 348 352 355 356 358 357 357 358 358 357 359 359 357 355 356 358 357 357 357 358 358 356 355 355 355
359 359 360 360 359 357 355 354 353 351 351 350 351 351 351 350 349 347 348 352 354 356 356 355 356 355 354 356 357 355 354 355 356 357 358 359 360 360 358 356 355 353
357 360 362 361 361 362 361 361 360 357 355 354 353 353 354 353 351 349 348 349 351 354 354 353 353 352 352 354 356 355 357 358 357 358 360 359 359 359 358 356 354 352
351 354 358 360 363 366 365 366 366 363 361 358 356 355 357 356 355 352 350 349 350 352 352 352 351 351 351 353 354 355 356 356 355 356 358 358 357 357 357 355 353 352
351 351 353 356 361 363 362 364 365 364 363 362 359 358 358 358 357 354 353 352 351 350 351 352 351 351 352 353 354 353 352 351 352 353 354 356 356 356 356 355 355 354
352 352 352 354 357 357 356 357 358 359 361 360 360 359 359 360 359 356 355 354 353 351 352 352 351 350 353 353 352 351 349 348 350 351 351 353 355 356 357 357 356 356
350 351 351 353 353 352 352 353 353 354 354 354 355 356 357 359 358 357 355 354 354 352 351 351 351 350 352 353 351 350 349 347 350 351 351 351 352 354 356 356 356 357
347 349 349 351 352 352 352 353 352 351 350 350 350 350 354 357 356 354 354 353 352 351 349 349 350 350 351 352 351 350 349 348 350 352 351 350 350 352 355 357 358 359
345 347 347 348 349 351 351 352 352 351 350 351 350 350 354 356 352 350 351 351 351 350 349 349 351 351 351 350 350 350 349 349 352 353 353 352 351 352 356 357 356 359
342 343 344 344 345 346 347 348 350 351 350 351 350 350 352 354 350 348 350 349 349 350 349 350 351 352 351 350 350 349 348 351 355 355 355 355 352 353 356 353 351 356
340 340 341 340 341 342 343 344 346 348 348 349 348 348 349 350 349 348 347 346 347 348 349 349 349 351 351 350 351 350 349 353 359 359 357 353 348 348 350 349 349 352
336 338 339 340 340 340 340 341 342 343 345 346 347 346 347 348 347 346 345 345 345 346 346 345 345 348 349 349 350 351 350 352 357 358 356 352 347 345 347 347 348 349

ECMWFNIL_925_thetae_108.txt.gz
Theta_e
355 356 357 357 356 355 356 356 356 356 356 356 356 356 355 355 354 353 353 355 356 357 359 360 360 360 359 359 358 357 357 357 357 357 357 356 355 355 355 353 351 350
355 356 355 354 354 354 355 356 357 356 355 355 354 354 355 355 354 354 354 355 356 356 358 360 360 359 360 359 359 358 359 359 359 358 357 357 356 356 355 354 353 350
357 357 355 354 355 356 356 356 356 356 356 357 355 354 356 355 355 355 355 356 357 356 357 359 359 360 360 360 360 360 359 360 359 356 357 359 358 357 356 355 354 352
358 357 355 355 357 357 357 356 356 357 356 356 356 355 355 356 357 356 356 356 357 356 357 358 359 360 361 361 360 359 360 361 360 357 359 361 359 358 358 357 355 354
358 357 355 355 356 356 355 355 357 358 357 355 355 356 355 355 356 356 357 357 357 358 358 358 359 360 360 360 360 360 360 361 361 359 360 361 359 359 358 356 355 356
358 357 356 355 356 354 353 354 357 357 356 355 355 355 356 356 357 357 357 358 357 358 358 359 359 359 360 360 361 361 359 359 360 360 360 361 360 360 358 355 356 357
357 357 356 355 355 355 355 355 355 355 355 355 354 355 356 356 357 357 357 358 357 356 356 357 358 358 358 359 361 361 359 358 359 359 359 361 361 360 360 358 359 360
355 355 356 354 354 354 354 354 354 355 354 354 354 355 355 356 356 355 356 357 357 356 355 356 358 357 357 359 360 361 360 359 359 358 357 358 359 361 362 360 360 361
353 354 354 354 353 352 352 353 353 355 355 353 354 355 354 354 356 355 355 357 356 356 356 356 357 358 358 358 358 358 359 359 359 358 357 358 358 360 362 361 360 360
351 352 353 353 352 351 351 351 351 352 353 354 354 354 352 353 356 355 355 356 356 356 358 357 357 358 359 358 355 355 358 360 359 358 359 360 360 359 360 360 359 359
350 351 351 350 350 350 349 349 349 348 350 352 352 352 352 353 354 354 355 357 357 357 359 359 358 359 359 358 357 357 359 361 359 358 359 359 360 359 358 358 359 359
352 351 350 349 348 349 348 347 347 347 348 349 350 351 352 352 353 353 355 357 358 358 359 359 359 359 359 358 357 357 358 360 359 358 358 358 358 358 358 358 359 358
356 355 353 351 348 348 348 347 347 346 346 346 349 350 351 351 351 352 354 356 358 359 358 358 359 358 359 359 358 357 357 357 357 356 357 357 357 357 356 356 356 356
359 358 356 355 352 350 348 348 347 346 346 345 346 348 349 350 349 351 353 355 358 359 358 358 359 359 359 359 359 360 358 356 356 356 355 356 356 355 355 355 355 355
358 357 356 356 356 354 351 350 348 346 346 346 347 347 348 349 348 348 351 353 356 358 357 357 357 358 359 359 360 360 357 356 356 356 355 355 355 356 355 355 354 355
358 356 356 356 357 356 354 353 352 351 350 349 348 348 348 349 349 347 348 350 354 356 356 356 355 356 358 359 359 358 357 356 355 354 355 355 355 357 357 356 354 354
357 357 358 358 359 357 354 353 352 351 352 351 351 351 350 350 351 349 348 348 350 352 355 355 353 353 355 356 356 356 357 356 354 352 354 355 355 356 358 358 356 353
353 354 354 356 359 359 357 356 354 352 352 352 352 352 352 353 354 353 352 350 348 349 352 353 352 351 351 351 353 354 355 355 354 353 354 355 355 356 357 357 356 352
350 350 350 350 354 357 358 358 358 358 357 355 354 354 353 354 354 353 353 352 351 350 351 351 350 350 350 350 351 353 354 355 355 354 353 353 353 354 355 355 354 354
352 352 352 350 351 353 356 357 357 359 359 357 357 357 356 356 356 355 354 351 350 350 351 351 350 349 350 350 352 354 355 356 355 352 351 350 350 353 355 353 352 353
351 352 353 352 352 353 355 355 355 356 357 357 358 357 357 356 356 356 355 351 351 351 351 351 351 350 350 351 353 355 355 354 352 351 350 350 349 351 352 351 351 353
348 350 351 352 353 353 353 353 353 353 355 356 355 353 354 353 353 355 354 352 352 352 349 349 349 349 350 352 354 354 352 350 349 350 351 351 350 350 350 349 350 352
345 347 349 349 350 351 351 351 351 351 352 353 352 350 350 350 351 352 353 352 352 351 349 349 349 349 351 351 352 352 350 349 350 352 353 352 351 350 350 350 351 354
342 343 345 347 347 347 348 349 350 351 351 352 352 351 349 349 350 352 352 351 350 349 348 348 349 349 351 350 351 351 350 349 353 356 354 353 352 351 350 350 353 355
341 341 342 343 344 344 344 345 346 347 349 351 350 350 350 350 350 351 351 350 348 347 348 347 348 348 349 350 351 351 350 351 355 356 354 353 352 350 349 350 352 353
340 341 341 340 341 342 342 342 343 344 345 346 347 347 348 348 349 349 348 347 346 346 345 344 344 345 346 348 349 350 350 351 354 355 354 353 351 349 348 350 352 351

ECMWFNIL_925_thetae_111.txt.gz
Theta_e
353 352 354 354 353 355 356 354 352 353 354 354 355 355 355 354 354 354 354 355 353 355 359 359 357 357 357 357 357 355 356 356 356 356 356 356 356 354 354 354 353 351
354 353 353 354 354 355 355 354 353 354 355 356 356 356 355 355 355 354 353 354 354 353 357 358 357 356 356 357 357 356 355 356 356 357 357 357 356 355 355 356 354 351
354 352 353 354 355 355 354 355 355 355 355 356 356 355 354 355 354 354 353 355 355 354 355 357 358 356 355 357 359 358 356 355 355 357 357 356 356 356 356 356 355 353
355 352 351 354 354 353 353 354 355 357 356 355 355 354 353 354 354 354 354 355 356 356 355 356 357 357 356 357 359 359 357 357 356 357 357 356 357 357 356 356 356 355
355 353 351 352 353 353 355 355 355 356 356 355 355 355 355 355 355 355 355 355 356 356 357 356 356 358 359 358 358 359 358 359 359 359 358 356 357 357 356 356 356 355
355 355 353 353 354 355 356 355 355 356 356 356 356 355 355 355 355 356 356 355 355 356 357 357 356 358 359 359 360 359 358 359 360 360 359 357 358 357 356 358 358 355
357 357 355 354 355 356 357 356 355 356 357 357 356 355 355 354 355 356 356 356 357 356 357 358 358 358 359 360 360 359 359 359 360 360 360 359 359 357 356 358 359 358
358 358 356 355 354 355 356 355 354 356 357 356 355 354 355 355 355 356 356 357 357 357 357 357 358 358 359 359 359 359 360 359 359 358 357 357 357 356 356 358 360 359
358 358 357 356 355 355 355 354 353 354 355 355 354 354 354 355 356 356 356 356 357 357 357 357 356 356 357 358 358 359 360 360 359 358 357 357 356 354 355 358 360 360
357 357 356 356 356 355 354 354 354 353 354 354 354 353 354 354 356 356 356 356 356 357 357 356 355 355 356 357 357 358 359 358 358 359 359 358 356 354 356 358 359 360
355 355 356 355 354 354 353 353 354 353 353 354 354 353 354 355 354 355 356 355 355 356 356 356 356 356 356 357 357 358 357 355 355 358 360 358 357 358 358 359 359 358
353 353 354 354 353 352 352 352 351 352 352 353 353 353 354 355 353 353 354 355 355 356 356 357 357 357 357 358 358 358 357 356 356 359 360 358 357 358 359 359 358 358
353 352 352 353 353 351 350 349 349 349 349 351 352 352 353 353 351 352 354 354 354 356 357 357 358 358 358 358 359 358 357 357 357 358 359 358 356 357 357 357 357 357
355 355 354 352 353 352 350 348 348 348 347 348 350 351 351 351 351 351 353 353 353 354 357 357 357 358 359 358 359 359 358 358 357 357 357 356 355 356 356 355 356 356
356 357 356 355 353 353 352 349 348 348 347 346 348 349 349 350 350 351 352 352 352 353 356 358 358 357 358 358 359 359 358 359 358 357 356 356 356 355 355 354 355 354
357 357 357 357 355 354 354 352 350 350 349 347 347 348 348 348 348 349 350 352 353 354 356 358 358 357 357 358 359 358 358 359 359 357 356 356 356 355 355 354 352 352
358 357 357 357 355 355 356 354 352 351 350 349 348 347 348 349 349 348 349 350 352 355 358 358 357 356 356 356 357 358 359 359 358 357 356 355 355 355 355 354 353 353
356 356 356 356 356 357 357 356 354 352 351 350 350 349 349 349 349 349 349 350 350 352 354 355 355 355 355 354 355 355 356 357 357 358 357 353 353 355 355 354 353 353
352 353 354 354 354 355 357 357 356 354 353 352 351 352 351 349 350 351 351 351 349 349 349 350 352 354 353 352 352 351 352 353 354 356 354 351 352 353 352 352 353 353
350 350 351 352 351 351 353 355 356 356 357 356 355 354 354 353 352 353 353 351 350 350 349 349 351 352 351 350 350 350 349 349 351 353 351 349 351 351 350 350 352 352
352 352 351 351 351 350 350 351 353 354 356 357 356 356 356 356 355 355 354 352 351 351 350 350 351 350 350 349 349 349 350 350 352 353 351 349 349 349 349 349 351 351
350 351 351 350 351 351 351 351 352 353 354 355 356 355 355 355 354 354 355 353 351 351 350 350 351 350 350 350 349 351 352 352 352 351 350 349 349 349 349 348 349 350
347 349 350 350 350 352 352 352 353 353 353 355 355 354 353 353 352 352 353 353 351 351 351 351 350 350 351 349 349 352 352 352 352 350 348 348 349 350 350 349 349 350
344 346 347 348 348 349 349 350 352 352 352 353 353 352 351 351 350 350 350 351 351 351 351 350 350 350 350 349 350 352 351 351 354 354 351 350 351 350 350 351 351 352
341 342 343 343 344 345 346 347 348 349 350 351 352 352 352 350 349 348 348 348 349 350 350 350 349 349 349 349 349 350 350 350 353 355 353 351 351 351 350 351 352 353
340 341 341 341 341 342 343 344 345 345 346 348 349 350 350 350 349 348 348 348 347 347 346 346 346 346 347 348 349 349 350 350 351 354 354 352 352 351 350 350 351 352

ECMWFNIL_925_thetae_114.txt.gz
Theta_e
352 352 352 353 352 351 352 353 353 354 355 355 355 355 355 355 355 354 353 355 355 356 357 357 357 356 355 355 355 355 355 355 355 354 355 355 353 352 353 355 354 353
352 351 352 352 352 352 353 354 354 355 355 356 355 354 354 355 354 354 353 354 355 354 354 356 357 356 356 356 356 355 355 355 355 354 355 355 353 352 353 355 355 353
353 351 351 352 353 353 353 354 355 354 353 354 353 353 354 354 354 354 354 353 354 353 353 353 355 354 354 354 355 354 353 354 355 355 356 356 354 354 354 354 355 354
354 352 351 352 353 352 352 354 354 352 352 354 354 354 355 354 354 355 354 353 353 354 353 353 354 354 353 352 354 356 355 354 354 354 356 356 355 355 355 355 355 355
354 353 352 352 353 352 353 354 353 352 353 354 355 355 355 354 354 355 354 354 354 354 354 354 354 355 354 353 353 356 358 356 355 356 357 356 355 355 355 355 355 355
355 354 352 352 353 353 353 353 353 353 354 355 354 355 354 353 353 354 354 354 355 355 355 355 356 355 355 356 355 356 357 357 357 358 359 357 356 355 354 355 356 357
355 355 353 351 352 353 353 352 353 354 354 355 354 354 355 354 354 355 354 354 355 355 356 356 356 356 355 357 358 358 357 356 357 358 359 359 359 358 356 354 356 358
355 356 353 350 350 351 351 352 354 353 354 355 354 355 355 355 355 355 354 355 355 355 355 355 356 357 356 357 358 359 358 357 357 358 359 359 359 358 356 354 356 357
356 356 354 352 351 350 351 353 355 354 355 355 355 355 355 354 354 354 354 355 355 355 355 355 356 357 357 358 358 358 359 358 358 358 358 358 357 356 355 354 354 356
356 356 355 355 354 353 353 355 355 354 355 356 356 355 355 354 354 354 355 355 355 356 356 356 356 356 357 357 358 358 358 358 359 359 358 358 358 357 356 354 354 356
358 357 357 357 356 354 354 354 355 354 353 354 356 356 354 354 354 354 355 355 355 355 356 356 356 356 356 356 356 357 357 357 358 358 358 358 358 358 357 355 356 357
357 356 355 356 356 355 354 354 354 353 353 353 354 354 353 353 353 354 355 355 355 355 355 356 356 356 355 355 355 356 356 356 357 357 356 356 357 358 357 357 358 358
356 355 353 354 355 356 355 355 354 353 353 353 353 353 353 353 353 354 354 355 355 355 355 355 356 356 355 356 356 356 357 357 357 357 356 356 357 358 358 357 358 358
354 353 352 353 355 356 355 354 354 353 353 352 353 353 353 353 353 354 354 353 354 354 354 355 355 356 356 357 357 357 358 358 357 357 357 357 358 359 358 357 358 358
351 351 351 352 354 354 354 352 352 352 352 352 352 351 352 353 353 354 354 353 353 353 353 354 355 356 357 357 358 358 358 358 358 358 358 357 357 357 358 357 356 356
351 351 352 354 355 354 353 351 350 350 350 350 350 350 351 353 353 353 353 351 352 353 353 354 356 357 357 357 358 358 359 359 359 358 356 354 354 355 356 356 354 353
352 352 354 355 355 354 353 352 351 349 348 349 350 350 351 352 352 352 352 352 352 353 353 355 356 357 357 358 357 357 358 358 359 359 356 355 353 353 353 354 353 353
354 355 355 355 355 355 355 354 352 350 349 348 349 349 349 350 350 350 350 351 351 352 353 354 357 358 358 357 357 357 358 358 358 359 359 356 354 351 350 352 353 353
354 355 354 353 354 354 354 356 355 353 352 350 349 350 349 349 349 348 348 348 348 349 350 352 356 358 358 357 356 355 356 357 357 356 357 357 354 351 350 352 352 352
349 349 349 349 350 349 350 354 356 356 355 353 352 351 350 349 349 348 348 348 348 348 348 351 355 357 356 355 355 354 354 354 353 352 353 354 353 351 350 350 351 351
347 347 349 350 351 350 350 351 354 355 356 355 355 353 352 351 350 350 350 350 349 349 349 350 351 351 351 352 352 352 352 351 350 349 349 351 352 350 349 349 351 351
350 350 351 350 351 351 351 351 351 353 354 354 355 355 354 353 352 352 352 351 350 350 349 349 348 348 349 350 350 350 350 349 349 349 349 350 351 350 348 349 350 350
349 350 351 350 350 349 349 348 347 349 352 353 354 355 355 355 354 353 352 351 350 350 349 350 349 349 349 349 349 349 349 350 351 351 351 351 350 349 348 349 349 348
346 348 349 349 349 349 349 349 348 349 351 353 354 355 355 353 352 351 351 351 350 350 349 349 349 349 349 349 349 349 350 351 351 352 352 351 350 349 349 348 349 349
343 344 345 345 346 347 348 349 350 351 352 353 353 354 352 351 349 348 348 348 348 348 349 349 348 349 349 349 349 349 350 351 351 352 351 350 349 349 348 349 351 352
340 341 343 343 344 345 346 346 347 349 349 350 351 352 350 348 346 346 347 347 346 346 346 346 346 346 347 348 348 348 349 351 354 354 351 349 349 349 350 351 352 353

ECMWFNIL_925_thetae_117.txt.gz
Theta_e
350 351 351 352 352 352 352 353 354 353 353 354 355 355 355 355 356 356 355 354 353 354 355 356 355 355 355 354 354 355 355 354 354 354 353 354 353 352 353 353 353 352
350 351 352 353 353 353 353 353 353 352 351 353 354 354 354 355 355 354 354 354 353 354 356 356 356 355 355 355 354 354 355 354 355 355 354 355 354 352 352 353 353 353
351 352 353 353 353 353 353 352 353 352 351 352 352 353 353 354 354 354 354 354 353 353 355 355 356 356 356 356 355 354 354 354 354 355 355 355 355 354 353 353 353 354
353 353 352 353 352 352 352 352 351 352 351 352 353 354 354 354 355 354 354 354 353 353 354 354 355 355 355 355 355 354 354 353 352 353 355 355 355 355 354 355 354 354
354 355 354 352 351 352 352 351 351 352 353 353 354 354 355 354 354 354 354 354 354 353 353 354 354 354 355 355 354 354 354 353 353 352 353 353 354 355 354 354 354 354
355 356 355 353 351 351 352 352 352 353 353 354 353 353 354 354 353 354 354 354 354 354 353 354 354 353 354 355 355 354 353 354 354 354 354 354 355 355 355 354 354 354
354 355 355 354 352 350 351 352 352 352 352 353 352 352 354 354 354 354 354 354 354 354 353 353 354 354 354 355 355 356 355 356 356 356 356 356 356 356 357 356 354 353
354 354 354 354 352 351 351 352 352 352 352 353 353 353 354 354 354 354 354 354 354 354 354 354 355 355 355 355 355 356 357 357 357 357 356 356 357 358 357 356 355 353
356 356 355 354 353 352 352 352 352 352 352 352 352 354 354 354 354 354 354 354 355 354 354 355 355 355 355 356 356 356 357 357 358 357 356 356 357 357 356 355 355 354
357 357 355 354 354 353 352 350 350 350 350 352 352 353 354 354 354 354 354 355 355 354 354 355 355 355 355 356 356 357 357 357 357 358 357 357 357 357 356 357 356 355
357 357 356 355 354 354 352 349 348 348 350 352 353 353 354 354 354 354 354 354 354 354 354 355 355 355 355 355 356 356 357 357 357 357 357 357 357 357 357 358 357 355
357 356 356 355 355 355 352 350 349 349 351 353 353 354 354 355 355 355 354 353 354 354 354 355 355 355 355 355 355 356 356 356 356 357 356 356 357 356 356 356 357 356
357 356 355 355 356 355 354 353 352 352 353 354 353 353 354 354 355 355 354 353 353 354 354 355 355 355 355 356 356 355 355 355 356 356 356 356 357 356 355 355 357 357
357 357 356 356 356 356 355 355 354 353 353 353 353 353 352 353 354 354 354 353 353 354 354 354 354 355 355 355 356 355 355 355 355 356 356 357 357 356 355 356 358 358
356 356 357 357 357 357 356 356 355 354 354 353 354 353 352 352 353 353 353 353 353 353 353 354 354 354 355 355 355 355 355 356 356 357 357 357 357 356 355 355 357 357
352 351 352 354 355 355 355 354 355 355 355 354 354 353 353 353 353 353 353 353 353 353 353 354 354 354 355 355 355 356 356 357 357 357 358 358 357 356 354 354 355 356
351 349 349 349 350 350 351 352 353 353 354 354 354 353 353 353 353 353 353 353 353 353 353 354 354 353 354 354 355 356 357 357 358 358 358 358 358 356 355 354 353 354
350 350 349 349 350 350 349 351 351 350 351 352 352 351 350 351 352 353 352 352 352 353 353 353 352 353 353 354 356 357 357 357 358 358 359 358 358 357 356 354 353 352
349 349 349 349 351 351 350 350 349 349 349 349 350 350 349 350 351 352 352 352 352 352 352 352 352 352 352 353 355 357 357 357 358 358 358 358 357 357 357 355 352 351
350 349 349 350 351 351 350 349 350 350 349 349 349 349 349 349 349 350 351 352 352 352 352 352 353 353 354 354 355 357 357 357 358 357 357 358 357 356 356 355 352 350
349 347 348 350 350 351 351 350 351 351 351 350 349 348 348 349 349 349 350 350 350 350 351 352 353 353 354 355 355 357 357 356 356 355 355 356 355 354 354 354 352 350
348 347 348 350 349 350 351 350 350 350 351 351 351 350 349 348 347 348 349 348 348 349 349 350 351 351 352 354 355 356 355 354 354 353 353 352 352 351 351 351 352 350
349 349 349 349 349 350 350 350 350 350 351 351 351 351 350 348 348 348 349 349 349 349 348 349 349 350 350 351 352 352 352 352 351 351 350 349 349 349 349 350 351 349
348 349 349 349 350 349 349 349 349 349 349 349 349 348 347 347 350 350 350 350 350 349 349 348 347 347 347 348 348 349 349 349 349 349 349 349 350 349 349 350 349 349
345 346 347 347 348 348 348 348 348 348 348 348 348 348 347 348 351 350 348 349 350 349 349 347 346 345 345 346 347 347 348 349 349 349 350 350 350 350 349 349 348 349
342 343 344 344 344 345 345 346 347 347 347 348 348 348 348 348 348 347 346 347 348 348 347 345 344 345 346 346 346 347 348 348 348 349 350 350 349 349 349 349 349 349

ECMWFNIL_925_thetae_120.txt.gz
Theta_e
349 348 349 349 349 349 349 349 349 351 353 354 354 351 350 353 355 355 355 355 355 354 353 352 353 354 354 354 354 354 354 353 353 354 353 354 353 353 353 353 353 352
350 349 350 350 350 349 349 350 350 351 352 353 354 352 352 353 354 355 355 355 355 353 353 353 353 354 354 354 354 354 354 354 354 354 354 354 354 353 353 353 353 354
350 350 350 350 350 350 350 350 350 351 352 352 353 353 353 353 354 354 355 354 354 353 353 353 354 355 355 355 355 355 355 355 354 355 355 355 355 355 354 354 353 354
351 351 351 350 350 350 350 351 351 351 352 352 353 352 352 353 353 353 354 354 353 353 353 353 354 354 355 355 355 356 355 355 355 354 354 354 355 355 354 354 354 354
352 352 352 351 350 351 352 352 353 352 352 352 352 351 351 352 353 352 353 353 353 354 353 353 353 353 353 354 354 356 355 354 354 354 354 353 353 353 354 354 354 353
353 353 353 352 351 351 352 353 352 352 352 352 351 351 351 352 353 354 354 354 354 354 353 353 353 352 352 353 353 354 355 354 354 354 355 353 353 353 354 355 354 353
353 353 353 353 352 352 353 353 352 351 351 351 351 351 352 353 353 354 354 354 354 353 353 353 353 353 353 353 353 353 354 354 354 354 355 354 354 354 355 356 356 354
353 353 353 353 353 354 354 353 352 350 351 351 351 351 352 353 353 353 353 354 354 354 353 353 353 353 353 353 353 353 354 355 355 355 355 355 355 355 355 357 357 355
354 354 354 353 353 353 354 354 352 350 350 351 352 351 352 352 352 352 353 354 354 353 353 353 353 353 353 353 353 354 354 355 355 356 357 356 355 354 355 356 356 355
354 354 354 353 353 353 353 354 352 351 351 351 352 352 352 352 352 353 354 354 353 353 353 353 354 353 354 354 354 355 355 355 356 357 357 357 356 355 356 356 356 356
355 355 355 354 353 353 352 352 352 351 351 351 352 352 352 352 352 353 354 353 353 353 353 354 354 354 354 354 354 354 355 355 356 356 357 357 357 356 356 356 356 357
356 355 355 355 354 353 353 352 352 352 351 350 350 350 351 351 352 353 353 353 354 354 354 354 354 354 354 354 354 354 354 355 355 356 356 356 356 356 356 356 356 356
356 356 356 355 355 355 354 353 353 353 353 351 349 348 348 351 352 353 353 354 354 354 354 354 354 353 354 354 354 355 354 355 355 355 356 356 356 355 355 356 355 354
356 356 356 356 356 356 355 355 355 355 355 353 351 349 349 351 353 353 354 354 354 354 354 354 353 353 354 354 354 355 354 355 355 355 355 355 355 355 356 356 356 355
356 356 356 356 356 356 355 356 355 355 355 354 353 353 353 353 353 353 353 353 353 353 354 354 353 353 354 354 354 354 354 355 355 354 354 354 355 356 356 356 356 355
356 356 356 355 355 355 355 355 355 355 354 354 354 354 354 354 353 353 353 353 352 352 352 353 353 353 353 353 354 354 354 355 355 354 355 355 356 356 356 357 356 354
355 355 355 355 355 354 354 354 355 354 354 354 353 353 353 354 353 353 353 353 353 352 352 352 352 352 352 353 353 354 354 354 354 355 355 356 357 357 357 357 356 355
354 354 355 355 354 354 353 354 354 353 354 354 353 352 352 352 353 353 353 353 353 352 352 352 352 351 352 352 353 353 353 353 354 355 356 356 357 357 357 357 357 356
353 353 353 353 352 352 351 352 352 352 352 352 351 351 350 350 351 351 351 351 351 352 352 352 352 352 352 352 353 352 352 353 354 355 356 357 356 357 357 357 357 357
351 352 352 351 351 351 350 351 351 351 351 350 349 349 349 349 349 349 349 349 350 350 351 352 352 352 352 352 352 352 353 354 355 356 357 357 357 357 357 357 357 356
350 350 350 351 350 349 349 350 350 350 349 349 349 348 348 348 348 348 348 348 348 349 349 351 351 351 352 352 352 353 353 354 356 356 357 357 357 356 356 356 357 356
349 349 349 349 349 348 348 349 350 349 348 349 350 350 349 349 348 348 348 347 347 347 348 349 350 350 351 352 352 353 354 354 356 356 356 356 356 356 355 355 354 354
349 348 348 348 347 347 347 348 348 348 347 348 350 351 350 351 350 350 349 348 346 346 347 348 348 349 350 350 351 352 352 353 354 354 354 354 354 354 353 352 352 351
348 347 347 347 347 347 348 348 348 348 348 349 350 351 351 352 352 351 350 349 348 347 348 348 347 347 347 347 348 349 350 351 351 351 351 351 351 351 350 350 349 349
346 346 346 346 346 347 348 348 348 348 349 349 349 350 351 351 350 350 349 348 348 348 347 347 346 345 345 346 346 346 347 347 348 348 348 348 349 349 349 349 349 349
344 344 344 344 344 345 346 347 347 348 348 348 348 347 348 348 347 348 347 346 346 346 346 346 346 345 345 345 345 345 346 346 346 347 347 347 347 347 348 349 349 349

ECMWFNIL_925_thetae_123.txt.gz
Theta_e
349 350 349 348 348 348 349 348 349 351 351 352 355 355 355 354 351 351 355 356 355 356 356 354 353 353 355 355 355 354 354 355 356 356 355 355 357 357 356 357 358 358
349 350 349 348 348 348 348 348 349 350 349 350 352 354 354 353 350 349 353 356 356 356 356 355 354 354 355 356 355 355 355 355 357 358 357 357 358 357 357 357 357 358
349 349 349 349 349 348 348 349 349 349 350 350 351 352 353 354 353 351 352 355 356 357 356 355 356 355 355 356 355 356 358 357 358 358 358 358 358 358 358 357 357 357
348 349 350 351 352 350 349 350 349 349 350 351 351 352 352 354 354 354 353 354 354 355 355 354 355 355 355 355 355 357 358 358 358 357 357 357 358 358 358 358 357 357
349 349 351 352 352 351 350 350 351 350 350 351 351 352 352 352 353 355 355 354 354 355 355 354 354 355 355 354 355 357 358 359 358 357 357 358 357 357 358 359 358 358
350 349 351 352 351 350 351 352 352 352 352 353 353 353 353 353 353 354 355 355 355 355 355 355 356 355 355 355 354 355 356 357 358 358 358 359 358 358 358 359 359 359
351 350 351 352 353 351 352 353 353 353 354 354 354 353 353 353 352 352 353 354 356 356 356 356 355 354 355 355 354 354 354 356 357 357 358 358 359 359 358 359 360 360
352 352 352 353 354 354 354 355 354 354 354 354 355 354 353 354 354 354 354 354 356 356 356 356 355 353 354 355 355 354 355 356 357 357 358 358 359 359 358 359 360 360
354 354 353 354 355 356 356 356 355 355 355 354 355 355 355 354 354 356 356 354 354 355 355 355 355 354 354 355 354 353 355 356 357 358 359 359 359 359 359 358 359 359
355 355 355 355 356 356 356 356 356 356 356 355 355 355 356 355 354 356 355 353 353 355 355 355 355 354 354 354 353 353 354 356 357 358 358 359 359 360 359 358 358 358
357 357 356 356 356 356 356 356 356 356 356 355 355 355 356 356 354 354 354 353 354 355 356 355 355 354 353 354 355 355 355 356 357 358 358 359 359 359 360 360 359 359
358 357 357 357 357 357 356 356 355 355 355 355 355 355 355 355 355 355 354 353 353 355 356 355 354 354 354 354 356 357 356 357 357 358 358 358 359 359 359 359 359 359
358 358 358 358 358 357 357 356 355 355 355 355 355 355 354 354 354 354 354 353 353 354 355 355 354 354 354 354 355 357 357 357 357 358 358 358 358 358 358 359 359 359
358 358 358 358 358 358 358 357 357 356 356 356 356 356 355 354 354 354 354 354 355 354 355 355 355 355 355 354 354 355 357 358 358 358 357 356 355 355 356 357 358 359
358 357 358 358 358 358 358 357 357 356 356 356 356 356 356 355 355 355 355 356 356 355 355 356 356 357 356 354 354 355 356 355 356 357 355 353 353 353 353 355 356 358
358 357 358 358 358 358 357 356 355 355 354 355 355 356 356 355 355 356 356 356 357 357 356 355 355 355 354 353 353 355 355 352 353 355 354 353 354 353 353 356 357 359
358 358 358 358 357 357 355 354 355 354 354 355 355 355 354 354 355 355 356 356 356 357 357 355 354 353 352 351 351 353 353 351 351 354 353 352 354 354 355 358 359 359
357 357 357 357 357 356 355 355 355 354 354 355 354 354 354 354 354 354 354 355 355 356 356 355 354 353 351 350 350 350 352 352 353 355 355 355 355 356 356 359 359 359
354 354 355 356 356 355 355 355 354 354 355 354 354 353 353 353 353 352 352 353 354 354 353 354 354 352 350 350 351 351 351 353 354 357 358 357 357 357 358 358 358 359
352 352 353 354 355 355 355 354 353 353 353 353 353 353 352 351 351 351 351 351 351 351 352 354 354 352 350 350 351 352 352 352 353 356 359 359 358 358 359 358 358 358
350 351 351 351 351 352 353 352 352 352 351 350 350 350 350 349 349 349 350 349 349 350 351 353 352 350 350 351 351 351 352 352 352 354 357 358 358 359 359 359 358 358
349 349 348 347 347 348 349 348 349 350 350 349 349 349 349 348 348 348 348 348 348 348 349 349 349 349 349 350 350 350 351 351 352 352 354 356 358 358 357 357 357 357
348 347 346 346 346 346 346 346 347 348 347 348 350 350 350 350 350 349 349 348 347 347 346 347 347 347 348 348 349 349 350 351 351 352 353 354 355 356 355 355 356 355
346 345 345 345 345 344 344 344 345 345 344 346 349 350 350 350 351 351 351 350 348 347 347 347 346 347 346 346 347 347 347 348 349 350 351 352 353 354 353 353 353 353
345 345 344 344 344 344 343 344 345 345 345 346 349 349 348 348 348 349 349 349 348 347 346 346 345 345 345 345 345 345 345 346 348 349 350 351 352 352 352 352 353 352
343 343 343 343 343 343 343 343 344 345 346 347 348 347 347 347 347 347 347 346 345 345 345 344 344 343 343 343 344 344 344 345 347 349 349 349 350 350 350 351 351 350

ECMWFNIL_925_thetae_126.txt.gz
Theta_e
354 354 354 355 354 353 353 354 354 354 354 354 353 351 353 354 355 355 354 357 359 359 360 361 360 360 360 361 362 360 360 360 358 358 359 358 357 355 355 356 356 356
354 354 354 354 355 355 355 355 355 355 355 355 354 352 353 354 355 355 354 355 358 358 360 361 360 360 358 359 363 361 361 361 358 357 359 360 358 356 356 355 355 356
355 354 354 354 354 355 355 355 355 355 355 355 355 355 354 354 354 355 354 354 356 357 359 360 360 360 358 359 362 360 360 363 360 357 360 361 359 358 357 356 355 355
355 353 354 353 353 354 354 354 355 355 355 355 355 355 355 355 355 356 356 356 357 358 359 360 360 359 358 360 362 359 359 362 361 360 361 360 359 359 358 357 356 355
355 354 354 353 353 354 354 354 355 355 355 355 355 355 356 357 357 356 357 357 357 357 357 358 358 358 357 359 360 358 358 359 359 361 362 360 358 358 357 357 358 357
355 355 354 354 353 354 354 355 355 355 355 355 355 355 356 358 357 357 357 357 357 356 356 356 356 356 356 357 359 358 358 357 357 361 363 361 358 357 356 356 359 359
355 355 354 353 353 354 355 355 355 355 355 355 355 355 356 356 357 357 357 357 357 355 355 355 356 357 356 357 359 359 359 358 358 361 362 360 359 358 357 356 358 360
354 354 354 353 352 353 355 355 355 355 355 355 355 356 356 356 357 357 356 357 356 356 356 356 357 359 358 356 357 359 360 358 357 360 360 359 359 360 359 357 358 360
355 354 354 353 352 353 354 354 354 355 356 356 355 355 356 356 356 356 356 357 356 356 357 357 357 358 357 356 357 359 359 358 356 358 359 360 360 359 359 357 357 358
355 354 353 352 351 352 353 354 354 354 355 356 355 355 355 356 356 356 357 358 358 357 357 357 357 357 357 356 357 358 358 358 358 358 358 359 359 359 359 358 358 358
355 354 353 352 351 351 352 353 353 353 355 355 355 354 354 355 356 356 357 359 359 358 357 358 357 358 358 356 356 357 357 357 358 358 358 358 359 359 360 359 359 359
355 354 354 352 351 351 351 353 353 353 354 355 355 355 354 355 356 356 357 358 359 358 357 358 358 358 359 358 357 357 357 357 357 357 357 357 357 358 358 359 359 358
356 356 356 355 353 352 351 352 353 352 353 353 354 354 354 354 355 356 357 357 357 357 356 358 360 359 360 360 359 357 357 357 356 355 355 355 356 357 358 358 358 358
354 355 358 358 356 355 354 353 354 353 352 353 354 354 354 354 353 354 355 355 356 356 356 357 359 360 360 360 359 358 357 357 357 356 356 357 358 358 358 358 357 357
355 354 355 359 359 357 356 355 355 354 354 353 354 354 354 353 353 353 354 354 355 355 356 357 357 358 358 359 359 359 357 357 358 357 358 358 358 358 357 357 357 356
356 356 354 355 355 355 356 358 358 356 355 356 356 355 355 354 354 354 353 354 355 356 356 357 357 357 357 357 358 358 358 359 359 357 357 358 358 358 357 357 357 355
355 356 356 355 355 353 351 354 358 359 358 358 358 356 356 355 355 355 354 354 354 355 356 357 356 356 357 357 356 355 356 360 360 357 356 357 358 359 358 357 355 354
353 353 354 355 355 353 349 350 356 361 362 360 358 357 358 358 357 356 356 356 356 355 356 356 356 356 356 355 354 352 352 356 358 358 357 357 358 358 358 358 355 355
352 352 353 354 355 354 352 352 351 355 361 362 359 358 359 360 359 357 356 357 357 356 355 356 355 354 355 354 353 350 350 352 356 358 358 358 359 358 358 359 358 356
352 353 353 354 355 353 353 353 350 351 357 361 360 360 361 361 360 358 357 357 356 356 358 358 355 353 355 355 353 351 350 350 354 357 358 359 359 357 357 358 358 357
353 355 354 353 353 351 351 353 352 351 353 354 356 357 358 359 359 358 358 357 356 355 354 353 352 353 356 355 352 352 351 351 354 357 358 359 359 358 358 358 357 357
352 353 352 352 351 350 351 352 352 352 352 352 352 353 354 355 357 356 355 356 357 356 353 350 349 352 354 352 351 351 350 351 354 357 359 360 359 358 357 356 356 356
351 351 351 350 350 348 348 349 350 351 351 351 351 351 351 352 353 352 351 350 351 352 354 350 347 348 350 349 349 349 349 351 355 357 358 359 359 357 356 356 357 359
348 349 348 348 347 346 345 346 347 347 348 348 349 349 349 351 352 351 350 348 346 347 350 348 344 344 345 346 347 347 347 350 354 357 357 358 358 358 358 358 358 358
346 346 346 345 345 345 345 344 344 344 346 346 347 348 349 349 349 349 348 347 346 346 346 345 342 341 342 344 345 345 346 348 352 354 354 355 356 357 357 357 356 356
343 344 345 345 344 344 344 344 344 345 346 346 347 349 349 348 347 346 344 343 343 343 343 342 341 340 341 343 344 345 345 347 350 352 353 353 354 354 354 354 354 354